     2              OBSERVATION DATA    GPS                 RINEX VERSION / TYPE
teqc 1998Mar9 19981006 17:22:50UTC                          PGM / RUN BY / DATE
                                                            COMMENT
Original Marker Name: 0840                                  COMMENT
Campaign Name: HPGN 1998                                    COMMENT
4-Character Station Name: 0840                              COMMENT
6-Character Antenna Code: TRMCMP                            COMMENT
Vertical Measurement Point: BPA                             COMMENT
Vertical Offset to Rinex Ref. Point: 0.0000                 COMMENT
Radial Measurement Point: RRP                               COMMENT
Radial Offset to Rinex Ref. Point: 0.0000                   COMMENT
Antenna Height from Field Measurement: 2.0000 m             COMMENT
Original XYZ: -2525018.5892 -4651367.8246 3547498.0536      COMMENT
New XYZ position is based on association with SCEC monument COMMENT
E1C7Y1Y4+0011. Position of that monument is believed to be  COMMENT
valid to within 1 m horizontally; vertical accuracy         COMMENT
should be no worse than 3-times this value.                 COMMENT
                                                            COMMENT
Revised Rinex header created by UCSD GPS archive for        COMMENT
GSAC on 31-Aug-1999 (1999:243) 00:31:37 GMT                 COMMENT
For assistance contact dagnew@ucsd.edu or hjohnson@ucsd.edu COMMENT
                                                            COMMENT
941 0840 N                                                  MARKER NAME
unknown CALIF DEPT TRANSPORTATION                           OBSERVER / AGENCY
4869 TRIMBLE 4000 SSE NP 7.25; SP 3.07                      REC # / TYPE / VERS
76725 TR GEOD L1/L2 GP                                      ANT # / TYPE
 -2525016.0000 -4651366.0000  3547490.0000                  APPROX POSITION XYZ
        2.0000        0.0000        0.0000                  ANTENNA: DELTA H/E/N
     1     1     0                                          WAVELENGTH FACT L1/2
     7    L1    L2    C1    P2    P1    D1    D2            # / TYPES OF OBSERV
     0                                                      INTERVAL
  1998     6    17    15    37   15.000000                  TIME OF FIRST OBS
  1998     6    17    21     7   15.000000                  TIME OF LAST OBS
                                                            END OF HEADER
 98  6 17 15 37 15.0000000  0  7G 2G 4G 8G 7G 9G 5G24
   7090405.81555   5524983.54255  23616170.4224   23616175.8954
     -2959.0944      -2305.7874
  -2553522.21857  -1967327.24257  20681086.3204   20681089.6134
      -318.0004       -247.7924
  -1556869.31555  -1088152.62255  22786103.8754   22786106.6414
      2173.7194       1693.8074
   7383925.24656   5753703.93755  22614976.4534   22614981.2814
     -2782.9844      -2168.5594
  -2654481.52157  -2057549.33557  21289213.1024   21289216.0664
      -194.2504       -151.3644
  -7032985.68755  -5324508.98655  22820253.0394   22820257.5744
      2100.5314       1636.7784
  -7943143.78356  -6118511.35656  21268661.6644   21268667.0904
      1865.0314       1453.2714
 98  6 17 15 37 30.0000000  0  7G 2G 4G 8G 7G 9G 5G24
   7134831.85145   5559601.20045  23624623.7274   23624630.1484
     -2964.3594      -2309.8904
  -2548660.37247  -1963538.77947  20682011.6564   20682014.4694
      -330.2664       -257.3504
  -1589411.55345  -1113510.22445  22779911.3834   22779914.1484
      2165.2034       1687.1714
   7425691.25846   5786248.86646  22622924.2344   22622928.9694
     -2785.8444      -2170.7874
  -2651484.88447  -2055214.30247  21289783.2584   21289786.3634
      -205.3284       -159.9964
  -7064475.52945  -5349046.51645  22814260.8284   22814264.7304
      2098.1094       1634.8904
  -7971053.23246  -6140258.95946  21263350.6094   21263355.4734
      1856.2664       1446.4414
 98  6 17 15 37 45.0000000  0  7G 2G 4G 8G 7G 9G 5G24
   7179335.99445   5594279.71444  23633093.0004   23633099.5514
     -2969.6874      -2314.0424
  -2543614.46647  -1959606.89747  20682972.0474   20682974.5434
      -342.6724       -267.0174
  -1621826.64845  -1138768.73945  22773743.0784   22773745.3404
      2156.7344       1680.5724
   7467500.78246   5818827.69446  22630880.2734   22630885.9924
     -2788.8914      -2173.1624
  -2648323.37947  -2052750.79447  21290384.9064   21290388.1884
      -216.2664       -168.5194
  -7095930.29245  -5373556.71545  22808274.8674   22808278.6524
      2095.7664       1633.0644
  -7998833.31246  -6161905.76946  21258064.1724   21258069.4804
      1847.6254       1439.7084
 98  6 17 15 38  0.0000000  0  7G 2G 4G 8G 7G 9G 5G24
   7223923.47945   5629023.18744  23641577.9384   23641585.6524
     -2975.3284      -2318.4374
  -2538380.55647  -1955528.52847  20683968.0234   20683970.8484
      -355.1414       -276.7334
  -1654112.38745  -1163926.45145  22767598.8524   22767601.9224
      2148.0944       1673.8394
   7509358.38446   5851443.98045  22638845.7114   22638850.9384
     -2792.0784      -2175.6454
  -2644997.64647  -2050159.31947  21291018.1644   21291021.1174
      -227.1724       -177.0174
  -7127347.91945  -5398037.96945  22802296.0234   22802300.3834
      2093.2974       1631.1404
  -8026483.23246  -6183451.14146  21252802.7034   21252807.9534
      1839.0474       1433.0244
 98  6 17 15 38 15.0000000  0  7G 2G 4G 8G 7G 9G 5G24
   7268597.14145   5663833.76644  23650078.8204   23650084.5864
     -2981.2034      -2323.0154
  -2532962.00947  -1951306.27647  20684998.8914   20685002.1024
      -367.2974       -286.2054
  -1686270.34645  -1188984.58645  22761479.2424   22761482.8524
      2139.6564       1667.2654
   7551262.89246   5884096.82745  22646820.0944   22646825.1454
     -2795.1414      -2178.0324
  -2641508.61747  -2047440.60647  21291682.0084   21291685.1024
      -238.0314       -185.4794
  -7158729.37045  -5422491.04645  22796324.5314   22796329.3484
      2090.8914       1629.2654
  -8054005.94246  -6204897.39446  21247565.4534   21247570.8444
      1830.6414       1426.4734
 98  6 17 15 38 30.0000000  0  7G 2G 4G 8G 7G 9G 5G24
   7313359.11745   5698713.18945  23658596.7664   23658602.6604
     -2987.1254      -2327.6304
  -2527362.57947  -1946943.08847  20686064.3834   20686067.7934
      -379.2504       -295.5194
  -1718302.16245  -1213944.42345  22755383.9774   22755387.6334
      2131.3134       1660.7634
   7593211.71446   5916784.21445  22654802.4614   22654806.8094
     -2798.0624      -2180.3084
  -2637856.10947  -2044594.49847  21292377.0944   21292380.2344
      -248.9224       -193.9654
  -7190073.67645  -5446915.19045  22790360.1414   22790365.1094
      2088.3594       1627.2934
  -8081402.40846  -6226245.26646  21242352.1804   21242357.6294
      1822.1884       1419.8864
 98  6 17 15 38 45.0000000  0  7G 2G 4G 8G 7G 9G 5G24
   7358213.05545   5733664.23545  23667132.3594   23667138.3714
     -2993.3754      -2332.5004
  -2521584.22047  -1942440.46846  20687163.9384   20687167.2074
      -391.1254       -304.7734
  -1750208.92445  -1238806.83845  22749311.9844   22749316.0744
      2122.9534       1654.2494
   7635206.57046   5949507.43445  22662793.8054   22662798.6684
     -2801.1724      -2182.7314
  -2634038.98147  -2041620.11847  21293103.6174   21293106.7704
      -260.0004       -202.5974
  -7221379.21445  -5471309.09645  22784402.7894   22784407.4534
      2085.7814       1625.2844
  -8108669.78647  -6247492.57646  21237163.1804   21237168.4534
      1813.5004       1413.1174
 98  6 17 15 39  0.0000000  0  7G 2G 4G 8G 7G 9G 5G24
   7403161.51745   5768688.98245  23675685.9924   23675692.2974
     -2999.8284      -2337.5284
  -2515628.04147  -1937799.28947  20688297.7584   20688300.8524
      -403.0944       -314.0994
  -1781990.56445  -1263571.73045  22743264.2274   22743267.6724
      2114.5164       1647.6754
   7677247.18446   5982266.32045  22670793.6804   22670799.0594
     -2804.3124      -2185.1794
  -2630055.49747  -2038516.10947  21293861.5234   21293864.0434
      -271.2344       -211.3514
  -7252646.81245  -5495673.43645  22778452.7504   22778457.7774
      2083.1254       1623.2144
  -8135806.80347  -6268638.28546  21231999.0784   21232003.8244
      1804.7344       1406.2874
 98  6 17 15 39 15.0000000  0  7G 2G 4G 8G 7G 9G 5G24
   7448207.11445   5803789.40645  23684258.2034   23684264.5554
     -3006.3284      -2342.5934
  -2509491.28047  -1933017.39447  20689465.4224   20689468.1174
      -415.1414       -323.4864
  -1813642.36645  -1288235.45445  22737240.5004   22737246.2664
      2105.6564       1640.7714
   7719334.09646   6015061.28345  22678802.4774   22678807.8914
     -2807.1724      -2187.4074
  -2625902.28547  -2035279.86247  21294651.8364   21294654.5084
      -282.5004       -220.1304
  -7283871.83445  -5520004.60845  22772510.9534   22772515.7464
      2080.1884       1620.9254
  -8162810.59946  -6289680.19246  21226860.0944   21226865.1214
      1795.7344       1399.2744
 98  6 17 15 39 30.0000000  0  7G 2G 4G 8G 7G 9G 5G24
   7493350.23145   5838965.79045  23692848.3284   23692854.4104
     -3012.7504      -2347.5974
  -2503174.50147  -1928095.23646  20690667.3284   20690670.1764
      -427.0784       -332.7884
  -1845159.47345  -1312794.22445  22731243.4534   22731249.4304
      2096.6724       1633.7704
   7761462.11946   6047888.30045  22686819.3524   22686824.2274
     -2809.9064      -2189.5374
  -2621581.68247  -2031913.16547  21295473.7894   21295476.9304
      -293.5474       -228.7384
  -7315051.44445  -5544300.40045  22766577.6174   22766581.3674
      2077.1414       1618.5514
  -8189679.44746  -6310616.95046  21221747.5164   21221752.6484
      1786.7814       1392.2974
 98  6 17 15 39 45.0000000  0  7G 2G 4G 8G 7G 9G 5G24
   7538591.26045   5874218.50245  23701457.5554   23701463.1684
     -3019.4064      -2352.7844
  -2496677.11947  -1923032.34447  20691903.7504   20691906.1764
      -439.2344       -342.2614
  -1876540.07945  -1337246.64245  22725271.5944   22725276.7034
      2087.3914       1626.5384
   7803631.72546   6080747.70445  22694844.2274   22694849.7114
     -2812.6724      -2191.6924
  -2617094.72147  -2028416.83447  21296327.6804   21296331.0084
      -304.6874       -237.4194
  -7346184.18945  -5568559.66145  22760653.5944   22760657.9414
      2073.9534       1616.0674
  -8216412.21546  -6331447.66946  21216660.2814   21216664.8634
      1777.5944       1385.1384
 98  6 17 15 40  0.0000000  0  7G 2G 4G 8G 7G 9G 5G24
   7583931.25945   5909548.33345  23710085.1254   23710091.4884
     -3025.9374      -2357.8734
  -2489998.36147  -1917828.11047  20693174.8754   20693177.2304
      -451.2504       -351.6234
  -1907781.09745  -1361590.27345  22719327.2194   22719332.4574
      2077.9844       1619.2094
   7845841.10746   6113638.10545  22702876.0474   22702881.6374
     -2815.2194      -2193.6774
  -2612441.42847  -2024790.89947  21297213.2734   21297216.2274
      -315.7814       -246.0634
  -7377270.22245  -5592782.53945  22754737.9304   22754741.9734
      2070.7974       1613.6084
  -8243005.40347  -6352169.61246  21211599.8204   21211604.2384
      1768.1724       1377.7964
 98  6 17 15 40 15.0000000  0  7G 2G 4G 8G 7G 9G 5G24
   7629366.38145   5944952.25844  23718731.2504   23718737.4494
     -3032.1564      -2362.7194
  -2483143.12647  -1912486.36946  20694479.0314   20694481.8444
      -462.8594       -360.6704
  -1938881.42945  -1385824.27445  22713409.1884   22713413.5004
      2068.6414       1611.9284
   7888084.71046   6146555.17445  22710915.1564   22710920.5824
     -2817.3284      -2195.3214
  -2607621.72947  -2021035.30347  21298130.5634   21298133.4804
      -326.9534       -254.7694
  -7408309.06945  -5616968.63045  22748831.7974   22748836.6844
      2067.6414       1611.1494
  -8269459.36447  -6372783.08646  21206565.9304   21206569.9734
      1758.8914       1370.5644
 98  6 17 15 40 30.0000000  0  7G 2G 4G 8G 7G 9G 5G24
   7674895.38945   5980429.36844  23727396.0234   23727402.9654
     -3038.2664      -2367.4804
  -2476110.61147  -1907006.48847  20695817.2344   20695820.6914
      -474.8444       -370.0084
  -1969839.40945  -1409947.34645  22707518.3524   22707522.8164
      2059.1724       1604.5504
   7930362.24746   6179498.68845  22718959.9304   22718965.4964
     -2819.6094      -2197.0984
  -2602632.34647  -2017147.48747  21299079.9924   21299082.7814
      -338.2344       -263.5594
  -7439297.66145  -5641115.57645  22742933.8674   22742938.8714
      2064.1884       1608.4584
  -8295771.11346  -6393285.73546  21201558.6884   21201562.8954
      1749.3754       1363.1494
 98  6 17 15 40 45.0000000  0  7G 2G 4G 8G 7G 9G 5G24
   7720516.57745   6015978.31844  23736076.4614   23736082.9534
     -3044.5624      -2372.3864
  -2468893.41147  -1901382.69347  20697190.8594   20697193.9654
      -487.4694       -379.8464
  -2000653.47745  -1433958.29845  22701653.9534   22701658.5824
      2049.4064       1596.9404
   7972676.65746   6212470.93245  22727012.5314   22727018.7544
     -2822.3284      -2199.2174
  -2597472.93947  -2013127.17047  21300061.5084   21300064.7774
      -349.6414       -272.4474
  -7470231.74145  -5665220.01445  22737047.3284   22737052.9884
      2060.4064       1605.5114
  -8321937.94647  -6413675.44846  21196579.6094   21196583.9804
      1739.5314       1355.4794
 98  6 17 15 41  0.0000000  0  7G 2G 4G 8G 7G 9G 5G24
   7766230.88445   6051599.77144  23744775.7664   23744781.0634
     -3050.6564      -2377.1354
  -2461486.78847  -1895611.29647  20698600.1254   20698602.6684
      -500.0784       -389.6714
  -2031321.19445  -1457855.21245  22695818.4534   22695822.5554
      2039.6094       1589.3064
   8015030.87746   6245474.19545  22735072.1954   22735077.8324
     -2824.8914      -2201.2134
  -2592143.62647  -2008974.45447  21301075.7894   21301079.1764
      -360.8914       -281.2134
  -7501110.79845  -5689281.61945  22731171.3594   22731176.4924
      2056.7504       1602.6624
  -8347958.54447  -6433951.23246  21191628.1414   21191632.2074
      1729.9064       1347.9794
 98  6 17 15 41 15.0000000  0  7G 2G 4G 8G 7G 9G 5G24
   7812037.48645   6087293.20444  23753492.6644   23753498.4064
     -3056.9534      -2382.0414
  -2453890.09547  -1889691.80147  20700046.0234   20700047.7114
      -512.8124       -399.5944
  -2061839.43245  -1481635.63345  22690010.6884   22690014.9534
      2029.4064       1581.3564
   8057425.29646   6278508.78645  22743138.8284   22743144.7584
     -2827.7344      -2203.4294
  -2586644.30047  -2004689.27747  21302122.3054   21302125.0824
      -372.4374       -290.2114
  -7531932.86845  -5713298.80045  22725306.5164   22725312.0594
      2052.7664       1599.5584
  -8373833.27247  -6454113.35146  21186704.2504   21186708.4104
      1719.9844       1340.2484
 98  6 17 15 41 30.0000000  0  7G 2G 4G 8G 7G 9G 5G24
   7857936.15545   6123058.34644  23762226.6724   23762231.3134
     -3063.0004      -2386.7534
  -2446106.54147  -1883626.68147  20701527.1484   20701529.1524
      -525.1094       -409.1764
  -2092205.87245  -1505297.77545  22684231.5704   22684236.5514
      2019.3914       1573.5514
   8099859.59646   6311574.45345  22751214.3594   22751219.5394
     -2830.3754      -2205.4874
  -2580974.25447  -2000271.07647  21303201.5704   21303204.1724
      -383.7034       -298.9894
  -7562697.49845  -5737271.23245  22719451.9844   22719457.7624
      2049.0784       1596.6844
  -8399561.66047  -6474161.44746  21181808.2034   21181812.1764
      1710.3444       1332.7354
 98  6 17 15 41 45.0000000  0  7G 2G 4G 8G 7G 9G 5G24
   7903926.04045   6158894.60044  23770978.7344   23770984.6054
     -3068.9694      -2391.4044
  -2438139.18447  -1877418.36046  20703043.1094   20703046.0044
      -537.2974       -418.6734
  -2122422.99645  -1528843.56545  22678481.9224   22678487.2194
      2009.5944       1565.9174
   8142339.14446   6344675.37845  22759298.2034   22759303.3954
     -2833.5944      -2207.9954
  -2575133.58047  -1995719.91147  21304312.7734   21304315.4454
      -395.1414       -307.9024
  -7593407.95145  -5761201.44945  22713608.0864   22713612.9264
      2045.6254       1593.9944
  -8425145.01247  -6494096.51446  21176939.9614   21176944.1564
      1700.7034       1325.2234
 98  6 17 15 42  0.0000000  0  7G 2G 4G 8G 7G 9G 5G24
   7950004.94145   6194800.18544  23779747.1254   23779753.0784
     -3074.9224      -2396.0434
  -2429988.00247  -1871066.80746  20704594.4614   20704597.5554
      -549.5474       -428.2184
  -2152493.57745  -1552275.15745  22672759.9844   22672764.7304
      1999.7664       1558.2594
   8184866.87146   6377813.83345  22767391.2814   22767395.9804
     -2836.7814      -2210.4794
  -2569119.69947  -1991033.77047  21305457.2504   21305460.2274
      -406.7344       -316.9364
  -7624066.45045  -5785091.18445  22707774.0784   22707778.4734
      2042.1414       1591.2784
  -8450583.15647  -6513918.44246  21172099.1484   21172103.6724
      1691.0634       1317.7114
 98  6 17 15 42 15.0000000  0  7G 2G 4G 8G 7G 9G 5G24
   7996174.65245   6230776.50244  23788532.5474   23788538.6174
     -3081.0164      -2400.7914
  -2421654.25147  -1864572.96447  20706180.0864   20706182.7584
      -561.5624       -437.5814
  -2182415.75445  -1575591.13045  22667065.6954   22667070.4304
      1989.9224       1550.5884
   8227442.93646   6410989.96245  22775493.0234   22775497.7464
     -2839.9844      -2212.9754
  -2562929.99347  -1986210.63847  21306635.0004   21306637.6254
      -418.5314       -326.1284
  -7654670.76245  -5808938.68445  22701950.2274   22701954.5864
      2038.4844       1588.4294
  -8475876.36747  -6533627.43946  21167285.7114   21167290.4694
      1681.4694       1310.2354
 98  6 17 15 42 30.0000000  0  7G 2G 4G 8G 7G 9G 5G24
   8042438.04145   6266825.85444  23797336.0394   23797342.6954
     -3087.5164      -2405.8564
  -2413140.93647  -1857939.22046  20707799.9614   20707802.8554
      -573.6564       -447.0054
  -2212191.71745  -1598793.17345  22661399.7974   22661404.0044
      1980.1094       1542.9424
   8270068.33446   6444204.54245  22783604.4304   22783609.7274
     -2843.5314      -2215.7394
  -2556563.93747  -1981250.08947  21307846.3914   21307849.2504
      -430.3124       -335.3084
  -7685221.37145  -5832744.32545  22696136.5164   22696141.0514
      2034.8444       1585.5934
  -8501025.35547  -6553224.04946  21162500.0864   21162504.7734
      1671.6724       1302.6014
 98  6 17 15 42 45.0000000  0  7G 2G 4G 8G 7G 9G 5G24
   8088798.91445   6302951.13643  23806158.7734   23806164.4344
     -3093.9844      -2410.8974
  -2404444.25147  -1851162.58346  20709454.9224   20709457.5824
      -585.8594       -456.5144
  -2241819.14345  -1621879.48745  22655761.8834   22655765.9144
      1970.2034       1535.2234
   8312748.55946   6477461.82645  22791726.0944   22791731.8244
     -2847.1414      -2218.5514
  -2550021.03847  -1976151.72147  21309091.6724   21309095.3524
      -442.0314       -344.4404
  -7715716.75145  -5856506.96045  22690334.0234   22690337.4454
      2031.1884       1582.7444
  -8526026.68547  -6572705.59746  21157742.6174   21157747.1174
      1661.7974       1294.9074
 98  6 17 15 43  0.0000000  0  7G 2G 4G 8G 7G 9G 5G24
   8135257.97245   6339152.92444  23814999.7034   23815005.5864
     -3100.5624      -2416.0234
  -2395568.64647  -1844246.53646  20711143.8364   20711146.4614
      -597.5004       -465.5844
  -2271297.16245  -1644849.35845  22650152.2344   22650156.2194
      1960.2034       1527.4314
   8355481.96346   6510760.54545  22799858.4144   22799864.1334
     -2850.6094      -2221.2544
  -2543303.02447  -1970916.91047  21310370.1254   21310373.6884
      -453.7344       -353.5594
  -7746157.64245  -5880227.12145  22684541.1174   22684544.6334
      2027.6094       1579.9554
  -8550878.83647  -6592070.91046  21153013.5164   21153018.1094
      1651.7974       1287.1144
 98  6 17 15 43 15.0000000  0  7G 2G 4G 8G 7G 9G 5G24
   8181814.44845   6375430.67044  23823859.7114   23823865.3594
     -3106.9534      -2421.0024
  -2386521.13747  -1837196.53247  20712865.6484   20712868.1804
      -608.8444       -474.4244
  -2300624.83145  -1667702.05045  22644571.5314   22644574.9304
      1950.1414       1519.5904
   8398265.08246   6544098.02345  22807999.2814   22808004.9534
     -2853.7814      -2223.7264
  -2536409.20147  -1965545.11147  21311681.8834   21311684.9654
      -465.4694       -362.7034
  -7776544.28745  -5903905.00545  22678758.6954   22678763.2664
      2023.9224       1577.0824
  -8575581.21947  -6611319.50446  21148312.4534   21148316.8484
      1641.8444       1279.3594
 98  6 17 15 43 30.0000000  0  7G 2G 4G 8G 7G 9G 5G24
   8228465.52545   6411782.09644  23832736.5784   23832743.3404
     -3113.2664      -2425.9214
  -2377303.75247  -1830014.15347  20714619.6884   20714622.4414
      -620.2344       -483.3004
  -2329803.23045  -1690438.45045  22639018.7194   22639022.7274
      1940.2504       1511.8834
   8441095.29445   6577472.18645  22816149.5314   22816155.7304
     -2856.9844      -2226.2224
  -2529337.89047  -1960035.00747  21313027.8364   21313030.8714
      -477.4534       -372.0414
  -7806875.45546  -5927539.66345  22672986.6254   22672990.4924
      2020.1414       1574.1364
  -8600134.16347  -6630451.65046  21143640.5004   21143645.1524
      1631.8134       1271.5424
 98  6 17 15 43 45.0000000  0  7G 2G 4G 8G 7G 9G 5G24
   8275211.94245   6448207.86044  23841632.1954   23841638.2664
     -3119.7034      -2430.9374
  -2367913.48947  -1822697.06947  20716406.6334   20716409.7154
      -632.0164       -492.4804
  -2358834.66245  -1713060.33145  22633494.4614   22633497.9654
      1930.4384       1504.2374
   8483974.10745   6610884.24945  22824309.4304   22824315.6994
     -2860.3124      -2228.8154
  -2522087.63747  -1954385.46747  21314407.2734   21314410.4264
      -489.3914       -381.3434
  -7837148.89646  -5951129.34645  22667225.4924   22667229.3954
      2016.2034       1571.0674
  -8624536.01846  -6649466.07946  21138996.8284   21139002.0204
      1621.6414       1263.6164
 98  6 17 15 44  0.0000000  0  7G 2G 4G 8G 7G 9G 5G24
   8322054.26445   6484708.33943  23850545.8754   23850551.6524
     -3126.0164      -2435.8564
  -2358345.61947  -1815241.58647  20718227.3914   20718230.1914
      -643.8284       -501.6844
  -2387718.89745  -1735567.52245  22627997.8674   22628001.2894
      1920.7034       1496.6524
   8526900.52545   6644333.36945  22832477.6484   22832483.5554
     -2863.1724      -2231.0434
  -2514658.65347  -1948596.65947  21315820.7894   21315823.6484
      -501.2194       -390.5604
  -7867363.40946  -5974673.11145  22661476.2664   22661479.9344
      2012.2664       1567.9994
  -8648784.83246  -6668361.25346  21134382.6254   21134387.8284
      1611.5164       1255.7264
 98  6 17 15 44 15.0000000  0  7G 2G 4G 8G 7G 9G 5G24
   8368992.93045   6521283.80543  23859477.8914   23859484.1254
     -3132.5784      -2440.9704
  -2348599.08247  -1807646.87747  20720082.3204   20720084.9344
      -655.7504       -510.9744
  -2416456.05345  -1757960.11145  22622528.7814   22622532.9884
      1910.8444       1488.9694
   8569867.63745   6677814.21745  22840653.9534   22840659.7544
     -2865.8444      -2233.1254
  -2507051.29747  -1942668.85247  21317268.6414   21317271.5704
      -513.1094       -399.8254
  -7897515.92646  -5998168.56945  22655738.3524   22655742.2424
      2008.0314       1564.7004
  -8672881.92547  -6687138.19846  21129796.9224   21129802.0904
      1601.3754       1247.8254
 98  6 17 15 44 30.0000000  0  7G 2G 4G 8G 7G 9G 5G24
   8416030.57945   6557936.45543  23868429.7114   23868435.1024
     -3139.0624      -2446.0234
  -2338673.31347  -1799912.51747  20721971.0474   20721974.1524
      -667.7664       -520.3374
  -2445046.85445  -1780238.62745  22617088.2584   22617093.2734
      1901.3134       1481.5424
   8612874.96545   6711326.37245  22848837.8524   22848843.5824
     -2868.5164      -2235.2074
  -2499266.48947  -1936602.78247  21318750.1484   21318752.9964
      -524.8754       -408.9944
  -7927604.78646  -6021614.41045  22650012.3134   22650016.2854
      2003.8594       1561.4494
  -8696826.29947  -6705796.13746  21125240.5084   21125245.4304
      1591.2034       1239.8994
 98  6 17 15 44 45.0000000  0  7G 2G 4G 8G 7G 9G 5G24
   8463165.32644   6594664.76943  23877398.3284   23877404.4224
     -3145.3594      -2450.9294
  -2328563.88347  -1792035.04847  20723894.7894   20723897.6254
      -680.0624       -529.9194
  -2473494.08545  -1802405.28345  22611674.9844   22611680.1174
      1891.7974       1474.1274
   8655924.04245   6744871.09245  22857030.0784   22857035.9264
     -2871.2194      -2237.3134
  -2491305.72947  -1930399.61047  21320264.8754   21320267.7234
      -536.4374       -418.0034
  -7957631.09446  -6045011.51645  22644298.6254   22644302.9494
      1999.7664       1558.2594
  -8720616.98347  -6724334.32646  21120713.2894   21120718.2704
      1581.0634       1231.9974
 98  6 17 15 45  0.0000000  0  7G 2G 4G 8G 7G 9G 5G24
   8510391.80344   6631464.56243  23886385.8444   23886391.9144
     -3151.3914      -2455.6294
  -2318270.07847  -1784013.90046  20725853.5084   20725855.7584
      -692.3594       -539.5014
  -2501800.59445  -1824462.30445  22606288.5234   22606293.3754
      1882.4844       1466.8714
   8699011.95845   6778446.04545  22865229.7894   22865235.3324
     -2873.7504      -2239.2864
  -2483171.38847  -1924061.16947  21321812.7734   21321816.0084
      -548.0474       -427.0504
  -7987596.70445  -6068361.33445  22638596.0864   22638599.7544
      1995.7504       1555.1304
  -8744257.40447  -6742755.42846  21116214.6414   21116219.5514
      1571.0784       1224.2174
 98  6 17 15 45 15.0000000  0  7G 2G 4G 8G 7G 9G 5G24
   8557710.47644   6668336.21043  23895390.2814   23895397.2934
     -3157.6874      -2460.5364
  -2307790.61147  -1775848.07746  20727847.7664   20727850.3674
      -704.9844       -549.3384
  -2529966.49145  -1846409.75145  22600929.0554   22600934.6684
      1872.9534       1459.4444
   8742138.68945   6812051.27245  22873436.3444   22873440.9964
     -2876.5004      -2241.4294
  -2474861.67247  -1917586.07147  21323393.7194   21323397.5634
      -559.8914       -436.2784
  -8017502.16245  -6091664.28345  22632905.3524   22632910.0044
      1991.6564       1551.9404
  -8767749.26147  -6761060.75247  21111744.4224   21111749.1684
      1561.2194       1216.5344
 98  6 17 15 45 30.0000000  0  7G 2G 4G 8G 7G 9G 5G24
   8605121.11544   6705279.48944  23904412.3594   23904419.9574
     -3163.7504      -2465.2604
  -2297119.58147  -1767532.99846  20729878.2274   20729880.8404
      -717.8914       -559.3954
  -2557991.51346  -1868247.39445  22595595.8914   22595601.1644
      1863.6564       1452.2004
   8785305.96445   6845688.06845  22881650.8914   22881654.9804
     -2879.1874      -2243.5234
  -2466376.31547  -1910974.10247  21325008.3834   21325011.8754
      -571.5164       -445.3374
  -8047347.88946  -6114920.69045  22627226.1954   22627229.8404
      1987.7664       1548.9084
  -8791095.64747  -6779252.73147  21107301.7274   21107306.8364
      1551.5944       1209.0344
 98  6 17 15 45 45.0000000  0  7G 2G 4G 8G 7G 9G 5G24
   8652624.11545   6742294.74444  23913452.3914   23913457.8634
     -3169.9534      -2470.0934
  -2286253.13447  -1759065.64146  20731946.1414   20731948.5314
      -730.8594       -569.5014
  -2585876.14446  -1889975.66945  22590289.6024   22590294.3484
      1854.2974       1444.9074
   8828514.85845   6879357.31345  22889873.6724   22889878.9924
     -2881.8754      -2245.6174
  -2457716.30347  -1904226.05747  21326656.7424   21326659.8594
      -583.0004       -454.2864
  -8077136.36146  -6138132.48145  22621557.5474   22621561.0394
      1984.1094       1546.0594
  -8814296.40447  -6797331.23447  21102886.5864   21102891.1094
      1541.8914       1201.4734
 98  6 17 15 46  0.0000000  0  7G 2G 4G 8G 7G 9G 5G24
   8700220.71545   6779382.94944  23922509.8364   23922515.0044
     -3176.2194      -2474.9764
  -2275192.76947  -1750447.16647  20734050.9304   20734053.2384
      -743.7974       -579.5824
  -2613618.57646  -1911593.15045  22585011.1724   22585015.0634
      1844.7194       1437.4434
   8871762.27745   6913056.55545  22898103.2584   22898108.7664
     -2884.4064      -2247.5894
  -2448886.32547  -1897345.56847  21328336.9924   21328340.2974
      -594.3284       -463.1134
  -8106871.17246  -6161302.44945  22615898.9844   22615903.3554
      1980.6094       1543.3324
  -8837350.75947  -6815295.65747  21098499.4924   21098503.9804
      1532.0784       1193.8274
 98  6 17 15 46 15.0000000  0  7G 2G 4G 8G 7G 9G 5G24
   8747911.50645   6816544.56744  23931585.0474   23931590.7304
     -3182.5314      -2479.8944
  -2263940.80547  -1741679.41547  20736192.3524   20736194.3914
      -756.4534       -589.4444
  -2641218.57446  -1933099.63145  22579758.4144   22579761.4494
      1835.2974       1430.1014
   8915048.31246   6946785.88945  22906340.4384   22906345.6174
     -2887.0624      -2249.6594
  -2439884.84747  -1890331.43947  21330050.0164   21330053.1094
      -605.8754       -472.1104
  -8136553.44846  -6184431.49145  22610251.0864   22610255.2934
      1977.0164       1540.5324
  -8860258.62247  -6833145.94247  21094140.1954   21094144.6844
      1522.3284       1186.2304
 98  6 17 15 46 30.0000000  0  7G 2G 4G 8G 7G 9G 5G24
   8795695.96745   6853779.14444  23940678.3524   23940684.3404
     -3188.6874      -2484.6924
  -2252500.01847  -1732764.51147  20738369.1564   20738371.1604
      -768.9534       -599.1844
  -2668678.98646  -1954497.34245  22574533.1094   22574536.7304
      1826.0944       1422.9304
   8958374.67546   6980546.66645  22914585.0164   22914589.8794
     -2889.7664      -2251.7654
  -2430711.32747  -1883183.25847  21331795.4774   21331798.4064
      -617.2034       -480.9374
  -8166182.98746  -6207519.42345  22604612.8834   22604617.2894
      1973.5944       1537.8654
  -8883020.03847  -6850882.10347  21089808.8914   21089813.8714
      1512.5164       1178.5844
 98  6 17 15 46 45.0000000  0  7G 2G 4G 8G 7G 9G 5G24
   8843572.14345   6891085.22344  23949788.7034   23949794.1524
     -3194.7974      -2489.4524
  -2240870.82747  -1723702.81447  20740582.1564   20740584.5124
      -781.5624       -609.0104
  -2695999.48945  -1975786.04245  22569333.6254   22569337.4924
      1816.5784       1415.5154
   9001743.22146   7014340.31545  22922837.3524   22922842.0274
     -2892.7034      -2254.0544
  -2421367.77247  -1875902.57747  21333573.6414   21333576.4534
      -628.5944       -489.8134
  -8195759.83646  -6230566.31145  22598984.3204   22598988.0354
      1969.9844       1535.0534
  -8905634.16747  -6868503.50447  21085505.6174   21085510.9964
      1502.7034       1170.9384
 98  6 17 15 47  0.0000000  0  7G 2G 4G 8G 7G 9G 5G24
   8891539.78145   6928462.51344  23958916.0554   23958922.2304
     -3200.8594      -2494.1764
  -2229053.84047  -1714494.76847  20742830.6254   20742833.2274
      -793.9844       -618.6894
  -2723175.17445  -1996961.90245  22564162.1174   22564166.6414
      1806.8284       1407.9184
   9045154.41146   7048167.18545  22931098.4454   22931104.3984
     -2895.4224      -2256.1734
  -2411853.61147  -1868488.95347  21335384.1804   21335387.1804
      -639.9694       -498.6774
  -8225282.22946  -6253570.76545  22593366.1484   22593370.6604
      1966.3134       1532.1924
  -8928101.47347  -6886010.48747  21081230.0864   21081235.3134
      1493.0004       1163.3774
 98  6 17 15 47 15.0000000  0  7G 2G 4G 8G 7G 9G 5G24
   8939597.56945   6965910.08443  23968061.4224   23968067.2584
     -3206.8124      -2498.8154
  -2217051.95447  -1705142.64946  20745114.5314   20745117.5204
      -806.2034       -628.2104
  -2750204.12445  -2018023.41945  22559018.9064   22559024.0744
      1797.0314       1400.2844
   9088604.34846   7082024.25445  22939366.9844   22939372.8914
     -2897.8444      -2258.0604
  -2402167.79947  -1860941.57347  21337227.3594   21337230.2304
      -651.4534       -507.6264
  -8254748.99946  -6276531.86945  22587758.9844   22587762.9224
      1962.6414       1529.3304
  -8950423.49947  -6903404.26547  21076982.2194   21076987.4574
      1483.3134       1155.8284
 98  6 17 15 47 30.0000000  0  7G 2G 4G 8G 7G 9G 5G24
   8987745.81845   7003428.10143  23977224.3594   23977230.6174
     -3212.8594      -2503.5274
  -2204868.28947  -1695648.89246  20747433.0864   20747435.8404
      -818.2974       -637.6344
  -2777085.64245  -2038970.04045  22553903.4774   22553908.3284
      1787.2194       1392.6384
   9132089.76146   7115908.97445  22947641.8984   22947647.8754
     -2900.2194      -2259.9114
  -2392309.70347  -1853259.95347  21339103.1884   21339106.1524
      -662.9694       -516.5994
  -8284160.83346  -6299450.17245  22582162.1564   22582166.3874
      1958.9694       1526.4694
  -8972599.25747  -6920684.06947  21072762.5394   21072767.9304
      1473.4224       1148.1214
 98  6 17 15 47 45.0000000  0  7G 2G 4G 8G 7G 9G 5G24
   9035984.04945   7041016.29243  23986403.4614   23986409.4844
     -3218.9224      -2508.2514
  -2192505.20247  -1686015.32146  20749785.8444   20749788.4694
      -830.0314       -646.7784
  -2803821.05945  -2059802.81645  22548816.2814   22548820.8874
      1777.5004       1385.0654
   9175609.91046   7149820.74245  22955923.1564   22955928.7114
     -2902.4534      -2261.6524
  -2382279.46147  -1845444.18447  21341011.5314   21341014.7424
      -674.4064       -525.5114
  -8313518.17646  -6322326.01545  22576575.2734   22576579.7854
      1955.3594       1523.6574
  -8994626.34347  -6937848.02546  21068570.9384   21068576.3054
      1463.5474       1140.4264
 98  6 17 15 48  0.0000000  0  7G 2G 4G 8G 7G 9G 5G24
   9084314.45244   7078676.33043  23995600.7734   23995606.5634
     -3225.1254      -2513.0844
  -2179967.40747  -1676245.61247  20752171.5704   20752173.8204
      -841.6414       -655.8244
  -2830409.89845  -2080521.39645  22543756.7504   22543760.7814
      1767.7344       1377.4554
   9219163.84046   7183758.84145  22964211.6484   22964217.3094
     -2904.7664      -2263.4544
  -2372075.84247  -1837493.31847  21342953.5474   21342956.2664
      -686.0784       -534.6064
  -8342820.12846  -6345158.69645  22570999.6724   22571004.1024
      1951.5164       1520.6624
  -9016505.28246  -6954896.53646  21064407.4144   21064412.6884
      1453.6724       1132.7314
 98  6 17 15 48 15.0000000  0  7G 2G 4G 8G 7G 9G 5G24
   9132736.63244   7116407.77943  24004815.1804   24004820.0434
     -3231.2194      -2517.8334
  -2167255.62047  -1666340.31547  20754590.7194   20754592.9694
      -853.2974       -664.9074
  -2856854.48245  -2101127.54445  22538724.2274   22538729.4064
      1758.1884       1370.0164
   9262753.61346   7217724.86345  22972506.7734   22972511.9064
     -2907.3124      -2265.4384
  -2361696.33747  -1829405.41147  21344928.8524   21344932.1914
      -697.9374       -543.8474
  -8372064.20546  -6367946.27645  22565434.6804   22565439.4264
      1947.6564       1517.6544
  -9038238.29547  -6971831.34246  21060271.6804   21060277.0004
      1444.0634       1125.2444
 98  6 17 15 48 30.0000000  0  7G 2G 4G 8G 7G 9G 5G24
   9181249.23645   7154209.77343  24014046.6024   24014052.7544
     -3237.1414      -2522.4474
  -2154369.31147  -1656299.04747  20757042.8834   20757045.6024
      -864.9844       -674.0144
  -2883155.31345  -2121621.67345  22533719.1414   22533723.8524
      1748.5004       1362.4684
   9306382.62646   7251721.47345  22980808.8284   22980813.0474
     -2909.9534      -2267.4964
  -2351138.39047  -1821178.44647  21346937.8444   21346941.5944
      -709.7664       -553.0644
  -8401250.52546  -6390688.85845  22559880.6254   22559885.1954
      1943.8444       1514.6834
  -9059827.11547  -6988653.78646  21056163.4304   21056168.6094
      1434.4534       1117.7564
 98  6 17 15 48 45.0000000  0  7G 2G 4G 8G 7G 9G 5G24
   9229849.97945   7192080.38243  24023295.1644   24023301.1994
     -3242.9064      -2526.9404
  -2141306.67747  -1646120.38146  20759528.5784   20759531.4144
      -876.6254       -683.0844
  -2909308.74845  -2142000.96145  22528741.7974   22528747.4694
      1738.5784       1354.7364
   9350051.12846   7285748.85745  22989118.6024   22989123.3834
     -2912.4844      -2269.4684
  -2340404.50747  -1812814.38647  21348980.5234   21348983.8634
      -721.3914       -562.1234
  -8430381.78546  -6413388.53145  22554337.1334   22554341.0004
      1940.3444       1511.9564
  -9081272.95547  -7005364.83647  21052083.0164   21052088.3134
      1425.0634       1110.4384
 98  6 17 15 49  0.0000000  0  7G 2G 4G 8G 7G 9G 5G24
   9278536.69144   7230018.04243  24032559.8834   24032566.8834
     -3248.6874      -2531.4454
  -2128071.32647  -1635807.11246  20762047.1564   20762049.6174
      -888.1254       -692.0454
  -2935312.24245  -2162263.40245  22523794.1254   22523799.5274
      1728.5004       1346.8834
   9393757.37146   7319805.64345  22997435.6174   22997441.4534
     -2915.0314      -2271.4534
  -2329496.09647  -1804314.33947  21351056.5234   21351058.7274
      -733.1254       -571.2664
  -8459461.37246  -6436047.94345  22548803.7034   22548807.3484
      1936.8914       1509.2654
  -9102579.53547  -7021967.36347  21048028.5944   21048033.1054
      1415.7504       1103.1824
 98  6 17 15 49 15.0000000  0  7G 2G 4G 8G 7G 9G 5G24
   9327308.84644   7268022.26942  24041840.7274   24041846.6914
     -3254.3754      -2535.8774
  -2114662.40147  -1625358.60146  20764598.8674   20764601.2934
      -899.7664       -701.1164
  -2961165.33245  -2182408.66245  22518874.0944   22518878.7704
      1718.5314       1339.1154
   9437499.91846   7353890.71945  23005759.3984   23005765.5164
     -2917.4224      -2273.3164
  -2318410.97547  -1795676.59947  21353165.6094   21353167.6374
      -744.9694       -580.4954
  -8488490.06746  -6458667.70045  22543279.5784   22543282.3554
      1933.5474       1506.6604
  -9123745.09447  -7038459.99847  21044000.6564   21044005.1564
      1406.2344       1095.7674
 98  6 17 15 49 30.0000000  0  7G 2G 4G 8G 7G 9G 5G24
   9376167.52443   7306093.91542  24051137.1174   24051143.5984
     -3260.1094      -2540.3454
  -2101080.49147  -1614775.28846  20767183.3834   20767186.3364
      -911.1724       -710.0044
  -2986868.88445  -2202437.40645  22513983.2584   22513987.9454
      1708.5944       1331.3724
   9481280.16546   7388005.17145  23014090.7194   23014095.9454
     -2920.0004      -2275.3254
  -2307148.30847  -1786900.49747  21355308.8754   21355311.7234
      -756.6414       -589.5904
  -8517469.33046  -6481248.91645  22537765.0234   22537768.8674
      1930.4064       1504.2134
  -9144766.16447  -7054840.05047  21040000.6094   21040005.1564
      1396.5784       1088.2434
 98  6 17 15 49 45.0000000  0  7G 2G 4G 8G 7G 9G 5G24
   9425113.37243   7344233.51442  24060453.3984   24060459.5164
     -3265.8914      -2544.8504
  -2087325.93146  -1604057.45046  20769800.7274   20769804.7114
      -922.7664       -719.0384
  -3012421.80745  -2222348.76045  22509120.6484   22509124.7154
      1698.5784       1323.5674
   9525101.64546   7422151.76745  23022429.5394   23022434.7424
     -2922.7974      -2277.5044
  -2295712.68247  -1777989.62547  21357485.0704   21357488.5984
      -768.0164       -598.4544
  -8546401.89046  -6503793.75045  22532259.2424   22532263.4384
      1927.2974       1501.7904
  -9165641.84447  -7071106.82847  21036028.2034   21036032.4344
      1386.9694       1080.7554
 98  6 17 15 50  0.0000000  0  7G 2G 4G 8G 7G 9G 5G24
   9474143.85144   7382438.99742  24069782.5944   24069787.0594
     -3271.4064      -2549.1484
  -2073397.21547  -1593203.91446  20772451.4384   20772454.6954
      -934.3284       -728.0484
  -3037825.72745  -2242144.00045  22504286.0554   22504290.6484
      1688.6094       1315.8004
   9568964.13146   7456330.28745  23030776.7114   23030782.4534
     -2925.4694      -2279.5864
  -2284107.27047  -1768946.45547  21359693.5634   21359697.2424
      -779.3284       -607.2694
  -8575287.02546  -6526301.64845  22526762.7424   22526766.8554
      1924.1414       1499.3304
  -9186375.93647  -7087263.25547  21032082.5234   21032086.8244
      1377.6254       1073.4744
 98  6 17 15 50 15.0000000  0  7G 2G 4G 8G 7G 9G 5G24
   9523254.63944   7420707.08442  24079128.4774   24079134.0314
     -3276.6094      -2553.2024
  -2059294.03247  -1582214.41446  20775134.7974   20775137.3404
      -946.0624       -737.1924
  -3063079.10345  -2261821.94745  22499480.1884   22499484.6764
      1678.5004       1307.9224
   9612867.04746   7490540.32445  23039131.0474   23039136.6484
     -2928.2034      -2281.7174
  -2272331.86347  -1759770.83047  21361934.4534   21361937.4304
      -790.6724       -616.1084
  -8604124.98746  -6548772.77145  22521275.0554   22521279.9884
      1920.9384       1496.8344
  -9206968.33247  -7103309.27647  21028163.9144   21028168.2624
      1368.0474       1066.0114
 98  6 17 15 50 30.0000000  0  7G 2G 4G 8G 7G 9G 5G24
   9572443.04743   7459035.65842  24088488.3674   24088494.1914
     -3281.8444      -2557.2814
  -2045016.01047  -1571088.68246  20777852.0634   20777854.1604
      -957.7034       -746.2624
  -3088180.22445  -2281381.26645  22494703.6094   22494708.6024
      1668.2814       1299.9594
   9656809.76846   7524781.36345  23047493.6954   23047498.8284
     -2930.7814      -2283.7264
  -2260388.41747  -1750464.26147  21364206.9614   21364209.9964
      -801.7664       -624.7524
  -8632916.20245  -6571207.47345  22515796.2894   22515801.8444
      1917.8594       1494.4364
  -9227416.73547  -7119243.09547  21024272.6484   21024277.1134
      1358.3284       1058.4384
 98  6 17 15 50 45.0000000  0  7G 2G 4G 8G 7G 9G 5G24
   9621708.51443   7497424.28443  24097863.3914   24097870.2504
     -3286.9064      -2561.2264
  -2030562.95947  -1559826.57346  20780602.3204   20780605.0394
      -969.4064       -755.3814
  -3113127.51546  -2300820.68545  22489957.0164   22489962.0084
      1658.0164       1291.9604
   9700788.63246   7559050.56045  23055862.3134   23055866.9774
     -2933.0314      -2285.4794
  -2248280.18347  -1741029.28147  21366511.3834   21366514.5704
      -812.6414       -633.2264
  -8661659.52645  -6593604.83445  22510326.1564   22510331.6764
      1914.5314       1491.8434
  -9247718.39547  -7135062.55447  21020409.1254   21020413.7544
      1348.6094       1050.8644
 98  6 17 15 51  0.0000000  0  7G 2G 4G 8G 7G 9G 5G24
   9671051.19643   7535873.07042  24107252.7584   24107259.6524
     -3292.0784      -2565.2564
  -2015934.94347  -1548428.12647  20783385.9924   20783388.7814
      -980.9224       -764.3554
  -3137921.28046  -2320140.50845  22485239.1804   22485244.1844
      1647.8914       1284.0714
   9744798.57346   7593344.01245  23064236.8134   23064241.5944
     -2934.8754      -2286.9164
  -2236009.73947  -1731467.90047  21368846.3054   21368849.4694
      -823.3914       -641.6034
  -8690352.02045  -6615962.60345  22504866.5164   22504871.9304
      1911.1724       1489.2254
  -9267875.25147  -7150769.18447  21016573.5314   21016578.1954
      1338.9844       1043.3644
 98  6 17 15 51 15.0000000  0  7G 2G 4G 8G 7G 9G 5G24
   9720471.88744   7574382.68342  24116657.8754   24116662.3164
     -3297.3594      -2569.3714
  -2001133.96947  -1536894.90747  20786202.5004   20786205.1724
      -992.6094       -773.4624
  -3162564.63846  -2339343.12245  22480549.4304   22480553.2854
      1637.8594       1276.2544
   9788836.48346   7627659.24345  23072616.9454   23072622.6414
     -2936.9224      -2288.5114
  -2223578.62947  -1721781.32247  21371211.7584   21371214.5944
      -834.1414       -649.9804
  -8718993.25746  -6638280.45145  22499416.4384   22499421.5474
      1907.6414       1486.4734
  -9287886.23047  -7166362.15547  21012765.6414   21012770.4224
      1329.0944       1035.6574
 98  6 17 15 51 30.0000000  0  7G 2G 4G 8G 7G 9G 5G24
   9769971.29444   7612953.50542  24126076.1564   24126082.4384
     -3302.6094      -2573.4624
  -1986158.76947  -1525225.92047  20789052.2034   20789054.9104
     -1004.0944       -782.4114
  -3187060.67746  -2358430.92745  22475887.8594   22475891.7154
      1628.1884       1268.7184
   9832904.29245   7661997.77945  23081002.6254   23081008.6254
     -2938.9064      -2290.0574
  -2210987.96947  -1711970.43347  21373607.8284   21373610.8634
      -844.6564       -658.1744
  -8747583.31145  -6660558.41645  22493975.8284   22493980.3164
      1904.3284       1483.8924
  -9307750.34947  -7181840.67647  21008985.5004   21008989.8834
      1319.3914       1028.0974
 98  6 17 15 51 45.0000000  0  7G 2G 4G 8G 7G 9G 5G24
   9819550.24944   7651586.44942  24135511.0394   24135514.6844
     -3307.9224      -2577.6014
  -1971010.76247  -1513422.27546  20791934.8754   20791937.6884
     -1015.7814       -791.5184
  -3211410.97346  -2377405.18845  22471254.2344   22471258.2664
      1618.4224       1261.1084
   9877003.83146   7696361.01945  23089394.7814   23089399.7154
     -2941.1094      -2291.7744
  -2198239.58247  -1702036.62847  21376033.4924   21376036.9844
      -855.2504       -666.4294
  -8776122.80746  -6682796.98245  22488544.9384   22488549.5204
      1900.8284       1481.1654
  -9327469.51147  -7197206.24147  21005232.8444   21005236.9104
      1309.8134       1020.6334
 98  6 17 15 52  0.0000000  0  7G 2G 4G 8G 7G 9G 5G24
   9869208.30543   7690280.98042  24144960.6884   24144967.8054
     -3313.1414      -2581.6684
  -1955686.63047  -1501481.39746  20794850.9844   20794854.2074
     -1027.4224       -800.5884
  -3235615.12945  -2396265.57445  22466648.1644   22466652.0664
      1608.7814       1253.5964
   9921135.04446   7730748.94345  23097792.1564   23097796.8324
     -2943.0624      -2293.2954
  -2185330.39547  -1691977.53947  21378490.0004   21378492.7664
      -866.0474       -674.8424
  -8804608.49646  -6704993.60245  22483123.9534   22483128.1024
      1897.1564       1478.3044
  -9347047.45047  -7212461.77447  21001507.5084   21001511.9384
      1300.5634       1013.4254
 98  6 17 15 52 15.0000000  0  7G 2G 4G 8G 7G 9G 5G24
   9918943.59544   7729035.68942  24154425.6414   24154431.8984
     -3318.3444      -2585.7224
  -1940189.30747  -1489405.56347  20797799.9384   20797802.8444
     -1038.8914       -809.5254
  -3259674.59445  -2415013.21845  22462069.3834   22462073.5084
      1599.0784       1246.0354
   9965295.78346   7765159.87145  23106195.9144   23106200.8594
     -2945.0314      -2294.8304
  -2172257.60447  -1681790.96947  21380977.8834   21380980.5904
      -876.9694       -683.3524
  -8833038.17346  -6727146.58345  22477714.1174   22477718.2424
      1893.4844       1475.4424
  -9366485.30747  -7227608.14747  20997808.5944   20997813.4574
      1291.0784       1006.0354
 98  6 17 15 52 30.0000000  0  7G 2G 4G 8G 7G 9G 5G24
   9968760.12944   7767853.64342  24163905.2344   24163910.9654
     -3323.8594      -2590.0204
  -1924519.12847  -1477195.03547  20800782.1414   20800784.6604
     -1050.3754       -818.4744
  -3283587.81745  -2433646.87045  22457519.0234   22457523.6764
      1589.4224       1238.5114
  10009486.09046   7799593.84645  23114605.2664   23114610.4104
     -2946.9374      -2296.3154
  -2159022.07047  -1671477.56947  21383496.7034   21383499.6094
      -887.6564       -691.6804
  -8861412.03146  -6749256.05946  22472314.5704   22472318.7664
      1889.7974       1472.5694
  -9385779.32147  -7242642.44447  20994136.8914   20994141.4964
      1281.5634        998.6204
 98  6 17 15 52 45.0000000  0  7G 2G 4G 8G 7G 9G 5G24
  10018661.15943   7806737.55542  24173401.3284   24173406.3914
     -3329.5474      -2594.4524
  -1908677.59047  -1464850.98447  20803796.4144   20803799.2384
     -1061.8284       -827.3994
  -3307359.18845  -2452169.99145  22452995.3914   22453000.4654
      1580.1414       1231.2784
  10053704.29445   7834049.55645  23123019.8914   23123025.7274
     -2948.8124      -2297.7764
  -2145627.63847  -1661040.34747  21386045.4304   21386048.2894
      -898.2194       -699.9114
  -8889732.20446  -6771323.71046  22466925.7734   22466930.0864
      1886.3134       1469.8544
  -9404931.84647  -7257566.48247  20990492.4064   20990497.1054
      1272.1724        991.3034
 98  6 17 15 53  0.0000000  0  7G 2G 4G 8G 7G 9G 5G24
  10068647.01243   7845687.46342  24182913.3594   24182920.4884
     -3335.3444      -2598.9694
  -1892663.41947  -1452372.41747  20806844.0784   20806846.8444
     -1073.4374       -836.4454
  -3330990.90345  -2470584.29745  22448498.3594   22448502.7544
      1570.6564       1223.8884
  10097951.73246   7868528.06545  23131439.3364   23131445.1134
     -2950.9694      -2299.4564
  -2132073.79447  -1650478.91847  21388624.6724   21388627.2854
      -909.0474       -708.3484
  -8918000.99346  -6793351.32346  22461546.2734   22461550.3874
      1882.8444       1467.1514
  -9423944.27446  -7272381.35147  20986874.4844   20986879.7584
      1262.7504        983.9614
 98  6 17 15 53 15.0000000  0  7G 2G 4G 8G 7G 9G 5G24
  10118721.50744   7884706.52642  24192442.2114   24192448.0704
     -3341.1094      -2603.4624
  -1876476.45947  -1439759.21446  20809924.2344   20809926.9184
     -1084.6874       -845.2114
  -3354480.94745  -2488888.19845  22444028.5634   22444032.8284
      1561.4694       1216.7294
  10142233.52046   7903033.31045  23139866.6724   23139872.1214
     -2953.2344      -2301.2224
  -2118356.80847  -1639790.36947  21391234.9304   21391237.1214
      -919.8284       -716.7494
  -8946219.74146  -6815339.95446  22456176.4384   22456180.6684
      1879.7664       1464.7524
  -9442814.14446  -7287085.14947  20983283.6564   20983288.6134
      1253.2974        976.5954
 98  6 17 15 53 30.0000000  0  7G 2G 4G 8G 7G 9G 5G24
  10168882.19843   7923792.68342  24201987.5864   24201992.8134
     -3346.8914      -2607.9674
  -1860120.29847  -1427014.15046  20813036.6484   20813039.2504
     -1096.0784       -854.0874
  -3377833.50145  -2507084.98645  22439585.0704   22439589.0314
      1552.2664       1209.5584
  10186552.60546   7937567.62645  23148300.1804   23148304.9734
     -2955.8284      -2303.2434
  -2104477.36447  -1628975.23247  21393876.1644   21393878.5664
      -930.7034       -725.2234
  -8974390.70246  -6837291.34246  22450815.6334   22450819.3364
      1876.4064       1462.1354
  -9461541.35046  -7301677.75847  20979719.7034   20979724.6604
      1243.7504        969.1564
 98  6 17 15 53 45.0000000  0  7G 2G 4G 8G 7G 9G 5G24
  10219126.95243   7962944.37842  24211548.7504   24211555.1484
     -3352.5314      -2612.3624
  -1843595.70847  -1414137.84846  20816181.0314   20816183.7384
     -1107.3124       -862.8414
  -3401049.38946  -2525175.27845  22435167.1254   22435170.8754
      1543.0004       1202.3384
  10230905.30746   7972128.14545  23156740.1644   23156745.5314
     -2957.9374      -2304.8864
  -2090436.58847  -1618034.36747  21396547.9144   21396550.7854
      -941.5164       -733.6494
  -9002513.12746  -6859204.93745  22445463.8754   22445467.5554
      1873.1254       1459.5784
  -9480128.43046  -7316161.18147  20976182.6644   20976188.2774
      1234.3914        961.8634
 98  6 17 15 54  0.0000000  0  7G 2G 4G 8G 7G 9G 5G24
  10269457.13043   8002162.68542  24221126.6174   24221132.0784
     -3358.2034      -2616.7824
  -1826901.24347  -1401129.17147  20819357.7734   20819360.7384
     -1118.5784       -871.6194
  -3424124.42746  -2543155.81345  22430776.4774   22430780.7774
      1533.6254       1195.0324
  10275288.49646   8006712.42145  23165186.1094   23165192.1684
     -2959.7974      -2306.3354
  -2076233.34947  -1606966.91447  21399250.7664   21399253.7544
      -952.2664       -742.0254
  -9030583.79346  -6881078.17945  22440122.2734   22440126.4694
      1869.6094       1456.8384
  -9498573.91247  -7330534.28347  20972672.9144   20972678.4574
      1225.0164        954.5584
 98  6 17 15 54 15.0000000  0  7G 2G 4G 8G 7G 9G 5G24
  10319873.24343   8041447.84142  24230719.5944   24230726.8404
     -3363.9694      -2621.2744
  -1810039.31347  -1387990.01647  20822566.4924   20822569.7384
     -1129.6874       -880.2764
  -3447058.86146  -2561026.79346  22426411.7734   22426415.7114
      1524.2344       1187.7154
  10319697.42346   8041316.73245  23173636.8674   23173642.6684
     -2961.4374      -2307.6144
  -2061870.22647  -1595774.87847  21401983.7344   21401986.7114
      -962.7974       -750.2314
  -9058602.37546  -6902910.82145  22434790.9614   22434794.8874
      1866.1564       1454.1484
  -9516878.42447  -7344797.52447  20969189.3984   20969194.5554
      1215.5004        947.1434
 98  6 17 15 54 30.0000000  0  7G 2G 4G 8G 7G 9G 5G24
  10370375.71343   8080800.34142  24240329.8204   24240336.6174
     -3369.7034      -2625.7434
  -1793010.06147  -1374720.47747  20825807.3284   20825810.4344
     -1140.8754       -888.9944
  -3469852.85946  -2578788.34145  22422074.1484   22422077.8284
      1514.9694       1180.4954
  10364130.94346   8075940.21545  23182092.2584   23182097.1684
     -2963.0164      -2308.8434
  -2047350.75547  -1584461.02447  21404746.8444   21404749.7854
      -973.0784       -758.2434
  -9086570.89146  -6924704.45445  22429468.5234   22429472.2974
      1863.0474       1451.7254
  -9535037.68147  -7358947.58447  20965734.1174   20965738.7814
      1205.7814        939.5704
 98  6 17 15 54 45.0000000  0  7G 2G 4G 8G 7G 9G 5G24
  10420963.63743   8120219.48142  24249956.8524   24249964.5204
     -3375.4064      -2630.1874
  -1775812.58547  -1361319.85147  20829079.7344   20829082.3954
     -1152.1724       -897.7964
  -3492507.94346  -2596441.64945  22417763.5234   22417767.7424
      1505.6254       1173.2144
  10408589.14145   8110582.94745  23190551.8284   23190557.2544
     -2964.7974      -2310.2314
  -2032676.68247  -1573026.69647  21407539.2424   21407542.3714
      -983.5474       -766.4004
  -9114492.77746  -6946461.75646  22424155.1804   22424158.6374
      1859.8134       1449.2054
  -9553052.10347  -7372984.77147  20962305.9454   20962310.6564
      1196.0474        931.9854
 98  6 17 15 55  0.0000000  0  7G 2G 4G 8G 7G 9G 5G24
  10471635.88643   8159704.21842  24259599.4614   24259605.3204
     -3380.8754      -2634.4484
  -1758446.23947  -1347787.62747  20832384.3204   20832386.9344
     -1163.3594       -906.5144
  -3515021.62546  -2613984.75445  22413478.6954   22413483.2304
      1496.1094       1165.8004
  10453073.85745   8145246.34445  23199017.5084   23199023.7194
     -2966.5474      -2311.5954
  -2017844.47847  -1561469.13547  21410361.7034   21410364.9844
      -994.1254       -774.6434
  -9142366.76146  -6968181.71846  22418850.6254   22418854.9614
      1856.6564       1446.7454
  -9570920.02947  -7386907.83147  20958905.9224   20958910.7974
      1186.3134        924.3994
 98  6 17 15 55 15.0000000  0  7G 2G 4G 8G 7G 9G 5G24
  10522389.41742   8199252.37542  24269257.1804   24269262.3364
     -3386.2194      -2638.6124
  -1740912.00047  -1334124.58646  20835721.1254   20835724.2664
     -1174.4694       -915.1704
  -3537389.84146  -2631414.52445  22409222.4064   22409227.0704
      1486.3134       1158.1664
  10497585.56045   8179930.76645  23207487.6484   23207493.6484
     -2968.3284      -2312.9834
  -2002853.32247  -1549787.73047  21413214.4144   21413218.1764
     -1004.6564       -782.8494
  -9170190.10546  -6989862.24945  22413556.3204   22413560.4224
      1853.0944       1443.9694
  -9588641.85647  -7400717.04547  20955533.3444   20955537.9024
      1176.5944        916.8264
 98  6 17 15 55 30.0000000  0  7G 2G 4G 8G 7G 9G 5G24
  10573222.29243   8238862.35542  24278931.2734   24278938.2034
     -3391.4694      -2642.7034
  -1723211.96447  -1320332.36346  20839089.2114   20839092.5864
     -1185.5474       -923.8034
  -3559610.42745  -2648729.25745  22404993.7274   22404998.4384
      1476.4384       1150.4714
  10542123.90245   8214635.94745  23215963.2114   23215968.8244
     -2970.0474      -2314.3224
  -1987704.62147  -1537983.54747  21416097.1334   21416100.5204
     -1015.1724       -791.0434
  -9197957.64846  -7011499.27945  22408272.1094   22408276.9024
      1849.2344       1440.9624
  -9606217.24847  -7414412.13847  20952188.7424   20952193.5354
      1166.8284        909.2174
 98  6 17 15 55 45.0000000  0  7G 2G 4G 8G 7G 9G 5G24
  10624133.61543   8278533.44442  24288619.9064   24288627.7504
     -3396.7344      -2646.8064
  -1705345.31447  -1306410.30746  20842489.2894   20842492.4304
     -1196.7344       -932.5204
  -3581682.83645  -2665928.52545  22400793.5784   22400798.0554
      1466.4844       1142.7154
  10586685.44045   8249359.18545  23224443.2344   23224449.1054
     -2971.4844      -2315.4424
  -1972399.90847  -1526057.80747  21419009.4844   21419012.8134
     -1025.5474       -799.1274
  -9225667.75846  -7033091.55245  22402998.8364   22403003.9574
      1845.4384       1438.0034
  -9623647.84247  -7427994.41647  20948871.8054   20948877.3244
      1157.1884        901.7054
 98  6 17 15 56  0.0000000  0  7G 2G 4G 8G 7G 9G 5G24
  10675124.59343   8318266.58142  24298322.2664   24298328.9454
     -3402.0944      -2650.9824
  -1687309.50747  -1292356.43047  20845921.4844   20845924.3794
     -1208.0624       -941.3474
  -3603602.68145  -2683008.90245  22396622.6334   22396626.5474
      1456.1414       1134.6554
  10631269.52145   8284099.99345  23232926.8984   23232932.8984
     -2973.1564      -2316.7454
  -1956936.44947  -1514008.36547  21421951.7974   21421955.1484
     -1036.2974       -807.5044
  -9253320.29646  -7054638.98545  22397736.9224   22397741.3754
      1841.5474       1434.9724
  -9640932.70747  -7441463.15047  20945582.6724   20945588.2734
      1147.3594        894.0464
 98  6 17 15 56 15.0000000  0  7G 2G 4G 8G 7G 9G 5G24
  10726193.00943   8358060.09542  24308040.8674   24308045.4734
     -3407.1254      -2654.9034
  -1669107.29947  -1278172.89347  20849385.1954   20849388.2894
     -1218.9844       -949.8584
  -3625371.77145  -2699971.80345  22392479.9304   22392483.7624
      1446.2344       1126.9364
  10675877.81245   8318859.65445  23241416.0004   23241421.7074
     -2974.7664      -2317.9994
  -1941314.23747  -1501835.21747  21424924.7424   21424928.4224
     -1046.7974       -815.6864
  -9280918.17146  -7076143.81945  22392485.1254   22392490.2114
      1838.1094       1432.2934
  -9658071.50747  -7454818.04347  20942321.2504   20942326.1024
      1137.7344        886.5464
 98  6 17 15 56 30.0000000  0  7G 2G 4G 8G 7G 9G 5G24
  10777337.77843   8397913.04742  24317772.7734   24317781.2384
     -3412.1094      -2658.7874
  -1650738.73547  -1263859.73147  20852880.7504   20852883.8094
     -1230.1254       -958.5394
  -3646989.96146  -2716817.14145  22388366.3984   22388369.8204
      1436.1884       1119.1074
  10720514.25145   8353641.26845  23249909.8054   23249916.2274
     -2976.7814      -2319.5704
  -1925531.13447  -1489536.71347  21427928.4454   21427932.1724
     -1057.5944       -824.0994
  -9308463.57546  -7097607.75645  22387243.4384   22387247.5744
      1834.6724       1429.6144
  -9675062.96847  -7468058.14947  20939088.1094   20939092.4804
      1127.8284        878.8274
 98  6 17 15 56 45.0000000  0  7G 2G 4G 8G 7G 9G 5G24
  10828556.00743   8437823.34442  24327520.4924   24327526.1414
     -3417.0624      -2662.6464
  -1632204.20647  -1249417.23947  20856407.6174   20856410.7584
     -1241.1414       -967.1234
  -3668457.20246  -2733544.86245  22384281.0634   22384284.8714
      1426.0474       1111.2054
  10765181.40645   8388446.81145  23258409.9694   23258415.4304
     -2978.8594      -2321.1894
  -1909586.39047  -1477112.23247  21430962.5554   21430966.1764
     -1068.4374       -832.5494
  -9335958.46746  -7119032.33745  22382011.7194   22382015.0354
      1831.1884       1426.8994
  -9691906.41847  -7481182.90847  20935882.9694   20935887.5394
      1118.0004        871.1694
 98  6 17 15 57  0.0000000  0  7G 2G 4G 8G 7G 9G 5G24
  10879848.41044   8477791.37242  24337280.6024   24337285.9694
     -3421.9374      -2666.4454
  -1613504.76647  -1234846.25747  20859966.0634   20859969.1914
     -1252.1094       -975.6704
  -3689771.40045  -2750153.32345  22380224.9694   22380228.8364
      1415.8754       1103.2794
  10809879.48445   8423276.45245  23266915.5474   23266921.6764
     -2980.8124      -2322.7114
  -1893477.47547  -1464559.84847  21434028.2504   21434030.9104
     -1079.4224       -841.1084
  -9363398.38846  -7140414.07645  22376789.8914   22376792.8324
      1827.4224       1423.9654
  -9708604.57747  -7494194.46047  20932705.5554   20932709.9844
      1108.4064        863.6934
 98  6 17 15 57 15.0000000  0  7G 2G 4G 8G 7G 9G 5G24
  10931213.55844   8517816.12242  24347055.4844   24347060.8284
     -3426.8284      -2670.2564
  -1594640.20547  -1220146.60747  20863555.9224   20863558.8754
     -1263.2814       -984.3754
  -3710932.01545  -2766642.09845  22376198.3914   22376202.7034
      1405.4694       1095.1704
  10854605.47445   8458127.83645  23275427.0004   23275433.0944
     -2982.7034      -2324.1844
  -1877204.20047  -1451879.38147  21437124.9384   21437128.1134
     -1090.4064       -849.6674
  -9390780.63546  -7161750.87345  22371579.0164   22371582.1914
      1823.4844       1420.8974
  -9725159.19747  -7507094.15347  20929555.1024   20929559.5784
      1098.8444        856.2424
 98  6 17 15 57 30.0000000  0  7G 2G 4G 8G 7G 9G 5G24
  10982651.58244   8557897.64242  24356844.3754   24356849.9654
     -3431.5944      -2673.9694
  -1575609.17747  -1205317.22247  20867177.3054   20867179.8014
     -1274.2034       -992.8864
  -3731940.20146  -2783012.11145  22372200.7504   22372204.6414
      1395.6414       1087.5124
  10899356.97946   8492999.13545  23283942.6884   23283948.0554
     -2984.1564      -2325.3174
  -1860768.22046  -1439072.12347  21440252.2734   21440256.7384
     -1101.1414       -858.0324
  -9418105.29046  -7183042.78745  22366379.4144   22366382.6484
      1819.8754       1418.0844
  -9741572.80947  -7519883.97247  20926431.7114   20926436.4454
      1089.5784        849.0224
 98  6 17 15 57 45.0000000  0  7G 2G 4G 8G 7G 9G 5G24
  11034163.05744   8598036.39242  24366646.2504   24366655.8164
     -3436.5164      -2677.8044
  -1556412.85647  -1190359.03947  20870830.0394   20870833.0044
     -1285.1724      -1001.4334
  -3752801.03446  -2799267.29445  22368230.8914   22368235.0514
      1385.9064       1079.9274
  10944129.86645   8527887.08045  23292462.7734   23292468.5634
     -2985.4224      -2326.3034
  -1844169.29147  -1426137.88647  21443411.0314   21443415.8954
     -1111.9534       -866.4574
  -9445377.71946  -7204294.02745  22361189.4924   22361192.7854
      1816.6254       1415.5524
  -9757845.53747  -7532564.00947  20923334.9774   20923339.9574
      1080.2194        841.7294
 98  6 17 15 58  0.0000000  0  7G 2G 4G 8G 7G 9G 5G24
  11085746.15343   8638230.98842  24376461.2034   24376468.6134
     -3441.2344      -2681.4814
  -1537054.28146  -1175274.44646  20874513.8134   20874517.4804
     -1296.0314      -1009.8944
  -3773516.59846  -2815409.28445  22364289.3054   22364293.2664
      1376.1414       1072.3174
  10988919.73545   8562788.27545  23300986.0004   23300991.7774
     -2986.6414      -2327.2524
  -1827410.08247  -1413078.77647  21446599.9534   21446604.1604
     -1122.6874       -874.8214
  -9472604.22146  -7225509.47245  22356008.7034   22356012.0314
      1813.5004       1413.1174
  -9773978.01747  -7545134.76647  20920265.1174   20920269.9924
      1070.6884        834.3024
 98  6 17 15 58 15.0000000  0  7G 2G 4G 8G 7G 9G 5G24
  11137399.65443   8678480.37342  24386291.8134   24386299.2704
     -3445.9224      -2685.1344
  -1517532.39847  -1160062.60746  20878228.9454   20878232.5434
     -1306.8754      -1018.3444
  -3794085.44646  -2831436.97045  22360374.9064   22360377.6954
      1366.4384       1064.7564
  11033728.91945   8597704.50845  23309512.7974   23309518.9734
     -2987.9064      -2328.2394
  -1810489.32647  -1399893.78547  21449820.0474   21449823.4694
     -1133.3754       -883.1494
  -9499782.99746  -7246687.72145  22350836.4534   22350839.9574
      1810.3444       1410.6574
  -9789967.03447  -7557593.71947  20917222.4924   20917227.2624
      1061.1884        826.8994
 98  6 17 15 58 30.0000000  0  8G 2G 4G 8G 7G16G 9G 5G24
  11189122.99444   8718784.22642  24396134.2034   24396138.9964
     -3450.5004      -2688.7014
  -1497847.03847  -1144723.35647  20881975.0084   20881977.8674
     -1317.8284      -1026.8794
  -3814509.35846  -2847351.70245  22356488.4694   22356491.9264
      1356.6884       1057.1594
  11078557.09245   8632635.51745  23318043.1094   23318048.8634
     -2989.1254      -2329.1884
        -1.02551                  24884575.0164
      -295.9374
  -1793409.26347  -1386584.66447  21453070.5474   21453073.2774
     -1143.8914       -891.3434
  -9526914.28646  -7267828.97445  22345673.3524   22345677.3244
      1807.1254       1408.1494
  -9805814.95347  -7569942.74447  20914206.8134   20914211.3134
      1051.9064        819.6674
 98  6 17 15 58 45.0000000  0  8G 2G 4G 8G 7G16G 9G 5G24
  11240913.26443   8759140.22942  24405989.2194   24405998.0944
     -3454.8124      -2692.0624
  -1477998.01947  -1129256.57346  20885752.1094   20885754.9804
     -1328.7034      -1035.3534
  -3834786.69146  -2863152.19745  22352629.4694   22352633.7114
      1346.9844       1049.5984
  11123401.63045   8667579.25445  23326577.0944   23326583.5164
     -2990.0944      -2329.9434
      4506.88541                  24885432.8594
      -305.1094
  -1776173.60347  -1373154.26947  21456350.3364   21456352.9614
     -1154.1874       -899.3674
  -9553995.95946  -7288931.55845  22340520.0554   22340524.8834
      1803.7814       1405.5444
  -9821524.55047  -7582183.98447  20911217.4454   20911222.0514
      1042.7034        812.4964
 98  6 17 15 59  0.0000000  0  8G 2G 4G 8G 7G16G 9G 5G24
  11292769.71043   8799547.74241  24415857.4384   24415862.0204
     -3459.3914      -2695.6294
  -1457984.98447  -1113662.00746  20889560.4454   20889563.7034
     -1339.6874      -1043.9124
  -3854918.43046  -2878839.23945  22348797.8524   22348802.3754
      1337.2344       1042.0014
  11168259.97645   8702533.80845  23335112.6804   23335118.9844
     -2991.0164      -2330.6624
      9154.04641                  24886317.7894
      -314.5474
  -1758783.23347  -1359603.33547  21459659.4534   21459662.0084
     -1164.5314       -907.4274
  -9581026.76246  -7309994.50346  22335376.4144   22335380.8674
      1800.3594       1402.8774
  -9837095.74547  -7594317.36647  20908254.2974   20908258.7504
      1033.4694        805.3004
 98  6 17 15 59 15.0000000  0  7G 2G 4G 8G 7G 9G 5G24
  11344692.62543   8840007.10941  24425737.9774   24425745.4694
     -3463.7974      -2699.0624
  -1437809.34047  -1097940.73046  20893399.9144   20893402.9494
     -1350.4694      -1052.3134
  -3874904.88446  -2894413.08445  22344994.9384   22345000.0354
      1327.5634       1034.4644
  11213130.79845   8737498.06945  23343651.7664   23343657.9654
     -2991.8754      -2331.3314
  -1741239.65947  -1345933.02847  21462998.1804   21463000.3714
     -1174.6564       -915.3174
  -9608009.12346  -7331019.70346  22330241.9384   22330245.6644
      1797.2814       1400.4794
  -9852528.82947  -7606343.12847  20905317.4844   20905321.6094
      1024.1884        798.0684
 98  6 17 15 59 30.0000000  0  7G 2G 4G 8G 7G 9G 5G24
  11396684.11343   8880519.92641  24435632.0314   24435639.8164
     -3468.2504      -2702.5324
  -1417471.08247  -1082092.73646  20897269.9384   20897272.6564
     -1361.0944      -1060.5934
  -3894744.91346  -2909872.83145  22341219.4454   22341223.4064
      1318.0004       1027.0134
  11258017.94345   8772475.02745  23352193.9844   23352199.7854
     -2992.9224      -2332.1474
  -1723544.53347  -1332144.63247  21466365.4454   21466367.7194
     -1184.5314       -923.0114
  -9634945.87446  -7352009.36646  22325115.7344   22325118.7584
      1794.5474       1398.3484
  -9867820.29447  -7618258.54347  20902407.4534   20902411.6024
      1014.8914        790.8244
 98  6 17 15 59 45.0000000  0  7G 2G 4G 8G 7G 9G 5G24
  11448743.99142   8921085.96441  24445539.1254   24445543.4264
     -3472.9224      -2706.1734
  -1396974.18747  -1066121.12446  20901170.2114   20901172.7894
     -1371.7034      -1068.8604
  -3914440.95346  -2925220.40345  22337472.0314   22337475.3834
      1308.1884       1019.3674
  11302922.83445   8807465.79845  23360739.0004   23360743.5004
     -2994.3284      -2333.2434
  -1705700.05047  -1318239.85747  21469760.9694   21469763.7344
     -1194.6564       -930.9014
  -9661841.65646  -7372967.11346  22319997.8914   22320000.7154
      1791.6724       1396.1084
  -9882969.26547  -7630062.93047  20899524.7734   20899529.0984
      1005.0314        783.1414
 98  6 17 16  0  0.0000000  0  7G 2G 4G 8G 7G 9G 5G24
  11500872.32742   8961705.39541  24455459.3054   24455468.0984
     -3477.4224      -2709.6794
  -1376319.68047  -1050026.70446  20905100.8444   20905103.8674
     -1382.1874      -1077.0294
  -3933988.53046  -2940452.27345  22333752.4224   22333755.5274
      1298.2034       1011.5874
  11347850.29145   8842474.16445  23369289.0474   23369292.7974
     -2995.9534      -2334.5094
  -1687703.99547  -1304216.96147  21473185.4534   21473188.9224
     -1204.7504       -938.7664
  -9688693.76646  -7393890.84046  22314887.7894   22314890.8954
      1788.6414       1393.7464
  -9897970.77247  -7641752.40147  20896670.0314   20896674.5904
       995.2344        775.5074
 98  6 17 16  0 15.0000000  0  7G 2G 4G 8G 7G 9G 5G24
  11553066.45543   9002376.04741  24465391.1804   24465395.8914
     -3481.7974      -2713.0884
  -1355507.57747  -1033809.47846  20909060.9064   20909064.1884
     -1392.7504      -1085.2604
  -3953387.00146  -2955567.95845  22330060.9304   22330064.2344
      1288.2814       1003.8564
  11392801.90945   8877501.35345  23377843.1024   23377847.4494
     -2997.6094      -2335.8004
  -1669557.69347  -1290076.99847  21476638.8054   21476642.3324
     -1214.7974       -946.5954
  -9715500.02746  -7414778.83146  22309786.7194   22309790.2814
      1785.5164       1391.3114
  -9912827.77747  -7653329.27747  20893842.6254   20893847.0664
       985.7344        768.1054
 98  6 17 16  0 30.0010000  0  7G 2G 4G 8G 7G 9G 5G24
  11605332.87142   9043103.18941  24475335.1924   24475335.3924
     -3486.6254      -2716.8514
  -1334534.83246  -1017467.08746  20913052.2004   20913055.8104
     -1403.4844      -1093.6244
  -3972636.98946  -2970567.94446  22326397.8104   22326401.3134
      1278.1564        995.9664
  11437784.05145   8912552.34345  23386401.8414   23386407.2784
     -2999.6874      -2337.4194
  -1651256.88047  -1275816.62447  21480121.2944   21480124.5634
     -1225.1724       -954.6794
  -9742259.20546  -7435630.14246  22304694.7394   22304698.2554
      1782.1094       1388.6574
  -9927542.67947  -7664795.42347  20891042.5754   20891047.1464
       976.0784        760.5804
 98  6 17 16  0 45.0010000  0  7G 2G 4G 8G 7G 9G 5G24
  11657666.69742   9083882.65641  24485295.8644   24485302.6964
     -3491.3914      -2720.5644
  -1313404.51847  -1001001.91046  20917073.1304   20917076.5284
     -1413.9694      -1101.7944
  -3991734.31446  -2985448.96746  22322763.8414   22322768.0604
      1267.9534        988.0154
  11482793.59845   8947624.72045  23394966.7554   23394972.8964
     -3001.6724      -2338.9654
  -1632803.76747  -1261437.59047  21483632.5834   21483635.7944
     -1235.4064       -962.6544
  -9768967.17946  -7456441.55346  22299612.2394   22299616.5634
      1778.7814       1386.0634
  -9942112.67847  -7676148.65047  20888269.9274   20888274.6854
       966.4384        753.0684
 98  6 17 16  1  0.0010000  0  8G 2G 4G 8G 7G16G 9G 5G24
  11710073.89241   9124719.47741  24495269.0674   24495275.4544
     -3496.3444      -2724.4244
  -1292118.28947   -984415.22946  20921123.8414   20921127.1694
     -1424.2504      -1109.8054
  -4010679.37046  -3000211.34745  22319158.4114   22319161.9974
      1258.0474        980.2964
  11527832.98245   8982720.31145  23403537.7944   23403543.8994
     -3003.6564      -2340.5114
      4571.80851                  24894306.0364
      -384.6254
  -1614196.33347  -1246938.29847  21487173.3724   21487176.9464
     -1245.6564       -970.6414
  -9795625.05246  -7477213.90646  22294539.6534   22294543.8254
      1775.6094       1383.5924
  -9956535.99247  -7687387.57547  20885525.1304   20885530.0994
       956.6564        745.4464
 98  6 17 16  1 15.0010000  0  8G 2G 4G 8G 7G16G 9G 5G24
  11762559.00042   9165616.84141  24505257.4814   24505265.4194
     -3501.5474      -2728.4784
  -1270677.27347   -967707.94346  20925203.9034   20925206.7394
     -1434.4844      -1117.7804
  -4029475.29446  -3014857.51845  22315581.5914   22315585.5404
      1248.1254        972.5654
  11572903.69545   9017840.29945  23412114.6464   23412119.9784
     -3005.7194      -2342.1194
     10408.30141                  24895415.4424
      -393.5474
  -1595433.93047  -1232318.25047  21490743.8884   21490747.5564
     -1255.9224       -978.6404
  -9822234.29146  -7497948.36446  22289476.0364   22289479.7394
      1772.3134       1381.0234
  -9970814.24647  -7698513.47647  20882808.0364   20882812.4314
       947.2034        738.0804
 98  6 17 16  1 30.0010000  0  8G 2G 4G 8G 7G16G 9G 5G24
  11815122.95642   9206575.75941  24515258.1384   24515265.3374
     -3506.8594      -2732.6184
  -1249081.71747   -950880.23546  20929313.5444   20929316.2394
     -1444.9374      -1125.9254
  -4048120.56346  -3029386.27946  22312033.1924   22312036.9544
      1238.0004        964.6754
  11618005.53745   9052984.61345  23420696.9744   23420702.7744
     -3007.7974      -2343.7384
     16379.95741                  24896551.9974
      -402.6414
  -1576516.46047  -1217577.36947  21494343.7474   21494347.2744
     -1266.3754       -986.7864
  -9848791.26146  -7518642.08946  22284422.6304   22284426.3924
      1768.6414       1378.1624
  -9984949.81847  -7709528.20147  20880118.2944   20880122.4784
       937.6414        730.6294
 98  6 17 16  1 45.0010000  0  7G 2G 4G 8G 7G 9G 5G24
  11867763.89642   9247594.52541  24525275.6614   24525284.0094
     -3511.8754      -2736.5264
  -1227328.24347   -933929.46847  20933452.7004   20933455.3254
     -1455.4694      -1134.1314
  -4066616.04346  -3043798.32945  22308513.6224   22308517.7004
      1228.0944        956.9564
  11663137.23745   9088152.15444  23429285.1064   23429291.6224
     -3009.6874      -2345.2114
  -1557441.94247  -1202714.11347  21497973.4584   21497976.7984
     -1276.9064       -994.9924
  -9875292.26246  -7539292.18946  22279379.7394   22279383.1494
      1764.8134       1375.1794
  -9998942.46247  -7720431.53847  20877455.6694   20877460.0754
       928.1254        723.2144
 98  6 17 16  2  0.0010000  0  7G 2G 4G 8G 7G 9G 5G24
  11920479.66142   9288671.81042  24535307.6064   24535315.2744
     -3516.8444      -2740.3984
  -1205416.75447   -916855.57846  20937621.9974   20937625.2904
     -1466.0784      -1142.3994
  -4084961.46746  -3058093.46545  22305022.9354   22305026.0524
      1217.9384        949.0424
  11708296.71645   9123341.29844  23437878.7634   23437884.6464
     -3011.5474      -2346.6604
  -1538207.92347  -1187726.58347  21501633.7554   21501637.2004
     -1287.6254      -1003.3444
  -9901733.26646  -7559895.55246  22274348.1304   22274351.3534
      1760.6254       1371.9164
 -10012792.62647  -7731223.87547  20874820.2244   20874824.7004
       918.6414        715.8244
 98  6 17 16  2 15.0010000  0  7G 2G 4G 8G 7G 9G 5G24
  11973270.33942   9329807.28041  24545352.7864   24545360.2084
     -3522.0474      -2744.4524
  -1183345.55947   -899657.26047  20941822.5284   20941825.9744
     -1476.8754      -1150.8124
  -4103155.16546  -3072270.38445  22301560.4424   22301564.4504
      1207.8134        941.1534
  11753482.16545   9158550.67444  23446477.9034   23446483.1534
     -3013.2344      -2347.9754
  -1518814.52547  -1172614.85447  21505323.7784   21505327.4464
     -1298.2504      -1011.6234
  -9928111.16846  -7580449.74746  22269328.6064   22269332.5564
      1756.3914       1368.6164
 -10026503.70247  -7741907.81647  20872210.8884   20872214.9314
       909.4064        708.6284
 98  6 17 16  2 30.0010000  0  7G 2G 4G 8G 7G 9G 5G24
  12026140.08742   9371004.45041  24555413.4424   24555419.5484
     -3527.2974      -2748.5434
  -1161112.45547   -882332.76746  20946053.3884   20946056.6924
     -1487.5474      -1159.1274
  -4121196.97546  -3086328.92345  22298127.2474   22298132.0874
      1197.7664        933.3244
  11798691.71545   9193778.88344  23455080.9034   23455085.5324
     -3014.7504      -2349.1564
  -1499262.04747  -1157379.15447  21509044.3564   21509047.5794
     -1308.7504      -1019.8054
  -9954426.68046  -7600955.32546  22264320.5134   22264323.8534
      1752.3444       1365.4634
 -10040076.04047  -7752483.63946  20869628.0754   20869631.8254
       900.1884        701.4454
 98  6 17 16  2 45.0010000  0  7G 2G 4G 8G 7G 9G 5G24
  12079088.32642   9412262.76341  24565489.1534   24565496.0714
     -3532.5164      -2752.6104
  -1138720.04247   -864884.13046  20950314.4664   20950317.5834
     -1498.2034      -1167.4314
  -4139088.99146  -3100270.73846  22294722.9114   22294727.1424
      1187.7504        925.5194
  11843923.22245   9229024.18843  23463688.1774   23463693.7674
     -3016.1254      -2350.2274
  -1479553.03447  -1142021.49947  21512795.1464   21512797.9934
     -1319.1724      -1027.9264
  -9980682.34946  -7621414.26446  22259324.2314   22259327.7244
      1748.3444       1362.3464
 -10053508.20347  -7762950.24646  20867071.8964   20867076.2314
       890.7194        694.0674
 98  6 17 16  3  0.0010000  0  7G 2G 4G 8G 7G 9G 5G24
  12132115.12142   9453582.25141  24575579.2084   24575587.0174
     -3537.7344      -2756.6764
  -1116166.83747   -847310.19646  20954606.2164   20954609.2514
     -1508.8754      -1175.7474
  -4156829.52846  -3114094.52346  22291347.0284   22291351.4354
      1177.6254        917.6304
  11889174.56645   9264284.94343  23472299.2474   23472305.1424
     -3017.3594      -2351.1894
  -1459686.41547  -1126541.03147  21516575.8804   21516578.6464
     -1329.7034      -1036.1324
 -10006877.23246  -7641825.84546  22254339.8644   22254343.2744
      1744.3134       1359.2054
 -10066797.43147  -7773305.46746  20864543.1694   20864547.8804
       881.1254        686.5914
 98  6 17 16  3 15.0010000  0  7G 2G 4G 8G 7G 9G 5G24
  12185220.08841   9494962.65941  24585685.3254   24585697.2004
     -3542.7974      -2760.6214
  -1093452.57647   -829610.76847  20958928.5914   20958932.3064
     -1519.6254      -1184.1234
  -4174419.17946  -3127800.71846  22287999.4274   22288003.5284
      1167.6884        909.8864
  11934443.93845   9299559.76443  23480913.7554   23480919.2634
     -3018.4374      -2352.0294
  -1439663.56747  -1110938.81847  21520386.1854   21520389.1614
     -1339.9374      -1044.1074
 -10033013.06946  -7662191.42846  22249366.3564   22249369.7084
      1740.5784       1356.2954
 -10079942.06847  -7783548.01547  20862041.7164   20862046.4504
       871.5634        679.1404
 98  6 17 16  3 30.0010000  0  7G 2G 4G 8G 7G 9G 5G24
  12238399.43742   9536401.12241  24595805.8564   24595812.9034
     -3547.6874      -2764.4324
  -1070576.31647   -811785.12647  20963282.0524   20963285.7554
     -1530.4844      -1192.5854
  -4191857.27246  -3141388.83145  22284680.9114   22284684.6854
      1157.3444        901.8264
  11979729.55545   9334847.16543  23489531.5754   23489535.8764
     -3019.6094      -2352.9424
  -1419487.24947  -1095217.01147  21524225.4814   21524228.4934
     -1350.2194      -1052.1194
 -10059091.94046  -7682512.61746  22244403.7554   22244406.7204
      1736.7034       1353.2754
 -10092941.22447  -7793677.20547  20859568.0054   20859572.7044
       861.5784        671.3604
 98  6 17 16  3 45.0010000  0  7G 2G 4G 8G 7G 9G 5G24
  12291648.48142   9577893.78842  24605938.3564   24605946.9384
     -3552.2814      -2768.0114
  -1047539.04447   -793833.99747  20967665.6534   20967669.1104
     -1541.2194      -1200.9504
  -4209141.24646  -3154856.86645  22281392.4584   22281395.7044
      1147.0784        893.8274
  12025032.09845   9370147.86143  23498152.5444   23498156.9274
     -3020.7974      -2353.8684
  -1399158.31047  -1079376.29347  21528093.8964   21528096.7904
     -1360.3754      -1060.0324
 -10085117.41546  -7702792.19646  22239451.1224   22239454.2284
      1733.3914       1350.6944
 -10105789.55347  -7803688.87647  20857123.1224   20857127.9624
       851.4224        663.4464
 98  6 17 16  4  0.0010000  0  7G 2G 4G 8G 7G 9G 5G24
  12344966.65242   9619440.36241  24616084.5134   24616091.9114
     -3556.7974      -2771.5304
  -1024342.38547   -775758.68747  20972079.7554   20972083.2474
     -1551.6564      -1209.0834
  -4226270.06446  -3168204.00146  22278133.0524   22278137.0014
      1136.6884        885.7314
  12070352.54844   9405462.43243  23506775.9354   23506780.3414
     -3021.9374      -2354.7564
  -1378677.87847  -1063417.52147  21531991.2084   21531994.1034
     -1370.3914      -1067.8374
 -10111094.74846  -7723034.26246  22234507.5054   22234510.6224
      1730.2034       1348.2104
 -10118485.13147  -7813581.52147  20854707.5214   20854712.3494
       841.3134        655.5684
 98  6 17 16  4 15.0010000  0  7G 2G 4G 8G 7G 9G 5G24
  12398353.55542   9661040.41341  24626242.9114   24626252.1264
     -3561.5624      -2775.2444
  -1000990.58447   -757562.48646  20976523.7554   20976527.1304
     -1562.0164      -1217.1554
  -4243243.11846  -3181429.75746  22274903.1144   22274907.9894
      1126.3134        877.6464
  12115689.16544   9440789.64742  23515402.9974   23515409.7824
     -3023.0004      -2355.5844
  -1358048.82047  -1047342.94847  21535916.9894   21535919.9784
     -1380.2344      -1075.5074
 -10137025.80846  -7743240.27946  22229572.9114   22229576.2514
      1727.2344       1345.8974
 -10131030.67747  -7823357.25647  20852320.1064   20852324.5134
       831.2974        647.7644
 98  6 17 16  4 30.0010000  0  7G 2G 4G 8G 7G 9G 5G24
  12451811.15542   9702695.63941  24636417.2394   24636424.0484
     -3566.1874      -2778.8474
   -977483.39247   -739245.19347  20980996.9034   20980999.6924
     -1572.3124      -1225.1794
  -4260062.77646  -3194535.98646  22271702.2004   22271707.0634
      1116.2814        869.8304
  12161041.46443   9476129.12442  23524033.3334   23524040.4744
     -3024.0474      -2356.4004
  -1337271.93147  -1031153.17147  21539870.7714   21539874.0994
     -1390.0784      -1083.1784
 -10162914.07346  -7763412.94046  22224646.3964   22224650.2394
      1724.4694       1343.7424
 -10143423.71947  -7833014.15247  20849961.8494   20849965.9274
       821.0474        639.7774
 98  6 17 16  4 45.0010000  0  8G 2G 4G 8G 7G16G 9G 5G24
  12505338.08142   9744404.85641  24646603.2634   24646609.1924
     -3570.6724      -2782.3424
   -953821.01047   -720806.96947  20985499.7474   20985502.8534
     -1582.6564      -1233.2394
  -4276732.54146  -3207525.40445  22268529.7714   22268534.3294
      1106.3284        862.0744
  12206411.58043   9511482.37542  23532667.6924   23532673.4704
     -3025.2974      -2357.3744
      4192.52751                  24913811.7314
      -526.6254
  -1316346.51247  -1014847.65747  21543852.8644   21543856.0994
     -1400.0314      -1090.9334
 -10188759.34146  -7783552.09246  22219728.5214   22219732.4584
      1721.5474       1341.4654
 -10155662.12547  -7842550.54647  20847632.8104   20847636.9234
       810.7344        631.7414
 98  6 17 16  5  0.0010000  0  8G 2G 4G 8G 7G16G 9G 5G24
  12558930.83942   9786165.38741  24656802.0674   24656806.2394
     -3575.0004      -2785.7144
   -930004.75047   -702248.84247  20990031.7394   20990035.2204
     -1592.8284      -1241.1654
  -4293253.47746  -3220398.84445  22265385.7714   22265391.1144
      1096.4384        854.3674
  12251798.84243   9546849.03542  23541304.1464   23541306.8884
     -3026.2974      -2358.1534
     12161.81741                  24915323.7244
      -535.8444
  -1295270.94147   -998425.14547  21547863.1694   21547866.0404
     -1410.0004      -1098.7014
 -10214560.61946  -7803656.97046  22214818.9974   22214822.7354
      1718.6564       1339.2134
 -10167747.48947  -7851967.69547  20845332.9664   20845336.9974
       800.7194        623.9374
 98  6 17 16  5 15.0010000  0  7G 2G 4G 8G 7G 9G 5G24
  12612588.92042   9827976.82541  24667011.8724   24667016.1854
     -3579.3914      -2789.1364
   -906035.64647   -683571.62947  20994592.7864   20994596.5604
     -1603.0474      -1249.1274
  -4309624.46846  -3233155.43845  22262270.5054   22262275.9784
      1086.3594        846.5144
  12297201.77144   9582227.91242  23549944.3494   23549949.5754
     -3027.3914      -2359.0064
  -1274047.49047   -981887.39347  21551902.1144   21551905.2674
     -1419.7344      -1106.2874
 -10240318.20046  -7823727.81546  22209917.2634   22209920.7084
      1715.6884       1336.8994
 -10179683.15147  -7861268.19647  20843061.8804   20843066.2634
       790.7344        616.1574
 98  6 17 16  5 30.0010000  0  7G 2G 4G 8G 7G 9G 5G24
  12666312.19241   9869838.90241  24677234.6614   24677239.8174
     -3583.7974      -2792.5694
   -881912.75347   -664774.57847  20999183.4424   20999186.8884
     -1613.4224      -1257.2124
  -4325845.51346  -3245795.22446  22259183.9664   22259188.3494
      1076.3444        838.7094
  12342622.73645   9617620.87642  23558587.7864   23558593.6924
     -3028.8444      -2360.1384
  -1252677.90947   -965235.77247  21555968.4354   21555972.0674
     -1429.7504      -1114.0914
 -10266030.41546  -7843763.29446  22205023.9894   22205028.1494
      1712.4384       1334.3674
 -10191471.30347  -7870453.75847  20840818.5674   20840823.0214
       780.9384        608.5234
 98  6 17 16  5 45.0010000  0  8G 2G 4G 8G 7G 9G 5G24G30
  12720100.97941   9911752.23341  24687471.2474   24687483.4034
     -3588.1874      -2795.9904
   -857635.31047   -645857.09047  21003803.2554   21003805.8334
     -1623.7344      -1265.2484
  -4341917.47846  -3258318.83746  22256125.6384   22256129.4114
      1066.4844        831.0274
  12388064.66144   9653030.11642  23567234.2714   23567240.1884
     -3030.2504      -2361.2344
  -1231156.26547   -948465.67347  21560063.9114   21560067.6144
     -1440.0004      -1122.0784
 -10291692.49346  -7863759.69946  22200140.6064   22200145.1184
      1709.0314       1331.7134
 -10203115.07047  -7879526.81047  20838602.6304   20838606.9784
       771.4534        601.1324
     -4982.62153                  24974613.5284
      2492.3914
 98  6 17 16  6  0.0010000  0  9G 2G 4G 8G 7G16G 9G 5G24G30
  12773959.18041   9953719.58941  24697718.9814   24697734.5014
     -3592.8444      -2799.6194
   -833201.19547   -626817.50846  21008452.6614   21008455.4854
     -1634.1564      -1273.3694
  -4357841.22346  -3270726.93146  22253095.5524   22253099.6184
      1056.6724        823.3814
  12433528.24444   9688456.26842  23575885.9584   23575890.7514
     -3031.5004      -2362.2084
      6825.27551                  24921653.1694
      -572.5944
  -1209478.33347   -931573.79247  21564188.9974   21564192.4314
     -1450.4064      -1130.1874
 -10317300.88246  -7883714.27346  22195267.5524   22195271.8534
      1705.3284       1328.8274
 -10214617.61747  -7888489.81747  20836413.8024   20836418.1034
       762.2664        593.9734
    -42366.33842                  24967500.1384
      2492.1254
 98  6 17 16  6 15.0010000  0  8G 4G 8G 7G16G 9G 5G24G30
   -808609.71146   -607655.32946  21013132.1924   21013135.8724
     -1644.7034      -1281.5874
  -4373617.59846  -3283020.19246  22250093.3414   22250096.6104
      1046.8754        815.7474
  12479009.45044   9723896.19742  23584541.5524   23584547.5284
     -3032.6874      -2363.1334
     15483.64741                  24923300.9894
      -581.7974
  -1187642.58547   -914558.93047  21568344.3644   21568347.7394
     -1461.0164      -1138.4544
 -10342849.32746  -7903622.13846  22190405.9424   22190409.9974
      1701.1094       1325.5404
 -10225983.93947  -7897346.67847  20834250.7314   20834255.1734
       753.2034        586.9124
    -79744.88942                  24960387.7634
      2491.6724
 98  6 17 16  6 30.0010000  0  8G 4G 8G 7G16G 9G 5G24G30
   -783857.57747   -588367.96346  21017842.6614   21017846.4584
     -1655.6414      -1290.1104
  -4389246.42646  -3295198.49746  22247119.2244   22247122.3294
      1036.8914        807.9674
  12524510.44743   9759351.43241  23593199.5754   23593204.5214
     -3034.2034      -2364.3144
     24280.67841                  24924975.9114
      -591.1724
  -1165646.94247   -897419.47847  21572530.0754   21572533.0054
     -1471.8124      -1146.8674
 -10368333.78346  -7923480.13946  22185556.5054   22185561.0874
      1696.7504       1322.1434
 -10237211.65347  -7906095.53847  20832114.2474   20832118.5834
       743.7664        579.5584
   -117117.20441                  24953273.3254
      2491.1884
 98  6 17 16  6 45.0010000  0  8G 4G 8G 7G16G 9G 5G24G30
   -758942.13547   -568953.33946  21022583.8884   21022587.3564
     -1666.4374      -1298.5234
  -4404725.81346  -3307260.35246  22244173.4274   22244176.8134
      1026.8914        800.1754
  12570035.13843   9794825.20341  23601862.1614   23601868.5364
     -3035.7504      -2365.5194
     33218.51641                  24926675.9814
      -600.4844
  -1143489.86147   -880154.22347  21576746.3104   21576748.7714
     -1482.4694      -1155.1704
 -10393752.42546  -7943286.85546  22180719.4114   22180723.4894
      1692.3444       1318.7094
 -10248300.20547  -7914735.95847  20830004.4584   20830008.1734
       734.7504        572.5324
   -154481.44041                  24946165.8024
      2490.6884
 98  6 17 16  7  0.0010000  0  7G 4G 8G 7G 9G 5G24G30
   -733865.01646   -549412.72946  21027355.7244   21027359.0174
     -1677.1874      -1306.8994
  -4420051.70646  -3319202.58246  22241257.1614   22241261.2634
      1016.4224        792.0174
  12615581.11443   9830315.57942  23610530.2864   23610531.3294
     -3037.0944      -2366.5674
  -1121173.86547   -862765.14747  21580993.1694   21580995.7124
     -1493.0314      -1163.4014
 -10419104.66246  -7963041.83146  22175895.2474   22175899.4074
      1687.9224       1315.2644
 -10259254.83447  -7923272.01747  20827919.8884   20827923.7434
       725.7974        565.5564
   -191838.27042     -1938.79351  24939057.1534   24939063.8804
      2490.1414       1940.3694
 98  6 17 16  7 15.0010000  0  7G 4G 8G 7G 9G 5G24G30
   -708625.81547   -529745.81846  21032158.4504   21032161.9074
     -1688.0314      -1315.3494
  -4435218.39946  -3331020.78446  22238370.8724   22238374.7514
      1005.7814        783.7264
  12661148.76044   9865822.77442  23619201.5674   23619207.5444
     -3038.6254      -2367.7604
  -1098700.07847   -845253.10847  21585269.2714   21585272.2474
     -1503.3914      -1171.4734
 -10444389.71146  -7982744.46146  22171083.7944   22171087.4384
      1683.4694       1311.7944
 -10270074.36347  -7931702.81147  20825861.0674   20825864.8884
       716.7974        558.5434
   -229186.73541    -31041.45942  24931947.9274   24931952.7554
      2489.6254       1939.9684
 98  6 17 16  7 30.0010000  0  7G 4G 8G 7G 9G 5G24G30
   -683223.70847   -509951.97346  21036992.8104   21036996.3604
     -1698.9694      -1323.8724
  -4450226.71346  -3342715.57246  22235515.0054   22235519.4584
       995.2504        775.5194
  12706740.08544   9901348.44542  23627877.3174   23627880.5754
     -3040.2814      -2369.0504
  -1076071.67247   -827620.60047  21589575.5834   21589578.8644
     -1513.8444      -1179.6194
 -10469608.29046  -8002395.28846  22166284.7634   22166288.2434
      1678.9224       1308.2514
 -10280758.00447  -7940027.72147  20823827.6924   20823831.5134
       707.5784        551.3604
   -266529.25141    -60139.46341  24924843.7244   24924854.0174
      2489.2664       1939.6884
 98  6 17 16  7 45.0010000  0  7G 4G 8G 7G 9G 5G24G30
   -657658.74247   -490031.22946  21041857.2864   21041860.7434
     -1709.7034      -1332.2364
  -4465076.80246  -3354287.06746  22232689.3024   22232694.2594
       984.6884        767.2894
  12752356.23544   9936893.45841  23636557.1384   23636561.3564
     -3041.8754      -2370.2924
  -1053284.59747   -809864.45047  21593911.7004   21593915.2634
     -1524.4694      -1187.8984
 -10494759.00546  -8021993.25246  22161498.5994   22161502.3254
      1674.4694       1304.7814
 -10291302.73647  -7948244.38047  20821821.3804   20821825.4814
       698.2814        544.1154
   -303865.61741    -89232.77841  24917737.6774   24917744.1694
      2488.7974       1939.3224
 98  6 17 16  8  0.0010000  0  7G 4G 8G 7G 9G 5G24G30
   -631933.16047   -469985.32346  21046753.0604   21046756.0364
     -1720.3444      -1340.5284
  -4479765.26146  -3365732.60746  22229893.9664   22229897.9624
       973.7664        758.7784
  12797995.05643   9972456.16542  23645242.0364   23645246.5484
     -3043.2664      -2371.3764
  -1030339.42147   -791985.10247  21598277.9894   21598281.7634
     -1534.8124      -1195.9584
 -10519843.43846  -8041539.55946  22156725.5214   22156729.3644
      1670.1884       1301.4454
 -10301705.89947  -7956350.73047  20819841.5284   20819846.3924
       688.7504        536.6884
   -341192.07341   -118318.26941  24910635.0444   24910641.3494
      2488.0164       1938.7134
 98  6 17 16  8 15.0010000  0  7G 4G 8G 7G 9G 5G24G30
   -606051.42347   -449817.73547  21051678.1854   21051680.9854
     -1730.5624      -1348.4904
  -4494291.90846  -3377052.06646  22227129.6924   22227133.5364
       963.0944        750.4634
  12843651.99244  10008032.99041  23653930.3174   23653938.8884
     -3044.3914      -2372.2524
  -1007243.46347   -773988.26647  21602673.1304   21602676.7864
     -1544.6564      -1203.6284
 -10544866.77546  -8061038.24746  22151963.4894   22151967.0874
      1666.2344       1298.3644
 -10311967.11047  -7964346.47347  20817888.8334   20817893.6034
       679.3914        529.3954
   -378507.91941   -147395.49741  24903533.7004   24903537.9544
      2487.3444       1938.1904
 98  6 17 16  8 30.0010000  0  7G 4G 8G 7G 9G 5G24G30
   -580016.19947   -429530.55047  21056632.4664   21056635.3024
     -1740.7974      -1356.4654
  -4508657.50846  -3388246.02246  22224395.6064   22224398.3724
       952.2974        742.0504
  12889329.08544  10043625.49342  23662623.4974   23662627.6694
     -3045.9534      -2373.4704
   -983999.73747   -755876.27147  21607096.2714   21607099.7514
     -1554.4534      -1211.2624
 -10569830.03046  -8080490.11846  22147213.4974   22147217.1654
      1662.2814       1295.2844
 -10322085.39247  -7972230.81847  20815963.2474   20815968.0174
       669.6564        521.8104
   -415812.50941   -176464.08441  24896435.0914   24896443.2394
      2486.6094       1937.6184
 98  6 17 16  8 45.0010000  0  7G 4G 8G 7G 9G 5G24G30
   -553828.75247   -409124.76247  21061615.6924   21061618.9624
     -1750.9694      -1364.3914
  -4522862.19046  -3399314.60845  22221692.9584   22221696.1574
       941.5314        733.6614
  12935028.97544  10079235.83842  23671319.8414   23671325.0674
     -3047.5004      -2374.6754
   -960611.49747   -737651.68747  21611547.0364   21611550.1774
     -1564.1254      -1218.7994
 -10594736.07246  -8099897.41346  22142473.6924   22142477.1384
      1658.3444       1292.2164
 -10332057.25347  -7980001.09247  20814065.8644   20814070.1534
       659.8444        514.1644
   -453105.10441                  24889339.9504
      2485.5634
 98  6 17 16  9  0.0010000  0  7G 4G 8G 7G 9G 5G24G30
   -527491.03147   -388601.87746  21066627.6534   21066631.0874
     -1760.8124      -1372.0624
  -4536905.24746  -3410257.24945  22219020.3964   22219023.7244
       930.8594        725.3454
  12980749.94843  10114862.54042  23680019.1464   23680024.0324
     -3048.6724      -2375.5884
   -937078.93846   -719314.64147  21616025.0054   21616028.8964
     -1573.6254      -1226.2014
 -10619582.51746  -8119258.27646  22137745.4664   22137748.7004
      1654.5004       1289.2214
 -10341882.18847  -7987656.87347  20812196.4504   20812199.9784
       650.0004        506.4944
   -490380.01541                  24882244.5054
      2484.4384
 98  6 17 16  9 15.0010000  0  7G 4G 8G 7G 9G 5G24G30
   -501005.37646   -367963.71046  21071667.2394   21071670.8724
     -1770.6254      -1379.7084
  -4550790.15746  -3421076.64545  22216378.5214   22216382.1884
       920.4844        717.2614
  13026488.03342  10150502.53541  23688722.5444   23688725.7204
     -3049.8124      -2376.4774
   -913403.24946   -700866.05146  21620530.0604   21620534.1964
     -1583.1414      -1233.6164
 -10644371.83346  -8138574.61546  22133028.0444   22133031.7004
      1650.7034       1286.2624
 -10351556.22847  -7995195.07546  20810355.3414   20810358.3644
       639.8284        498.5674
   -527639.03641                  24875155.5444
      2483.4384
 98  6 17 16  9 30.0010000  0  7G 4G 8G 7G 9G 5G24G30
   -474374.26447   -347212.19346  21076735.5674   21076738.9314
     -1780.2974      -1387.2444
  -4564522.97546  -3431777.52846  22213765.3804   22213769.0604
       910.4844        709.4684
  13072242.97742  10186155.70141  23697430.4504   23697429.2084
     -3050.9224      -2377.3424
   -889585.97647   -682307.15046  21625062.3884   21625066.0324
     -1592.6254      -1241.0064
 -10669105.09546  -8157847.26246  22128321.5134   22128325.6614
      1646.9534       1283.3404
 -10361078.73247  -8002615.19647  20808543.3024   20808546.3254
       629.6884        490.6664
   -564884.80043                  24868067.7784
      2482.6094
 98  6 17 16  9 45.0010000  0  7G 4G 8G 7G 9G 5G24G30
   -447596.14547   -326346.13847  21081831.3564   21081834.4154
     -1790.0314      -1394.8304
  -4578102.86546  -3442359.27446  22211181.4274   22211185.2714
       900.2034        701.4574
  13118016.05042  10221822.95941  23706140.4814   23706145.6144
     -3052.0314      -2378.2064
   -865622.40847   -663634.25847  21629622.7864   21629626.2784
     -1602.4224      -1248.6404
 -10693779.18646  -8177073.81246  22123626.5364   22123630.3564
      1642.9694       1280.2354
 -10370444.96447  -8009913.55747  20806760.9504   20806764.6184
       619.2344        482.5204
   -602115.88343                  24860983.1614
      2481.6094
 98  6 17 16 10  0.0010000  0  7G 4G 8G 7G 9G 5G24G30
   -420672.53247   -305366.70047  21086954.8024   21086957.4854
     -1799.8284      -1402.4634
  -4591528.59546  -3452820.86346  22208626.2634   22208630.7044
       889.9064        693.4334
  13163805.04142  10257502.74841  23714852.8964   23714854.0444
     -3053.1564      -2379.0834
   -841512.76947   -644847.53046  21634210.4504   21634214.0364
     -1612.1414      -1256.2134
 -10718394.72546  -8196254.75446  22118942.2164   22118945.6614
      1639.0634       1277.1924
 -10379654.56347  -8017089.85747  20805008.3174   20805012.5014
       608.7034        474.3144
   -639331.80644                  24853901.2944
      2480.5164
 98  6 17 16 10 15.0010000  0  7G 4G 8G 7G 9G 5G24G30
   -393601.75847   -284272.59647  21092106.0214   21092108.9154
     -1809.7814      -1410.2194
  -4604802.93946  -3463164.49546  22206100.0524   22206104.2714
       879.9064        685.6414
  13209609.27841  10293194.40441  23723568.8494   23723570.5484
     -3054.1874      -2379.8864
   -817260.06147   -625949.30846  21638825.5834   21638829.6494
     -1621.6874      -1263.6534
 -10742951.55146  -8215389.92946  22114269.2004   22114272.6104
      1635.0634       1274.0754
 -10388707.18847  -8024143.84447  20803285.7474   20803289.9894
       598.2344        466.1574
   -676534.92944                  24846821.3174
      2479.8444
 98  6 17 16 10 30.0010000  0  7G 4G 8G 7G 9G 5G24G30
   -366379.40347   -263060.39047  21097286.0214   21097289.0674
     -1819.9374      -1418.1334
  -4617928.00646  -3473391.82146  22203602.6144   22203606.6574
       870.0474        677.9594
  13255429.42541                  23732289.8024
     -3055.2504
   -792862.05647   -606937.88746  21643468.2084   21643471.9234
     -1631.4374      -1271.2504
 -10767446.35546  -8234476.78246  22109607.8254   22109611.7044
      1630.8594       1270.8004
 -10397603.41447  -8031075.95147  20801592.6924   20801596.7944
       587.8594        458.0724
   -713729.66444                  24839744.4194
      2479.4534
 98  6 17 16 10 45.0010000  0  7G 4G 8G 7G 9G 5G24G30
   -339002.74847   -241727.93046  21102495.9114   21102498.9114
     -1830.2974      -1426.2054
  -4630903.20046  -3483502.36246  22201133.2394   22201137.9744
       859.9844        670.1184
  13301267.76341                  23741012.5364
     -3056.4534
   -768316.56847   -587811.53646  21648139.4114   21648143.2204
     -1641.2504      -1278.8964
 -10791877.20146  -8253513.79246  22104958.9274   22104963.0524
      1626.6414       1267.5124
 -10406341.37047  -8037884.73247  20799929.4974   20799933.8924
       577.1884        449.7564
   -750918.12243     -9657.16351  24832666.1464   24832672.4624
      2479.0314       1931.7134
 98  6 17 16 11  0.0010000  0  7G 4G 8G 7G 9G 5G24G30
   -311470.93147   -220274.57046  21107734.8804   21107737.9384
     -1840.6414      -1434.2654
  -4643728.60746  -3493496.17646  22198692.8334   22198696.6064
       850.0164        662.3504
  13347121.76241                  23749737.9584
     -3057.4844
   -743623.74846   -568570.38646  21652838.2474   21652842.0564
     -1651.1254      -1286.5914
 -10816246.25146  -8272502.64546  22100321.3644   22100325.1964
      1622.5944       1264.3594
 -10414921.06047  -8044570.19447  20798297.2634   20798302.0324
       566.7974        441.6604
   -788101.03342    -38630.78341  24825591.0834   24825598.0954
      2478.7344       1931.4814
 98  6 17 16 11 15.0010000  0  7G 4G 8G 7G 9G 5G24G30
   -283783.20447   -198699.72246  21113003.5364   21113007.1104
     -1851.1094      -1442.4234
  -4656402.39946  -3503371.86146  22196281.5284   22196285.2314
       839.8444        654.4244
  13392993.00842                  23758467.7244
     -3058.7034
   -718782.33247   -549213.43847  21657565.3804   21657569.2594
     -1661.0624      -1294.3344
 -10840556.38846  -8291445.59946  22095695.5054   22095699.3844
      1618.7504       1261.3644
 -10423344.49947  -8051133.90447  20796694.2474   20796698.6774
       556.3594        433.5274
   -825281.39242    -67602.55141  24818515.0444   24818522.5604
      2478.7034       1931.4574
 98  6 17 16 11 30.0010000  0  8G 4G 8G 7G16G 9G 5G24G30
   -255937.18746   -177001.53546  21118302.5754   21118306.2554
     -1861.6724      -1450.6534
  -4668922.95846  -3513128.13746  22193898.7944   22193902.0634
       829.4844        646.3514
  13438883.38542     28605.31552  23767200.5754   23767198.3254
     -3060.0624
     -2384.4644       2331.60851  24964012.3174
      -778.6094
   -693791.27647   -529739.89647  21662321.1144   21662324.7124
     -1671.0474      -1302.1144
 -10864808.02846  -8310342.97846  22091080.7244   22091084.6494
      1614.7974       1258.2834
 -10431613.62047  -8057577.36147  20795120.7394   20795124.7824
       546.2194        425.6254
   -862461.54242    -96573.92541  24811441.7164   24811447.2244
      2478.6414       1931.4084
 98  6 17 16 11 45.0010000  0  7G 4G 8G 7G 9G 5G24G30
   -227933.22047   -155180.27547  21123631.4974   21123635.0484
     -1872.2344      -1458.8844
  -4681286.90546  -3522762.36746  22191545.6384   22191549.2354
       818.9534        638.1454
  13484794.24342     64380.00041  23775936.0364   23775942.7864
     -3061.3754      -2385.4874
   -668650.52047   -510149.70647  21667104.9814   21667108.4034
     -1681.1254      -1309.9684
 -10889000.38546  -8329194.14046  22086476.9034   22086480.4314
      1610.8284       1255.1914
 -10439731.89847  -8063903.28147  20793576.0754   20793579.9664
       536.1724        417.7964
   -899639.44442   -125543.87641  24804366.9424   24804373.0244
      2478.3594       1931.1894
 98  6 17 16 12  0.0010000  0  7G 4G 8G 7G 9G 5G24G30
   -199771.74247   -133236.28047  21128990.7944   21128993.9464
     -1882.7194      -1467.0544
  -4693492.41546  -3532273.15146  22189223.1384   22189227.3454
       808.3444        629.8784
  13530723.31642    100168.75141  23784675.6854   23784683.3294
     -3062.5474      -2386.4004
   -643359.09847   -490442.11346  21671917.9894   21671921.2594
     -1691.1414      -1317.7724
 -10913135.32646  -8348000.57646  22081884.0834   22081887.4584
      1607.0944       1252.2814
 -10447701.50547  -8070113.35247  20792059.3964   20792063.6494
       526.4064        410.1874
   -936812.99042   -154510.22341  24797292.1144   24797296.2744
      2478.0004       1930.9094
 98  6 17 16 12 15.0010000  0  7G 4G 8G 7G 9G 5G24G30
   -171453.36947   -111170.02047  21134379.6774   21134382.7474
     -1893.1414      -1475.1754
  -4705539.84646  -3541660.75546  22186930.7944   22186934.8604
       797.8284        621.6844
  13576670.27541    135971.67541  23793419.2084   23793424.5874
     -3063.8444      -2387.4114
   -617917.53946   -470617.52746  21676759.5754   21676763.0564
     -1701.1414      -1325.5644
 -10937214.35646  -8366763.44346  22077302.1144   22077305.5484
      1603.2974       1249.3224
 -10455526.61047  -8076210.82647  20790570.1534   20790574.8414
       516.8914        402.7724
   -973980.06941   -183471.42041  24790218.3254   24790229.2744
      2477.4844       1930.5074
 98  6 17 16 12 30.0010000  0  7G 4G 8G 7G 9G 5G24G30
   -142979.86747    -88982.87746  21139797.7244   21139801.4034
     -1903.3444      -1483.1254
  -4717427.11846  -3550923.56246  22184668.5914   22184671.8844
       787.0634        613.2954
  13622637.27242    171790.01041  23802166.9034   23802169.2244
     -3065.1724      -2388.4464
   -592325.27747   -450675.50246  21681629.4424   21681633.4624
     -1711.2194      -1333.4174
 -10961236.57146  -8385482.03146  22072730.8564   22072733.8454
      1599.6724       1246.4984
 -10463209.71847  -8082197.66147  20789108.2554   20789112.8724
       507.5314        395.4794
  -1011138.79541   -212426.29641  24783147.8254   24783151.7044
      2476.9064       1930.0574
 98  6 17 16 12 45.0010000  0  7G 4G 8G 7G 9G 5G24G30
   -114355.48147    -66678.17047  21145244.6534   21145248.2394
     -1913.1874      -1490.7954
  -4729151.53546  -3560059.47746  22182437.4194   22182440.3604
       776.1564        604.7974
  13668626.33442    207625.56941  23810918.3254   23810922.1464
     -3066.7194      -2389.6514
   -566581.96047   -430615.78546  21686528.2084   21686531.8644
     -1721.2194      -1341.2094
 -10985204.95446  -8404158.69246  22068169.4744   22068172.3684
      1596.0944       1243.7094
 -10470752.41647  -8088075.07347  20787672.7554   20787677.1034
       498.0944        388.1254
  -1048286.23841   -241372.28941  24776080.2004   24776087.5874
      2476.0314       1929.3754
 98  6 17 16 13  0.0010000  0  7G 4G 8G 7G 9G 5G24G30
    -85584.10347    -44258.91447  21150719.7554   21150723.2124
     -1923.1414      -1498.5514
  -4740709.35346  -3569065.56345  22180237.9664   22180241.6694
       764.7034        595.8734
  13714638.39942    243479.18041  23819673.6144   23819676.3104
     -3068.3914      -2390.9544
   -540687.65946   -410438.43046  21691455.4814   21691459.1734
     -1731.5314      -1349.2454
 -11009119.21646  -8422793.17846  22063618.8494   22063621.8254
      1592.2664       1240.7264
 -10478151.30047  -8093840.42847  20786264.9424   20786269.1034
       488.2664        380.4674
  -1085416.79042   -270305.22641  24769013.8334   24769016.4114
      2474.5164       1928.1944
 98  6 17 16 13 15.0010000  0  7G 4G 8G 7G 9G 5G24G30
    -56665.12047    -21724.64546  21156222.7784   21156226.0014
     -1932.7034      -1506.0024
  -4752095.59946  -3577937.94546  22178070.7634   22178074.4314
       753.4224        587.0824
  13760675.63742    279352.28641  23828433.6774   23828438.9384
     -3069.8914      -2392.1234
   -514637.77446   -390139.81746  21696412.8494   21696416.9624
     -1741.7504      -1357.2084
 -11032975.34746  -8441382.35646  22059078.8804   22059082.2904
      1588.4844       1237.7804
 -10485404.50447  -8099492.26847  20784884.8644   20784888.6144
       478.8134        373.1014
  -1122524.96142   -299220.60041  24761951.9894   24761959.7744
      2473.2194       1927.1834
 98  6 17 16 13 30.0010000  0  8G 4G 8G 7G16G 9G 5G24G30
    -27602.94147       921.20746  21161753.1384   21161755.8804
     -1942.1254      -1513.3444
  -4763312.87646  -3586678.66046  22175936.5674   22175939.9664
       742.3444        578.4504
  13806733.46642    315241.48641  23837200.5674   23837207.9544
     -3071.0784      -2393.0484
      9357.64851                  24982653.0054
      -854.2814
   -488435.13047   -369722.18547  21701399.2314   21701402.7714
     -1751.8914      -1365.1104
 -11056772.26446  -8459925.39046  22054550.7004   22054555.0834
      1584.4384       1234.6274
 -10492515.27447  -8105033.11347  20783531.3334   20783534.9664
       469.3914        365.7594
  -1159614.32841   -328121.36841  24754894.0284   24754899.5244
      2472.0474       1926.2704
 98  6 17 16 13 45.0010000  0  7G 4G 8G 7G 9G 5G24G30
      1599.18647     23676.11046  21167310.1464   21167312.5244
     -1951.4844      -1520.6374
  -4774364.94246  -3595290.66046  22173833.8334   22173837.0094
       731.2664        569.8174
  13852809.32942    351144.69341  23845968.5674   23845975.7204
     -3072.3284      -2394.0224
   -462079.26147   -349185.15647  21706414.7634   21706418.1614
     -1762.2194      -1373.1574
 -11080506.59146  -8478419.65546  22050034.0914   22050038.4744
      1580.1564       1231.2914
 -10499484.01147  -8110463.28147  20782205.2714   20782209.4074
       459.6724        358.1864
  -1196683.18641   -357006.12741  24747839.3334   24747842.0994
      2470.4844       1925.0534
 98  6 17 16 14  0.0010000  0  6G 4G 8G 7G 9G 5G24
     30940.82647     46539.72346  21172893.7634   21172896.3294
     -1960.7974      -1527.8944
  -4785252.20946  -3603774.24946  22171761.7004   22171765.4744
       720.2974        561.2704
  13898902.01442    387061.09641  23854739.4114   23854747.9234
     -3073.4224      -2394.8744
   -435569.42147   -328528.15647  21711459.0914   21711462.7124
     -1772.4844      -1381.1574
 -11104178.21946  -8496865.08046  22045529.3644   22045533.8414
      1576.0314       1228.0764
 -10506306.96047  -8115779.85947  20780907.3334   20780911.3414
       449.9694        350.6254
 98  6 17 16 14 15.0010000  0  6G 4G 8G 7G 9G 5G24
     60421.68447     69511.80946  21178503.7864   21178506.7984
     -1970.0474      -1535.1014
  -4795975.61046  -3612130.14646  22169721.2394   22169724.9314
       709.4384        552.8084
  13945011.36542    422990.44541  23863512.3024   23863519.2434
     -3074.5624      -2395.7634
   -408907.57547   -307752.70147  21716532.6614   21716536.0484
     -1782.4694      -1388.9374
 -11127788.88746  -8515262.99146  22041036.6384   22041041.6774
      1571.9694       1224.9114
 -10512984.48647  -8120983.11647  20779636.2314   20779640.3564
       440.3284        343.1134
 98  6 17 16 14 30.0010000  0  6G 4G 8G 7G 9G 5G24
     90042.09047     92592.64246  21184140.2784   21184143.6534
     -1979.3594      -1542.3584
  -4806536.18246  -3620359.16646  22167711.5054   22167715.0214
       698.5784        544.3474
  13991141.19542    458935.72442  23872291.2084   23872303.4114
     -3076.0784      -2396.9444
   -382095.47147   -286860.16347  21721634.9194   21721638.1424
     -1792.4534      -1396.7174
 -11151336.99446  -8533612.15046  22036555.4744   22036560.2554
      1567.7814       1221.6484
 -10519515.55747  -8126072.24847  20778393.6224   20778397.6534
       430.4534        335.4184
 98  6 17 16 14 45.0010000  0  6G 4G 8G 7G 9G 5G24
    119802.76546    115782.77346  21189803.3564   21189807.3534
     -1988.7974      -1549.7124
  -4816934.12546  -3628461.44045  22165732.2714   22165737.0054
       687.8284        535.9704
  14037291.26742    494896.81442  23881072.9584   23881081.0834
     -3077.2504      -2397.8574
   -355134.17447   -265851.37847  21726765.7474   21726768.9934
     -1802.4224      -1404.4854
 -11174822.47046  -8551912.51546  22032086.3964   22032090.8494
      1563.5634       1218.3604
 -10525897.05047  -8131044.83547  20777179.1614   20777183.1924
       420.4064        327.5894
 98  6 17 16 15  0.0010000  0  7G 4G 8G 7G 9G 5G24G30
    149705.87546    139083.89546  21195493.8964   21195497.6694
     -1998.3914      -1557.1874
  -4827172.79146  -3636439.60546  22163784.3414   22163788.4664
       677.3594        527.8134
  14083457.95042    530870.77841  23889859.2004   23889863.8414
     -3078.2664      -2398.6494
   -328024.63547   -244727.07447  21731924.2944   21731927.3994
     -1812.2504      -1412.1434
 -11198243.00446  -8570162.27746  22027629.9274   22027634.2984
      1559.1414       1214.9154
 -10532128.83047  -8135900.75647  20775993.2164   20775997.1064
       410.4694        319.8464
    -19724.28751                  24712619.7554
      2465.5944
 98  6 17 16 15 15.0010000  0  7G 4G 8G 7G 9G 5G24G30
    179756.45647    162499.93346  21201212.4974   21201215.7204
     -2008.2504      -1564.8704
  -4837256.41346  -3644296.98146  22161865.6924   22161869.4424
       667.2344        519.9234
  14129638.75842    566855.75441  23898646.9814   23898649.5834
     -3079.0784      -2399.2824
   -300767.01647   -223487.37547  21737111.3804   21737114.3564
     -1822.0164      -1419.7524
 -11221597.43746  -8588360.53446  22023185.8254   22023190.2554
      1554.8594       1211.5794
 -10538212.59947  -8140641.34746  20774835.5054   20774839.7824
       400.7974        312.3094
    -56704.07041                  24705583.6534
      2465.1884
 98  6 17 16 15 30.0010000  0  7G 4G 8G 7G 9G 5G24G30
    209956.05847    186032.10146  21206959.1694   21206962.1694
     -2018.3444      -1572.7354
  -4847189.74946  -3652037.23546  22159975.3334   22159978.9784
       657.2344        512.1314
  14175833.87842    602852.02341  23907436.8414   23907434.2744
     -3080.2344      -2400.1834
   -273362.44247   -202133.17047  21742326.2244   21742328.6964
     -1831.9224      -1427.4724
 -11244887.07546  -8606508.28246  22018753.7714   22018757.9424
      1550.4384       1208.1334
 -10544151.31347  -8145268.90547  20773705.3104   20773709.7634
       391.0314        304.7004
    -93679.21242                  24698547.7004
      2464.7814
 98  6 17 16 15 45.0010000  0  7G 4G 8G 7G 9G 5G24G30
    240305.59747    209681.09346  21212734.4354   21212737.9384
     -2028.3124      -1580.5034
  -4856975.63146  -3659662.58146  22158113.0914   22158117.1924
       647.4844        504.5334
  14222043.97741    638859.70841  23916230.6534   23916234.8024
     -3081.2504      -2400.9744
   -245810.82347   -180664.38847  21747569.2634   21747571.7594
     -1841.6564      -1435.0574
 -11268112.63046  -8624606.11046  22014334.0994   22014337.8374
      1546.3134       1204.9194
 -10549944.12047  -8149782.76347  20772603.1224   20772607.7164
       381.3284        297.1394
   -130647.87942                  24691512.4354
      2464.3284
 98  6 17 16 16  0.0010000  0  7G 4G 8G 7G 9G 5G24G30
    270804.97346    233446.82746  21218538.5364   21218542.6614
     -2038.3444      -1588.3204
  -4866613.16146  -3667172.33346  22156279.2474   22156283.2554
       637.5164        496.7654
  14268268.71441    674879.12941  23925026.2314   23925040.7674
     -3082.0624      -2401.6074
   -218115.07047   -159083.28647  21752839.5444   21752842.5214
     -1851.1094      -1442.4234
 -11291278.41946  -8642657.35546  22009925.5834   22009928.7714
      1542.4224       1201.8874
 -10555591.38047  -8154183.21847  20771528.4664   20771532.6854
       371.6564        289.6024
   -167610.59642     -7678.36652  24684478.8174   24684486.5914
      2464.0314       1920.0244
 98  6 17 16 16 15.0010000  0  7G 4G 8G 7G 9G 5G24G30
    301455.07547    257330.01747  21224370.8494   21224374.3174
     -2048.3914      -1596.1494
  -4876101.94546  -3674566.18846  22154473.4814   22154477.8174
       627.6094        489.0464
  14314507.60641    710909.42641  23933825.3494   23933835.0324
     -3083.1564      -2402.4594
   -190278.35247   -137392.34647  21758136.7554   21758139.8494
     -1860.4844      -1449.7284
 -11314385.32246  -8660662.73246  22005528.5914   22005532.1654
      1538.4534       1198.7954
 -10561095.33347  -8158472.00047  20770480.9354   20770484.8134
       362.1884        282.2244
   -204568.72542    -36476.87441  24677446.3254   24677452.7714
      2463.6564       1919.7324
 98  6 17 16 16 30.0010000  0  7G 4G 8G 7G 9G 5G24G30
    332254.62547    281329.66847  21230231.8254   21230234.7554
     -2058.2814      -1603.8564
  -4885444.01046  -3681845.71346  22152695.9504   22152700.9314
       617.9384        481.5104
  14360760.54441                  23942628.1924
     -3084.0474
   -162302.48647   -115592.99447  21763460.3644   21763463.0604
     -1869.7194      -1456.9244
 -11337432.64746  -8678621.68746  22001142.7864   22001146.6184
      1534.4534       1195.6784
 -10566457.74147  -8162650.49047  20769460.8724   20769464.4704
       352.7034        274.8344
   -241521.29642    -65271.09142  24670413.2864   24670418.9584
      2463.3134       1919.4644
 98  6 17 16 16 45.0010000  0  7G 4G 8G 7G 9G 5G24G30
    363201.24846    305443.92146  21236120.7004   21236123.7714
     -2068.0624      -1611.4774
  -4894640.72946  -3689011.96845  22150945.6694   22150949.5014
       608.1724        473.9004
  14407025.75041                  23951431.2864
     -3084.6414
   -134188.57046    -93686.07546  21768810.2944   21768813.2474
     -1878.9064      -1464.0834
 -11360420.33646  -8696534.15646  21996768.4664   21996772.5794
      1530.4534       1192.5614
 -10571676.77147  -8166717.25646  20768467.5754   20768471.3724
       343.0634        267.3214
   -278468.47742    -94061.17441  24663383.1774   24663385.8844
      2462.8594       1919.1114
 98  6 17 16 17  0.0010000  0  7G 4G 8G 7G 9G 5G24G30
    394296.43146    329673.93046  21242038.0134   21242041.2354
     -2077.9374      -1619.1724
  -4903689.76846  -3696063.18346  22149224.0214   22149227.9584
       598.3444        466.2424
  14453298.00442                  23960237.9504
     -3085.0624
   -105935.36347    -71670.58746  21774186.6774   21774190.2634
     -1888.2194      -1471.3394
 -11383346.76846  -8714398.90746  21992405.6774   21992409.9664
      1526.4064       1189.4074
 -10576750.40347  -8170670.71647  20767501.8254   20767505.8214
       333.4064        259.7974
   -315406.89142   -122844.28641  24656353.6774   24656356.6064
      2462.2814       1918.6614
 98  6 17 16 17 15.0010000  0  7G 4G 8G 7G 9G 5G24G30
    425538.83147    354018.65446  21247983.3174   21247986.6344
     -2087.7504      -1626.8184
  -4912589.53846  -3702998.05646  22147529.9274   22147534.3564
       588.2034        458.3404
  14499578.33041                  23969044.1144
     -3085.7814
    -77542.66947    -49546.42547  21779589.6304   21779592.9934
     -1897.5474      -1478.6084
 -11406213.27546  -8732216.94046  21988054.3024   21988058.6614
      1522.4534       1186.3274
 -10581679.14547  -8174511.28847  20766564.1224   20766568.5524
       323.6564        252.2004
   -352335.68842   -151619.97042  24649327.1464   24649335.0604
      2461.4694       1918.0284
 98  6 17 16 17 30.0010000  0  7G 4G 8G 7G 9G 5G24G30
    456925.70646    378475.96846  21253956.0284   21253959.2164
     -2097.0944      -1634.0994
  -4921335.47246  -3709813.05546  22145865.1304   22145869.6184
       577.8284        450.2564
  14545868.76841                  23977853.8644
     -3086.3754
    -49010.50047    -27313.58247  21785019.2314   21785022.3964
     -1906.7974      -1485.8164
 -11429022.13846  -8749990.07146  21983713.9974   21983718.1574
      1518.6724       1183.3814
 -10586460.53947  -8178237.02646  20765654.0674   20765658.8494
       313.8284        244.5414
   -389252.94042   -180386.63941  24642301.0284   24642309.5404
      2460.7814       1917.4924
 98  6 17 16 17 45.0010000  0  7G 4G 8G 7G 9G 5G24G30
    488451.81646    403041.76546  21259955.3104   21259958.8024
     -2106.3594      -1641.3194
  -4929922.70546  -3716504.40246  22144231.6144   22144235.5174
       567.0944        441.8914
  14592170.52841                  23986664.2784
     -3087.1254
    -20338.01647     -4971.40047  21790475.2474   21790478.7864
     -1916.1254      -1493.0844
 -11451772.15946  -8767717.34946  21979384.7634   21979388.8764
      1514.7034       1180.2884
 -10591093.36547  -8181847.01247  20764772.4504   20764777.0794
       303.8754        236.7864
   -426156.10443   -209142.36142  24635278.9744   24635284.7984
      2459.6724       1916.6274
 98  6 17 16 18  0.0010000  0  7G 4G 8G 7G 9G 5G24G30
    520118.04746    427716.74546  21265981.0834   21265984.8804
     -2115.7814      -1648.6614
  -4938344.97946  -3723067.22846  22142629.2554   22142632.7124
       555.8754        433.1494
  14638483.13741                  23995475.6064
     -3087.8444
      8472.82347     17478.60647  21795957.8644   21795961.7084
     -1925.2814      -1500.2194
 -11474461.82546  -8785397.59546  21975066.9114   21975071.0604
      1510.6254       1177.1104
 -10595576.67847  -8185340.48847  20763919.3254   20763923.3804
       293.9534        229.0544
   -463043.85943   -237886.02942  24628258.8964   24628263.8064
      2458.7664       1915.9214
 98  6 17 16 18 15.0010000  0  7G 4G 8G 7G 9G 5G24G30
    551926.98247    452502.93146  21272034.0134   21272037.3294
     -2125.3754      -1656.1364
  -4946597.93846  -3729498.10846  22141058.4504   22141062.3174
       544.5634        424.3344
  14684807.13041                  24004291.8174
     -3088.7344
     37421.90647     40036.31747  21801466.4814   21801470.4074
     -1934.5944      -1507.4764
 -11497087.94046  -8803028.31346  21970761.2164   21970765.2124
      1506.2034       1173.6654
 -10599910.04347  -8188717.12347  20763094.6064   20763098.7904
       283.8594        221.1894
   -499917.22243   -266618.52242  24621242.1464   24621247.8534
      2457.7194       1915.1064
 98  6 17 16 18 30.0010000  0  7G 4G 8G 7G 9G 5G24G30
    583878.76247    477400.42146  21278114.2784   21278117.3604
     -2134.8914      -1663.5514
  -4954682.24946  -3735797.54746  22139519.7164   22139524.5444
       533.3284        415.5804
  14731145.68242                  24013111.3024
     -3089.7664
     66510.23947     62702.53947  21807001.7394   21807005.7244
     -1943.8444      -1514.6834
 -11519648.29246  -8820607.79846  21966468.4194   21966472.1224
      1501.8444       1170.2684
 -10604092.59747  -8191976.24347  20762299.0134   20762302.7634
       273.7664        213.3244
   -536775.75243   -295339.43942  24614228.7084   24614233.5014
      2456.7344       1914.3384
 98  6 17 16 18 45.0010000  0  7G 4G 8G 7G 9G 5G24G30
    615974.70647    502410.24446  21284221.9584   21284225.1574
     -2144.5004      -1671.0394
  -4962595.60646  -3741963.77846  22138014.1384   22138018.8604
       521.8594        406.6444
  14777500.25841                  24021930.6384
     -3090.7814
     95738.16347     85477.52546  21812563.7634   21812567.3724
     -1953.1724      -1521.9524
 -11542142.54646  -8838135.76646  21962187.6614   21962191.5404
      1497.4694       1166.8594
 -10608121.95947  -8195115.99946  20761532.0914   20761535.9114
       263.5944        205.3984
   -573620.50843   -324049.63043  24607217.4584   24607221.8644
      2455.9694       1913.7424
 98  6 17 16 19  0.0010000  0  7G 4G 8G 7G 9G 5G24G30
    648214.65046    527532.27746  21290356.8104   21290360.4544
     -2154.1254      -1678.5394
  -4970336.40146  -3747995.57546  22136541.4114   22136545.2204
       510.3284        397.6584
  14823870.74041                  24030754.7244
     -3091.9224
    125107.18447    108362.46646  21818152.2864   21818156.2824
     -1962.6414      -1529.3304
 -11564570.69146  -8855612.22946  21957919.2634   21957923.4934
      1492.9844       1163.3644
 -10612000.13247  -8198137.93846  20760793.8644   20760798.0364
       253.5944        197.6064
   -610453.14943   -352750.32742  24600208.2784   24600213.2474
      2455.1414       1913.0974
 98  6 17 16 19 15.0010000  0  7G 4G 8G 7G 9G 5G24G30
    680597.42346    552765.59446  21296519.2474   21296523.4664
     -2163.5944      -1685.9174
  -4977905.44646  -3753893.54246  22135100.9354   22135104.4504
       498.8284        388.6974
  14870259.23841                  24039582.2314
     -3093.3754
    154617.44647    131357.46346  21823767.7784   21823771.3294
     -1972.1254      -1536.7214
 -11586931.80546  -8873036.45346  21953664.2714   21953668.8064
      1488.4224       1159.8094
 -10615730.26547  -8201044.52046  20760084.2864   20760088.4814
       243.6414        189.8504
   -647274.48344   -381442.26043  24593201.1464   24593205.3174
      2454.3444       1912.4764
 98  6 17 16 19 30.0010000  0  7G 4G 8G 7G 9G 5G24G30
    713120.21446    578108.01946  21302708.2784   21302711.8174
     -2172.7814      -1693.0764
  -4985303.09646  -3759657.92846  22133693.0134   22133697.0564
       487.5314        379.8944
  14916669.70141                  24048413.4664
     -3094.6724
    184268.51946    154462.17346  21829410.1774   21829413.8334
     -1981.4374      -1543.9774
 -11609224.74746  -8890407.56646  21949422.1614   21949426.7314
      1483.9064       1156.2914
 -10619312.62347  -8203835.96047  20759402.5284   20759406.6184
       233.9534        182.3014
   -684085.63244   -410126.26842  24586196.8334   24586201.7904
      2453.7974       1912.0504
 98  6 17 16 19 45.0010000  0  6G 4G 8G 9G 5G24G30
    745780.53647    603557.64146  21308923.5134   21308926.7824
     -2182.0784      -1700.3214
  -4992531.98846  -3765290.84846  22132317.6854   22132321.2474
       476.2194        371.0804
    214060.55046    177676.74146  21835079.7314   21835083.9854
     -1990.9534      -1551.3924
 -11631449.01846  -8907725.17846  21945193.3564   21945197.4584
      1479.1724       1152.6014
 -10622750.98747  -8206515.19347  20758748.0914   20758752.1344
       224.3914        174.8504
   -720888.80944   -438804.03142  24579193.7004   24579198.8684
      2453.2034       1911.5874
 98  6 17 16 20  0.0010000  0  6G 4G 8G 9G 5G24G30
    778581.71247    629117.00346  21315165.0134   21315168.1774
     -2191.4844      -1707.6504
  -4999593.11146  -3770793.00846  22130973.9974   22130977.4544
       465.2344        362.5204
    243993.86047    201001.38746  21840775.8964   21840779.8334
     -2000.1724      -1558.5754
 -11653602.18846  -8924987.38046  21940977.6224   21940981.4194
      1474.5314       1148.9854
 -10626045.92147  -8209082.65947  20758121.4274   20758125.6574
       214.8914        167.4474
   -757683.30845   -467475.06643  24572191.6224   24572194.8454
      2452.7504       1911.2344
 98  6 17 16 20 15.0010000  0  6G 4G 8G 9G 5G24G30
    811524.93547    654787.05046  21321433.9034   21321437.3024
     -2200.8444      -1714.9434
  -5006490.96646  -3776167.96046  22129661.2554   22129664.5244
       454.5784        354.2174
    274065.20146    224433.58246  21846498.4114   21846502.0324
     -2009.3754      -1565.7474
 -11675684.68646  -8942194.51246  21936775.3564   21936779.3534
      1469.8594       1145.3454
 -10629197.65447  -8211538.54547  20757521.2714   20757525.8174
       205.3444        160.0084
   -794471.67545   -496141.30542  24565191.1534   24565197.3764
      2452.3754       1910.9424
 98  6 17 16 20 30.0010000  0  6G 4G 8G 9G 5G24G30
    844606.61647    680564.96846  21327729.1064   21327732.6104
     -2210.0474      -1722.1144
  -5013230.25446  -3781419.35446  22128378.9034   22128383.1464
       443.9694        345.9504
    304276.66946    247974.97546  21852247.4584   21852251.5014
     -2018.8594      -1573.1374
 -11697697.97546  -8959347.70346  21932586.2314   21932590.2514
      1465.2814       1141.7784
 -10632204.34747  -8213881.41047  20756949.3964   20756953.8604
       195.5634        152.3864
   -831252.64945   -524801.83442  24558191.8804   24558196.4624
      2451.7344       1910.4424
 98  6 17 16 20 45.0010000  0  6G 4G 8G 9G 5G24G30
    877825.25647    706449.61746  21334050.6064   21334054.3334
     -2219.1414      -1729.2004
  -5019810.12146  -3786546.51546  22127126.5134   22127130.1344
       433.2664        337.6104
    334630.41347    271627.24446  21858023.6534   21858027.7434
     -2028.3594      -1580.5404
 -11719644.05246  -8976448.53346  21928410.1694   21928414.3994
      1460.8444       1138.3204
 -10635064.30447  -8216109.93547  20756405.0284   20756409.2124
       185.7664        144.7524
   -868023.66745   -553454.54542  24551194.8804   24551198.1144
      2450.9844       1909.8584
 98  6 17 16 21  0.0010000  0  6G 4G 8G 9G 5G24G30
    911177.88747    732438.66646  21340397.4744   21340400.5914
     -2227.9374      -1736.0554
  -5026230.53646  -3791549.42046  22125905.0524   22125908.6264
       422.7194        329.3914
    365125.61146    295389.71346  21863826.6854   21863831.1034
     -2037.7814      -1587.8814
 -11741525.30946  -8993498.85646  21924246.7394   21924250.8534
      1456.6094       1135.0204
 -10637779.26247  -8218225.47547  20755888.5834   20755892.9894
       176.1884        137.2894
   -904783.47745   -582098.49642  24544199.4894   24544205.4784
      2450.2194       1909.2614
 98  6 17 16 21 15.0010000  0  6G 4G 8G 9G 5G24G30
    944660.70847    758529.18347  21346769.2394   21346771.9354
     -2236.5314      -1742.7524
  -5032494.44746  -3796430.40146  22124712.9584   22124716.4624
       412.3754        321.3314
    395760.48246    319261.03646  21869656.3334   21869661.0324
     -2046.9064      -1594.9924
 -11763344.70446  -9010500.96946  21920094.0284   21920098.1304
      1452.5634       1131.8674
 -10640352.12147  -8220230.28447  20755398.7474   20755402.6614
       166.7814        129.9594
   -941532.00344   -610733.66342  24537205.8644   24537210.7864
      2449.5004       1908.7014
 98  6 17 16 21 30.0010000  0  7G 4G 8G 7G 9G 5G24G30
    978273.76847    784721.18247  21353165.3494   21353168.2904
     -2245.2664      -1749.5584
  -5038601.51146  -3801189.13846  22123551.0834   22123554.7164
       401.8914        313.1624
     34131.54251                  24119197.8174
     -3103.4694
    426531.93646    343238.78946  21875511.9354   21875516.0954
     -2055.9534      -1602.0414
 -11785103.45546  -9027455.82346  21915953.5604   21915957.9314
      1448.5784       1128.7624
 -10642782.88947  -8222124.37847  20754936.3104   20754940.2594
       157.3444        122.6064
   -978268.16343   -639359.24642  24530215.3884   24530220.9664
      2448.6254       1908.0194
 98  6 17 16 21 45.0010000  0  7G 4G 8G 7G 9G 5G24G30
   1012019.54547    811016.59446  21359586.8644   21359590.5564
     -2254.2974      -1756.5954
  -5044551.84046  -3805825.75546  22122418.7244   22122421.8644
       391.3914        304.9804
     80687.13941                  24128058.3414
     -3104.0314
    457438.25546    367321.60746  21881393.3414   21881397.1614
     -2064.9374      -1609.0424
 -11806802.11146  -9044363.85546  21911824.4274   21911828.2354
      1444.5004       1125.5844
 -10645073.31147  -8223909.11647  20754500.6304   20754504.6264
       147.9534        115.2884
  -1014991.50243   -667974.80942  24523226.8724   24523232.7314
      2447.6884       1907.2894
 98  6 17 16 22  0.0010000  0  7G 4G 8G 7G 9G 5G24G30
   1045901.94347    837418.44546  21366034.4814   21366038.3724
     -2263.4064      -1763.6934
  -5050345.07546  -3810339.97146  22121316.3964   22121319.7354
       380.9694        296.8594
    127251.00341                  24136919.0364
     -3104.5164
    488477.26546    391507.83646  21887299.7084   21887303.8924
     -2073.5944      -1615.7874
 -11828439.09746  -9061223.84346  21907707.0214   21907710.2674
      1440.3914       1122.3824
 -10647221.52547  -8225583.03447  20754091.7554   20754095.6924
       138.3594        107.8134
  -1051700.08243   -696578.82542  24516241.7244   24516246.8924
      2446.7504       1906.5584
 98  6 17 16 22 15.0010000  0  7G 4G 8G 7G 9G 5G24G30
   1079921.13447    863926.89646  21372508.0754   21372511.4034
     -2272.3594      -1770.6704
  -5055981.84546  -3814732.26846  22120243.8334   22120247.2434
       370.6414        288.8114
    173820.73841                  24145783.9744
     -3104.6724
    519644.94147    415794.33147  21893230.7784   21893234.9154
     -2082.0474      -1622.3744
 -11850014.62946  -9078035.94446  21903601.3884   21903604.2824
      1436.4534       1119.3144
 -10649224.22647  -8227143.56747  20753710.4584   20753714.7824
       128.7814        100.3494
  -1088393.93043   -725171.42142  24509259.4584   24509263.8994
      2445.7974       1905.8164
 98  6 17 16 22 30.0010000  0  7G 4G 8G 7G 9G 5G24G30
   1114074.41047    890539.83647  21379007.5214   21379010.4854
     -2281.3444      -1777.6704
  -5061462.49346  -3819002.89646  22119200.2784   22119204.1814
       360.1094        280.6054
    220394.41841                  24154640.8964
     -3105.1874
    550942.42247    440181.96447  21899186.3644   21899189.9154
     -2091.0004      -1629.3514
 -11871530.28746  -9094801.40146  21899507.4114   21899511.0444
      1432.3284       1116.1004
 -10651083.10147  -8228592.03346  20753356.7004   20753360.9784
       119.0784         92.7884
  -1125072.20043   -753751.88842  24502279.5754   24502287.2434
      2444.6254       1904.9034
 98  6 17 16 22 45.0010000  0  7G 4G 8G 7G 9G 5G24G30
   1148360.96747    917256.63847  21385532.0364   21385534.7674
     -2290.2664      -1784.6234
  -5066786.44646  -3823151.42846  22118187.3804   22118191.5634
       349.6724        272.4724
    266974.82141                  24163504.4194
     -3105.6724
    582372.65447    464673.04346  21905167.4974   21905170.7314
     -2099.7034      -1636.1324
 -11892985.60046  -9111519.79646  21895424.3024   21895428.4384
      1428.2814       1112.9464
 -10652799.02847  -8229929.10347  20753030.1694   20753034.2714
       109.7194         85.4954
  -1161733.67343   -782319.20042  24495303.5054   24495306.7284
      2443.5314       1904.0504
 98  6 17 16 23  0.0010000  0  8G 4G 8G 7G16G 9G 5G24G30
   1182783.39947    944079.30546  21392081.9424   21392085.0834
     -2299.4374      -1791.7694
  -5071952.64746  -3827177.04246  22117204.4664   22117208.6034
       339.1564        264.2784
    313564.18841                  24172374.2244
     -3106.3594
      8414.13451                  25094569.5754
     -1204.3914
    613933.24946    489265.70346  21911173.1304   21911176.9384
     -2108.3914      -1642.9024
 -11914376.25646  -9128187.84646  21891353.9894   21891357.6694
      1423.7974       1109.4524
 -10654374.38847  -8231156.65647  20752730.4584   20752734.7124
       100.2974         78.1534
  -1198378.39443   -810873.54742  24488329.3724   24488333.6264
      2442.4064       1903.1744
 98  6 17 16 23 15.0010000  0  8G 4G 8G 7G16G 9G 5G24G30
   1217343.38147    971009.14646  21398658.7634   21398662.2904
     -2308.5474      -1798.8684
  -5076961.94246  -3831080.38646  22116251.1304   22116254.9154
       328.7814        256.1934
    360163.35041                  24181240.1224
     -3106.9064
     26547.91741                  25098015.5364
     -1213.5164
    645623.65247    513959.51046  21917203.5834   21917207.1344
     -2116.9844      -1649.5984
 -11935699.67846  -9144803.48746  21887296.2714   21887300.0564
      1419.3134       1105.9584
 -10655807.90047  -8232273.66647  20752457.5604   20752461.5674
        90.8594         70.8004
  -1235006.02743   -839414.51642  24481359.2714   24481365.8334
      2441.3284       1902.3344
 98  6 17 16 23 30.0010000  0  7G 4G 8G 7G 9G 5G24G30
   1252041.01247    998046.25946  21405261.3024   21405264.7124
     -2317.8594      -1806.1244
  -5081815.68146  -3834862.51446  22115327.5214   22115331.3414
       318.3134        248.0364
    406771.67542                  24190108.8494
     -3107.5944
    677442.11047    538753.08946  21923258.3174   21923262.0914
     -2125.5164      -1656.2464
 -11956953.39346  -9161364.82346  21883251.6144   21883255.7514
      1414.4534       1102.1714
 -10657099.07847  -8233279.77247  20752211.8724   20752215.9744
        81.2504         63.3124
  -1271618.11943   -867943.38642  24474392.2554   24474395.3374
      2440.2504       1901.4944
 98  6 17 16 23 45.0010000  0  7G 4G 8G 7G 9G 5G24G30
   1286878.57347   1025192.41146  21411891.0054   21411894.0994
     -2327.2034      -1813.4054
  -5086512.18246  -3838522.12746  22114433.7084   22114437.6464
       307.7974        239.8424
    453389.48041                  24198979.4424
     -3108.1724
    709389.99746    563647.51546  21929338.1464   21929342.4584
     -2134.2814      -1663.0764
 -11978133.66946  -9177868.93046  21879221.1774   21879225.2204
      1409.4844       1098.3004
 -10658245.84447  -8234173.34447  20751993.8884   20751998.2944
        71.5474         55.7514
  -1308213.88743   -896459.58142  24467428.9034   24467435.3964
      2439.1564       1900.6414
 98  6 17 16 24  0.0010000  0  7G 4G 8G 7G 9G 5G24G30
   1321855.29147   1052446.98146  21418546.9114   21418550.3924
     -2336.2974      -1820.4914
  -5091051.29446  -3842059.09646  22113569.8564   22113574.0524
       297.4534        231.7824
    500017.26142      9686.13351  24207853.3564   24207851.5054
     -3108.7194      -2422.3784
    741471.04647    588645.72946  21935442.8254   21935446.7284
     -2143.1414      -1669.9804
 -11999238.67746  -9194314.37246  21875204.9974   21875209.1104
      1404.6254       1094.5134
 -10659244.79447  -8234951.73147  20751803.6384   20751808.1964
        61.6884         48.0684
  -1344792.97643   -924962.76542  24460467.5754   24460475.1614
      2438.0784       1899.8014
 98  6 17 16 24 15.0010000  0  7G 4G 8G 7G 9G 5G24G30
   1356968.08147   1079807.59247  21425228.4354   21425231.4934
     -2345.3914      -1827.5774
  -5095433.63646  -3845473.90946  22112735.7634   22112739.5604
       286.8754        223.5394
    546652.33041                  24216728.0674
     -3109.2344
    773686.82047    613748.90047  21941573.3414   21941576.7044
     -2152.2814      -1677.1024
 -12020272.83246  -9210704.61546  21871202.5674   21871206.6344
      1400.0164       1090.9214
 -10660094.48447  -8235613.80947  20751642.0134   20751646.3724
        51.6564         40.2524
  -1381355.66343   -953453.02842  24453510.3884   24453516.4464
      2436.9694       1898.9374
 98  6 17 16 24 30.0010000  0  7G 4G 8G 7G 9G 5G24G30
   1392216.61947   1107273.97847  21431936.0524   21431939.3334
     -2354.4064      -1834.6024
  -5099656.92346  -3848764.76746  22111932.0444   22111936.2044
       276.2344        215.2484
    593294.91341                  24225602.0214
     -3109.8444
    806041.41947    638960.25647  21947730.5364   21947734.0524
     -2161.6724      -1684.4204
 -12041239.11746  -9227041.97446  21867212.8104   21867216.8764
      1395.4694       1087.3784
 -10660795.39147  -8236159.95347  20751508.5054   20751512.7124
        41.7814         32.5574
  -1417901.67643   -981930.42742  24446555.6614   24446562.7314
      2435.8594       1898.0724
 98  6 17 16 24 45.0010000  0  7G 4G 8G16G 9G 5G24G30
   1427600.12247   1134845.53146  21438669.3104   21438672.6614
     -2363.4694      -1841.6644
  -5103719.60646  -3851930.50146  22111159.5054   22111163.0564
       265.3594        206.7744
     13953.59051                  25119297.1384
     -1272.6094
    838535.92847    664280.64247  21953914.0754   21953917.7784
     -2170.9374      -1691.6404
 -12062136.73446  -9243325.82546  21863235.9194   21863239.2714
      1390.8134       1083.7504
 -10661347.42547  -8236590.10547  20751403.4894   20751407.8964
        31.7814         24.7654
  -1454432.10543  -1010395.68342  24439603.9194   24439611.4814
      2434.8284       1897.2694
 98  6 17 16 25  0.0010000  0  7G 4G 8G16G 9G 5G24G30
   1463118.81747   1162522.42446  21445428.4584   21445431.4584
     -2372.4374      -1848.6534
  -5107619.53946  -3854969.42246  22110416.9814   22110420.5094
       254.5004        198.3124
     33117.75341                  25122944.7634
     -1282.6874
    871165.42547    689706.20346  21960122.9744   21960126.7944
     -2179.7504      -1698.5064
 -12082966.64746  -9259556.91846  21859272.0214   21859275.6884
      1386.4384       1080.3414
 -10661751.13547  -8236904.67447  20751326.7004   20751330.4744
        21.9384         17.0944
  -1490949.41843  -1038850.72942  24432655.4744   24432660.5244
      2434.0944       1896.6964
 98  6 17 16 25 15.0010000  0  7G 4G 8G16G 9G 5G24G30
   1498773.12847   1190304.99646  21452213.4424   21452216.2674
     -2381.4374      -1855.6664
  -5111353.96546  -3857879.36946  22109706.5674   22109710.6344
       243.4534        189.7044
     52433.91141                  25126619.4354
     -1292.8594
    903930.09646    715237.10146  21966357.9664   21966361.7864
     -2188.9064      -1705.6414
 -12103732.00346  -9275737.71346  21855320.7314   21855323.9894
      1382.3134       1077.1274
 -10662005.13947  -8237102.58247  20751278.2314   20751281.8644
        11.9384          9.3024
  -1527455.48643  -1067296.92642  24425708.7784   24425717.9114
      2433.3754       1896.1364
 98  6 17 16 25 30.0010000  0  6G 4G 8G 9G 5G24G30
   1534561.93847   1218192.38447  21459023.7004   21459026.1854
     -2390.3594      -1862.6184
  -5114921.19846  -3860659.02246  22109027.9814   22109032.1884
       232.2194        180.9504
    936833.36346    740875.99746  21972619.1064   21972622.8924
     -2198.1724      -1712.8614
 -12124434.29146  -9291869.35346  21851381.0994   21851384.4504
      1378.0164       1073.7784
 -10662108.69947  -8237183.27447  20751258.5994   20751262.6884
         1.9534          1.5224
  -1563949.48142  -1095733.88641  24418762.4504   24418770.1654
      2432.5004       1895.4554
 98  6 17 16 25 45.0010000  0  7G 4G 8G 7G 9G 5G24G30
   1570482.88047   1246182.72547  21465859.2784   21465862.1384
     -2399.0474      -1869.3874
  -5118321.32346  -3863308.46746  22108380.3644   22108384.9704
       221.1094        172.2934
     21786.48551                  24270007.8804
     -3113.0944
    969873.52847    766621.56646  21978906.5444   21978910.0954
     -2207.2194      -1719.9114
 -12145073.54446  -9307951.87146  21847453.7714   21847457.2044
      1373.9694       1070.6254
 -10662065.33347  -8237149.48247  20751267.0134   20751271.2084
        -7.7664         -6.0514
  -1600432.24042  -1124162.02341  24411821.1694   24411827.6034
      2431.7814       1894.8944
 98  6 17 16 26  0.0010000  0  7G 4G 8G 7G 9G 5G24G30
   1606532.98347   1274273.70847  21472719.3254   21472722.8064
     -2407.5624      -1876.0234
  -5121553.61046  -3865827.11846  22107765.9664   22107769.9854
       209.8594        163.5274
     68490.81441                  24278894.4354
     -3114.0784
   1003051.32847    792474.37946  21985220.1774   21985223.4934
     -2216.3594      -1727.0334
 -12165654.40446  -9323988.89046  21843537.2004   21843540.4464
      1370.2194       1067.7034
 -10661875.19047  -8237001.30847  20751302.9274   20751306.9354
       -17.5624        -13.6854
  -1636902.30242  -1152580.20341  24404880.8884   24404887.8534
      2430.9224       1894.2254
 98  6 17 16 26 15.0010000  0  7G 4G 8G 7G 9G 5G24G30
   1642710.07147   1302463.63447  21479603.5914   21479607.2824
     -2416.1254      -1882.6954
  -5124618.19046  -3868215.10646  22107182.4114   22107185.9624
       198.6884        154.8214
    115210.95741                  24287788.0674
     -3115.2194
   1036363.87947    818432.18846  21991559.5754   21991563.0564
     -2225.2814      -1733.9854
 -12186179.82346  -9339982.71746  21839631.4974   21839634.3564
      1366.5004       1064.8054
 -10661538.69847  -8236739.09447  20751366.9274   20751370.9584
       -27.2814        -21.2584
  -1673360.32242  -1180988.96341  24397943.0284   24397950.4744
      2430.0944       1893.5804
 98  6 17 16 26 30.0010000  0  7G 4G 8G 7G 9G 5G24G30
   1679014.01747   1330752.41647  21486511.9194   21486515.0134
     -2424.4844      -1889.2094
  -5127515.36446  -3870472.63146  22106631.0444   22106634.4894
       187.5314        146.1284
    161946.62142                  24296682.2394
     -3116.2974
   1069807.35947    844492.03046  21997923.4814   21997926.7864
     -2233.9064      -1740.7064
 -12206649.82746  -9355933.36746  21835736.4664   21835739.3964
      1362.7034       1061.8474
 -10661058.26147  -8236364.71247  20751458.2474   20751462.5484
       -36.8444        -28.7094
  -1709806.92742  -1209388.96642  24391006.8334   24391007.6184
      2429.3444       1892.9954
 98  6 17 16 26 45.0010000  0  7G 4G 8G 7G 9G 5G24G30
   1715443.48547   1359138.99547  21493444.1144   21493447.1264
     -2432.7974      -1895.6864
  -5130244.07346  -3872598.89946  22106111.6064   22106114.3964
       176.3134        137.3864
    208700.76342                  24305579.0284
     -3117.6254
   1103380.41547    870652.83546  22004312.5054   22004315.7394
     -2242.4844      -1747.3904
 -12227057.93046  -9371835.76846  21831852.7864   21831855.9744
      1358.3594       1058.4624
 -10660433.66847  -8235877.99947  20751577.2244   20751581.9704
       -46.4534        -36.1974
  -1746239.73542  -1237778.07942  24384075.2554   24384079.2514
      2428.2974       1892.1794
 98  6 17 16 27  0.0010000  0  7G 4G 8G 7G 9G 5G24G30
   1751998.12147   1387623.11546  21500400.3254   21500403.3254
     -2441.1254      -1902.1754
  -5132804.10446  -3874593.74546  22105624.3964   22105626.9274
       165.0944        128.6444
    255474.74041                  24314477.4354
     -3118.8124
   1137081.78047    896913.61447  22010725.4664   22010728.3844
     -2251.0004      -1754.0264
 -12247401.06346  -9387687.55546  21827981.4894   21827984.6184
      1354.1254       1055.1624
 -10659665.18847  -8235279.17147  20751723.2944   20751727.9114
       -55.9534        -43.6004
  -1782654.56843  -1266153.22442  24377145.8644   24377148.0564
      2427.0164       1891.1814
 98  6 17 16 27 15.0010000  0  7G 4G 8G 7G 9G 5G24G30
   1788678.82247   1416205.47146  21507380.7084   21507383.6964
     -2449.6724      -1908.8354
  -5135197.27546  -3876458.56046  22105169.1144   22105172.8884
       153.9844        119.9884
    302265.49941                  24323382.6384
     -3119.9374
   1170912.38647    923275.11147  22017163.3104   22017166.2514
     -2259.8444      -1760.9174
 -12267680.05146  -9403489.36246  21824122.7474   21824125.3134
      1349.6564       1051.6804
 -10658753.26847  -8234568.57347  20751897.1144   20751901.3804
       -65.7034        -51.1974
  -1819048.17643  -1294511.87042  24370220.3414   24370222.2394
      2425.3914       1889.9154
 98  6 17 16 27 30.0010000  0  7G 4G 8G 7G 9G 5G24G30
   1825486.39147   1444886.68546  21514384.6924   21514387.3644
     -2457.9844      -1915.3124
  -5137426.06446  -3878195.27446  22104745.1694   22104749.4704
       143.1724        111.5634
    349072.79241                  24332290.6534
     -3121.0314
   1204874.38447    949738.97847  22023625.8494   22023628.7434
     -2268.3754      -1767.5654
 -12287890.89146  -9419238.06646  21820276.4664   21820279.5604
      1345.0314       1048.0764
 -10657696.22047  -8233744.89347  20752098.1774   20752102.0674
       -75.2504        -58.6364
  -1855417.24744  -1322851.32742  24363299.3884   24363303.0324
      2423.7664       1888.6494
 98  6 17 16 27 45.0010000  0  7G 4G 8G 7G 9G 5G24G30
   1862419.30847   1473665.57946  21521412.7944   21521415.2084
     -2466.4224      -1921.8874
  -5139492.74046  -3879805.66446  22104351.8494   22104356.1614
       132.4224        103.1864
    395898.24441                  24341199.8494
     -3122.1874
   1238962.70947    976301.29446  22030112.7244   22030115.6534
     -2276.7344      -1774.0794
 -12308029.53746  -9434930.50146  21816443.8724   21816446.9894
      1340.1564       1044.2784
 -10656494.31447  -8232808.33547  20752326.8254   20752330.4814
       -84.9844        -66.2224
  -1891760.37843  -1351170.57242  24356382.2394   24356387.0214
      2422.0164       1887.2854
 98  6 17 16 28  0.0010000  0  7G 4G 8G 7G 9G 5G24G30
   1899479.79247   1502543.86746  21528465.0524   21528467.9584
     -2475.0164      -1928.5844
  -5141398.06046  -3881290.32146  22103989.0604   22103993.2204
       121.5784         94.7364
    442738.02042                  24350115.1304
     -3123.0624
   1273176.81147   1002961.61646  22036623.4584   22036626.6104
     -2285.1564      -1780.6414
 -12328095.85346  -9450566.57746  21812625.5914   21812628.4854
      1335.3284       1040.5154
 -10655145.86947  -8231757.58647  20752583.5914   20752587.5054
       -94.8754        -73.9294
  -1928078.69444  -1379470.54442  24349471.9584   24349477.2904
      2420.4064       1886.0314
 98  6 17 16 28 15.0010000  0  8G 4G 8G 7G16G 9G 5G24G30
   1936671.09147   1531524.08646  21535542.8254   21535545.8724
     -2483.8754      -1935.4874
  -5143140.53946  -3882648.09546  22103657.9744   22103662.4274
       110.7344         86.2874
    489588.36142                  24359030.0524
     -3123.6564
     11184.52851                  25172799.5754
     -1400.7194
   1307517.92247   1029720.90646  22043158.4354   22043161.2244
     -2293.5944      -1787.2164
 -12348087.74446  -9466144.66346  21808821.4274   21808824.4154
      1330.1884       1036.5104
 -10653648.93147  -8230591.13047  20752868.1534   20752872.1734
      -104.6564        -81.5504
  -1964372.94144  -1407751.73043  24342564.6774   24342571.7474
      2418.8914       1884.8504
 98  6 17 16 28 30.0010000  0  8G 4G 8G 7G16G 9G 5G24G30
   1973997.12647   1560609.31046  21542645.2554   21542648.2674
     -2492.8594      -1942.4884
  -5144721.23146  -3883879.80446  22103356.7244   22103361.2714
       100.0474         77.9594
    536446.80641                  24367946.8414
     -3124.1414
     32261.88341                  25176807.2784
     -1409.6724
   1341985.46947   1056578.72646  22049717.4354   22049720.3414
     -2302.0474      -1793.8034
 -12368001.14546  -9481661.57846  21805031.7004   21805034.9934
      1324.9844       1032.4554
 -10652006.20347  -8229311.07747  20753180.9274   20753185.3564
      -114.3124        -89.0754
  -2000644.68644  -1436015.43243  24335662.9664   24335668.5674
      2417.3594       1883.6574
 98  6 17 16 28 45.0010000  0  7G 4G 8G 7G 9G 5G24G30
   2011457.56346   1589799.24246  21549773.5604   21549777.0404
     -2501.9064      -1949.5374
  -5146139.83046  -3884985.21246  22103086.8564   22103091.1344
        89.1254         69.4484
    583315.55642                  24376865.7554
     -3124.9844
   1376581.36647   1083536.55246  22056300.6924   22056303.7164
     -2310.7344      -1800.5724
 -12387835.58346  -9497116.98146  21801257.3024   21801260.3024
      1319.5944       1028.2554
 -10650218.77147  -8227918.25947  20753520.7784   20753525.5014
      -124.0164        -96.6364
  -2036892.17744  -1464260.21643  24328766.1064   24328770.7004
      2415.6724       1882.3424
 98  6 17 16 29  0.0010000  0  8G 4G 8G 7G16G 9G 5G24G30
   2049055.13147   1619096.03146  21556928.0604   21556931.4934
     -2511.1254      -1956.7214
  -5147396.27946  -3885964.26946  22102847.8884   22102852.3534
        78.4534         61.1324
    630196.58142                  24385787.2554
     -3125.8284
      2854.04251                  25184907.7314
     -1428.6094
   1411307.67547   1110595.99246  22062909.0444   22062911.6924
     -2319.4534      -1807.3664
 -12407589.35046  -9512509.52146  21797498.5674   21797501.8844
      1314.2814       1024.1154
 -10648286.19247  -8226412.34347  20753888.6064   20753893.1774
      -133.6874       -104.1724
  -2073114.75344  -1492485.55643  24321872.0834   24321875.7514
      2414.0474       1881.0754
 98  6 17 16 29 15.0010000  0  7G 4G 8G 7G 9G 5G24G30
   2086793.17347   1648502.29546  21564109.6144   21564113.0014
     -2520.6564      -1964.1484
  -5148492.11446  -3886818.15346  22102638.9354   22102643.2244
        67.6254         52.6954
    677091.36441                  24394709.5834
     -3126.8594
   1446165.87847   1137758.21146  22069542.1304   22069544.5094
     -2328.3284      -1814.2824
 -12427263.30646  -9527839.86646  21793754.7244   21793758.7434
      1308.8284       1019.8664
 -10646207.28547  -8224792.40447  20754284.2004   20754288.7244
      -143.5314       -111.8434
  -2109314.58444  -1520693.17543  24314983.9354   24314987.5794
      2412.5784       1879.9314
 98  6 17 16 29 30.0010000  0  6G 4G 8G 9G 5G24G30
   2124672.60347   1678018.72646  21571317.9584   21571321.3564
     -2530.0004      -1971.4294
  -5149427.64246  -3887547.12646  22102461.1384   22102465.4504
        56.9844         44.4034
   1481155.94347   1165023.17646  22076201.2004   22076203.6384
     -2337.1094      -1821.1244
 -12446854.46446  -9543105.70046  21790026.4354   21790030.4544
      1303.2504       1015.5194
 -10643981.32447  -8223057.87347  20754707.9194   20754712.4664
      -153.3444       -119.4894
  -2145494.85544  -1548885.56543  24308098.6464   24308104.7394
      2411.3914       1879.0064
 98  6 17 16 29 45.0010000  0  7G 4G 8G16G 9G 5G24G30
   2162692.22747   1707644.40546  21578552.9584   21578555.9814
     -2539.3444      -1978.7094
  -5150200.86646  -3888149.65046  22102314.2714   22102318.5244
        46.0164         35.8564
      8734.39651                  25197269.2634
     -1458.1094
   1516278.74047   1192391.56646  22082884.7714   22082886.9504
     -2346.0944      -1828.1254
 -12466360.74446  -9558305.39946  21786314.6774   21786318.6384
      1297.5004       1011.0394
 -10641606.68947  -8221207.50946  20755159.5914   20755164.4314
      -163.3594       -127.2934
  -2181656.96944  -1577063.83343  24301218.0834   24301223.9074
      2410.1094       1878.0074
 98  6 17 16 30  0.0010000  0  7G 4G 8G16G 9G 5G24G30
   2200850.79347   1737378.35146  21585814.3644   21585817.2354
     -2548.5004      -1985.8444
  -5150809.81346  -3888624.14446  22102198.1304   22102202.3604
        35.1094         27.3584
     30681.17941                  25201446.4114
     -1468.2034
   1551538.12947   1219866.41046  22089594.3174   22089597.0604
     -2355.2504      -1835.2604
 -12485782.88046  -9573439.52346  21782618.8884   21782622.3924
      1292.0784       1006.8144
 -10639082.07147  -8219240.26846  20755640.1694   20755644.6344
      -173.2974       -135.0374
  -2217800.52943  -1605227.58942  24294339.5754   24294345.2124
      2409.0474       1877.1794
 98  6 17 16 30 15.0010000  0  6G 4G 8G 9G 5G24G30
   2239147.81847   1767220.18646  21593101.6144   21593104.8134
     -2557.7344      -1993.0404
  -5151253.22646  -3888969.66446  22102114.0994   22102117.7434
        24.0474         18.7384
   1586937.04347   1247449.95846  22096330.1384   22096332.7514
     -2364.5944      -1842.5414
 -12505122.75147  -9588509.54746  21778938.4114   21778941.5284
      1286.5634       1002.5164
 -10636407.74347  -8217156.36246  20756148.9504   20756153.0174
      -183.2664       -142.8044
  -2253925.92943  -1633377.23842  24287465.4354   24287470.0284
      2407.6884       1876.1204
 98  6 17 16 30 30.0010000  0  6G 4G 8G 9G 5G24G30
   2277581.78447   1797168.72046  21600415.6224   21600419.1264
     -2566.7034      -2000.0284
  -5151531.97846  -3889186.87946  22102061.0134   22102063.7314
        13.1254         10.2274
   1622476.18447   1275142.77446  22103093.3104   22103096.5674
     -2373.9224      -1849.8094
 -12524379.05947  -9603514.45946  21775274.3254   21775277.6304
      1281.0164        998.1944
 -10633584.14147  -8214956.13946  20756686.4194   20756690.8254
      -193.2194       -150.5604
  -2290030.42543  -1661510.58342  24280593.6614   24280596.7084
      2406.2814       1875.0244
 98  6 17 16 30 45.0010000  0  6G 4G 8G 9G 5G24G30
   2316148.19547   1827220.45746  21607754.5444   21607758.1774
     -2575.5004      -2006.8834
  -5151645.91046  -3889275.65346  22102039.1694   22102042.2044
         2.0474          1.5954
   1658155.00246   1302944.42246  22109882.4274   22109886.0834
     -2383.2974      -1857.1144
 -12543553.31246  -9618455.42146  21771625.5284   21771628.8924
      1275.4844        993.8844
 -10630608.82647  -8212637.70946  20757252.5364   20757256.8134
      -203.5474       -158.6084
  -2326112.71742  -1689626.59542  24273727.4894   24273733.1854
      2404.6254       1873.7344
 98  6 17 16 31  0.0010000  0  6G 4G 8G 9G 5G24G30
   2354844.88647   1857373.71146  21615118.5054   21615122.1854
     -2584.1094      -2013.5924
  -5151595.02246  -3889236.00546  22102048.7714   22102052.5564
        -8.8444         -6.8914
   1693973.24846   1330854.71046  22116698.3564   22116702.0014
     -2392.4694      -1864.2614
 -12562643.73646  -9633331.07846  21767992.9194   21767996.4234
      1269.8284        989.4764
 -10627478.25447  -8210198.29847  20757848.4894   20757852.6614
      -213.9534       -166.7174
  -2362173.05043  -1717725.57942  24266865.8964   24266868.3334
      2403.3284       1872.7234
 98  6 17 16 31 15.0010000  0  6G 4G 8G 9G 5G24G30
   2393670.89347   1887627.72946  21622506.7244   21622509.9934
     -2592.6094      -2020.2154
  -5151379.21046  -3889067.83546  22102089.4114   22102092.6924
       -19.9694        -15.5604
   1729930.61646   1358873.42046  22123541.2474   22123544.7284
     -2401.8284      -1871.5544
 -12581647.95846  -9648139.55846  21764376.0834   21764379.8454
      1264.0944        985.0084
 -10624190.14347  -8207636.13146  20758473.8024   20758478.2204
      -224.4534       -174.8994
  -2398212.92143  -1745808.48642  24260008.3494   24260014.4664
      2401.9844       1871.6764
 98  6 17 16 31 30.0010000  0  6G 4G 8G 9G 5G24G30
   2432622.15547   1917979.35546  21629919.0364   21629921.6494
     -2600.9534      -2026.7174
  -5150995.23346  -3888768.62846  22102162.3644   22102166.5604
       -31.2974        -24.3874
   1766027.23746   1387000.64146  22130410.1144   22130413.1854
     -2411.1254      -1878.7994
 -12600566.21647  -9662881.05046  21760776.0914   21760779.5954
      1258.2664        980.4674
 -10620745.10847  -8204951.68046  20759129.5284   20759134.2164
      -234.9694       -183.0934
  -2434232.40143  -1773875.63542  24253152.9034   24253158.6574
      2400.5314       1870.5444
 98  6 17 16 31 45.0010000  0  7G 4G 8G 7G 9G 5G24G30
   2471696.17847   1948426.64646  21637354.4504   21637356.7124
     -2609.0004      -2032.9874
  -5150443.27846  -3888338.53446  22102267.9034   22102272.5914
       -42.4694        -33.0934
     15692.48651                  24484151.8334
     -3139.3444
   1802262.65246   1415236.01046  22137305.2244   22137309.1494
     -2420.3284      -1885.9704
 -12619399.81746  -9677556.57946  21757192.3334   21757195.7784
      1252.8444        976.2424
 -10617143.31647  -8202145.07647  20759814.8414   20759819.6574
      -245.3594       -191.1894
  -2470231.06743  -1801926.49343  24246303.8024   24246308.0324
      2399.1884       1869.4974
 98  6 17 16 32  0.0010000  0  6G 4G 8G 9G 5G24G30
   2510889.84747   1978967.16546  21644812.7004   21644815.2084
     -2616.8594      -2039.1114
  -5149722.48146  -3887776.88346  22102405.0674   22102409.0634
       -53.6414        -41.7984
   1838634.44446   1443577.64446  22144226.6694   22144230.7244
     -2429.2344      -1892.9104
 -12638153.66646  -9692169.96946  21753623.5214   21753626.9314
      1247.6884        972.2244
 -10613387.88147  -8199218.75747  20760529.5994   20760534.2984
      -255.3594       -198.9814
  -2506208.60944  -1829960.89043  24239456.7634   24239461.2864
      2397.8134       1868.4254
 98  6 17 16 32 15.0010000  0  6G 4G 8G 9G 5G24G30
   2550203.91947   2009601.50146  21652293.6614   21652296.8024
     -2625.1094      -2045.5404
  -5148833.82946  -3887084.43246  22102574.5914   22102578.4234
       -64.9374        -50.6014
   1875138.84346   1472022.58146  22151173.3884   22151177.1854
     -2438.0474      -1899.7774
 -12656830.54046  -9706723.35646  21750069.3334   21750072.8374
      1242.4844        968.1704
 -10609482.21747  -8196175.37547  20761272.8494   20761277.2434
      -265.3594       -206.7744
  -2542165.71044  -1857979.38543  24232615.1304   24232620.0404
      2396.4694       1867.3784
 98  6 17 16 32 30.0010000  0  6G 4G 8G 9G 5G24G30
   2589641.69947   2040332.22746  21659798.6614   21659802.4704
     -2633.2194      -2051.8594
  -5147776.23346  -3886260.34846  22102775.5134   22102779.0054
       -76.0624        -59.2694
   1911774.13346   1500569.51346  22158144.9974   22158148.8174
     -2446.5624      -1906.4124
 -12675428.43146  -9721215.20846  21746530.3104   21746533.7084
      1237.3134        964.1404
 -10605427.38947  -8193015.75847  20762044.5364   20762048.6384
      -275.2504       -214.4814
  -2578102.89844  -1885982.34243  24225776.9354   24225779.6884
      2395.2194       1866.4044
 98  6 17 16 32 45.0010000  0  6G 4G 8G 9G 5G24G30
   2629200.95847   2071157.60946  21667326.6464   21667330.2434
     -2641.3754      -2058.2144
  -5146550.07446  -3885304.90346  22103008.5284   22103013.1344
       -87.4534        -68.1454
   1948535.21646   1529214.46146  22165140.2314   22165144.4974
     -2454.9224      -1912.9264
 -12693950.40146  -9735647.90446  21743005.6224   21743009.0444
      1232.2664        960.2074
 -10601224.01747  -8189740.39347  20762844.3724   20762848.4854
      -285.2664       -222.2854
  -2614022.64345  -1913971.71443  24218941.2944   24218944.0714
      2394.0164       1865.4674
 98  6 17 16 33  0.0010000  0  6G 4G 8G 9G 5G24G30
   2668883.32147   2102078.92546  21674877.7394   21674881.0444
     -2649.6094      -2064.6314
  -5145152.65446  -3884216.00146  22103274.3174   22103279.3924
       -98.8124        -76.9974
   1985421.49746   1557956.98146  22172159.3564   22172163.2594
     -2463.2344      -1919.4034
 -12712395.90646  -9750021.01546  21739495.5674   21739499.5634
      1227.1094        956.1894
 -10596870.92247  -8186348.36846  20763672.6534   20763677.0604
      -295.0944       -229.9434
  -2649922.98644  -1941945.94043  24212108.5364   24212110.3414
      2392.7504       1864.4814
 98  6 17 16 33 15.0010000  0  7G10G 4G 8G 9G 5G24G30
    -21063.31151                  25032324.7244
      2340.7344
   2708689.06947   2133096.38546  21682452.5914   21682455.8964
     -2657.7344      -2070.9624
  -5143584.72546  -3882994.23546  22103573.2164   22103577.6694
      -110.1564        -85.8364
   2022432.44746   1586796.65246  22179202.1854   22179205.9354
     -2471.4694      -1925.8204
 -12730765.13246  -9764334.68346  21735999.8964   21736003.9854
      1222.2814        952.4274
 -10592371.03247  -8182841.94946  20764528.7164   20764533.0874
      -304.7344       -237.4554
  -2685804.00644  -1969905.15543  24205281.1854   24205285.3214
      2391.4224       1863.4464
 98  6 17 16 33 30.0010000  0  7G10G 4G 8G 9G 5G24G30
    -56176.99142                  25025644.3254
      2341.2814
   2748618.91047   2164210.54146  21690051.1304   21690054.4464
     -2666.0944      -2077.4764
  -5141845.16046  -3881638.72146  22103904.1384   22103907.9354
      -121.5944        -94.7484
   2059568.27946   1615733.63446  22186269.0364   22186273.5244
     -2479.7344      -1932.2614
 -12749063.14846  -9778592.87946  21732518.0674   21732521.6884
      1217.6724        948.8354
 -10587727.16847  -8179223.34946  20765412.5444   20765416.5524
      -314.2814       -244.8944
  -2721662.24544  -1997846.64943  24198457.3254   24198461.7784
      2389.8594       1862.2284
 98  6 17 16 33 45.0010000  0  7G10G 4G 8G 9G 5G24G30
    -91296.86742                  25018960.5754
      2341.4224
   2788675.15847   2195423.18546  21697673.3564   21697676.9544
     -2674.6874      -2084.1724
  -5139935.52946  -3880150.71246  22104267.7474   22104271.1224
      -132.9534       -103.6004
   2096825.55046   1644765.26246  22193358.6064   22193363.5754
     -2487.8444      -1938.5804
 -12767294.11646  -9792798.81446  21729048.8644   21729052.7204
      1213.2504        945.3904
 -10582940.00647  -8175493.08746  20766323.4894   20766327.8024
      -323.9064       -252.3944
  -2757497.40543  -2025770.08443  24191637.8104   24191642.8494
      2388.2814       1860.9984
 98  6 17 16 34  0.0010000  0  7G10G 4G 8G 9G 5G24G30
   -126420.77241                  25012273.5834
      2341.7974
   2828859.49147   2226735.64446  21705320.4664   21705324.0284
     -2683.2504      -2090.8444
  -5137855.37546  -3878529.81646  22104663.5524   22104666.8214
      -144.4374       -112.5494
   2134203.22146   1673890.69346  22200471.5914   22200476.3134
     -2495.8594      -1944.8254
 -12785460.73846  -9806954.60646  21725592.0674   21725595.7594
      1208.9224        942.0174
 -10578010.50747  -8171651.91546  20767261.9114   20767266.2714
      -333.3914       -259.7854
  -2793309.40843  -2053675.49743  24184822.9034   24184827.9074
      2386.6414       1859.7204
 98  6 17 16 34 15.0010000  0  7G10G 4G 8G 9G 5G24G30
   -161549.94141                  25005590.4974
      2342.0474
   2869172.69847   2258148.52546  21712992.0524   21712995.4384
     -2691.8914      -2097.5774
  -5135603.35946  -3876774.98946  22105092.2864   22105095.6614
      -155.8284       -121.4254
   2171701.25046   1703109.92146  22207607.2554   22207611.7314
     -2503.9374      -1951.1204
 -12803561.46946  -9821059.06046  21722147.6304   21722150.6064
      1204.4384        938.5234
 -10572937.70447  -8167699.07347  20768227.0134   20768231.2084
      -343.0164       -267.2854
  -2829096.69443  -2081561.70042  24178013.5524   24178018.8134
      2385.0004       1858.4424
 98  6 17 16 34 30.0010000  0  7G10G 4G 8G 9G 5G24G30
   -196682.39141                  24998906.4894
      2342.2974
   2909615.58547   2289662.46346  21720687.9114   21720691.3334
     -2700.4534      -2104.2494
  -5133181.27846  -3874887.66046  22105552.7784   22105556.1884
      -167.1094       -130.2154
   2209320.99846   1732423.98946  22214766.3414   22214770.7594
     -2512.0624      -1957.4514
 -12821593.54446  -9835110.02646  21718716.0834   21718718.7554
      1199.8134        934.9194
 -10567719.88647  -8163633.23646  20769219.6224   20769223.9814
      -352.7034       -274.8344
  -2864859.68143  -2109428.93043  24171208.3254   24171212.2044
      2383.3594       1857.1634
 98  6 17 16 34 45.0010000  0  7G10G 4G 8G 9G 5G24G30
   -231819.36041                  24992219.6854
      2342.6564
   2950184.25447   2321274.41247  21728407.9814   21728411.3564
     -2708.6724      -2110.6534
  -5130589.96646  -3872868.46246  22106045.7634   22106049.9814
      -178.3914       -139.0064
   2247062.55346   1761833.00046  22221948.3174   22221953.0874
     -2520.1414      -1963.7464
 -12839555.85947  -9849106.61346  21715297.9664   21715300.5444
      1195.2034        931.3274
 -10562355.76047  -8159453.39346  20770240.7474   20770245.4114
      -362.5164       -282.4804
  -2900596.04743  -2137275.41943  24164408.1064   24164413.0754
      2381.5314       1855.7394
 98  6 17 16 35  0.0010000  0  7G10G 4G 8G 9G 5G24G30
   -266962.33942                  24985532.1924
      2343.1724
   2990876.62447   2352982.74947  21736151.8494   21736154.8134
     -2716.8444      -2117.0214
  -5127829.01846  -3870717.06346  22106571.2084   22106575.3564
      -189.5944       -147.7354
   2284927.56546   1791338.20446  22229153.4814   22229157.7474
     -2528.4844      -1970.2484
 -12857447.51547  -9863048.15446  21711893.2244   21711895.9894
      1190.3754        927.5654
 -10556844.37247  -8155158.80246  20771289.4664   20771294.1534
      -372.2034       -290.0284
  -2936303.67143  -2165099.51742  24157612.7714   24157615.6304
      2379.5314       1854.1804
 98  6 17 16 35 15.0020000  0  7G10G 4G 8G 9G 5G24G30
   -302115.23841                  24978841.8384
      2343.5784
   3031693.56847   2384788.15147  21743918.6044   21743921.7794
     -2725.0624      -2123.4254
  -5124901.50746  -3868435.89746  22107128.4554   22107131.9824
      -200.6724       -156.3684
   2322920.55247   1820943.11646  22236383.3304   22236386.8464
     -2536.9224      -1976.8224
 -12875267.67646  -9876933.99346  21708501.9864   21708505.0924
      1185.5164        923.7784
 -10551189.95047  -8150752.74646  20772365.5254   20772369.9434
      -381.7034       -297.4314
  -2971984.81043  -2192902.91542  24150822.6744   24150827.2094
      2377.6094       1852.6834
 98  6 17 16 35 30.0020000  0  7G10G 4G 8G 9G 5G24G30
   -337271.01541                  24972151.7294
      2343.9064
   3072631.69247   2416687.97147  21751708.7914   21751712.0494
     -2733.3284      -2129.8664
  -5121808.24346  -3866025.57246  22107717.1584   22107720.9434
      -211.6874       -164.9514
   2361037.30046   1850644.49346  22243636.6194   22243640.0184
     -2545.2194      -1983.2874
 -12893015.52646  -9890763.47846  21705124.5804   21705127.9554
      1180.8914        920.1754
 -10545393.06247  -8146235.69146  20773468.6664   20773472.6974
      -391.1254       -304.7734
  -3007635.34943  -2220682.58942  24144038.6274   24144043.7014
      2375.8594       1851.3194
 98  6 17 16 35 45.0020000  0  7G10G 4G 8G 9G 5G24G30
   -372430.76841                  24965459.2054
      2344.0474
   3113694.82947   2448685.20546  21759523.0494   21759525.9904
     -2741.6874      -2136.3804
  -5118550.24446  -3863486.87846  22108336.9714   22108341.2714
      -222.6724       -173.5114
   2399279.11046   1880443.29846  22250914.1354   22250917.7214
     -2553.6564      -1989.8624
 -12910690.48746  -9904536.16346  21701761.0724   21701764.9984
      1175.7344        916.1574
 -10539454.61447  -8141608.32846  20774598.8544   20774602.7214
      -400.6254       -312.1754
  -3043261.09343  -2248442.83142  24137258.7054   24137263.1934
      2374.2664       1850.0774
 98  6 17 16 36  0.0020000  0  6G 4G 8G 9G 5G24G30
   3154882.27947   2480779.31446  21767360.8304   21767364.1704
     -2749.9064      -2142.7844
  -5115127.23746  -3860819.59246  22108988.3614   22108992.8384
      -233.6724       -182.0824
   2437647.31546   1910340.58346  22258215.3934   22258219.2714
     -2562.0944      -1996.4374
 -12928285.32346  -9918246.42046  21698413.0804   21698416.6664
      1170.2344        911.8714
 -10533374.29847  -8136870.40846  20775755.7834   20775759.2994
      -410.0314       -319.5054
  -3078861.39442  -2276183.27941  24130483.2134   24130488.3344
      2372.5004       1848.7014
 98  6 17 16 36 15.0020000  0  6G 4G 8G 9G 5G24G30
   3196193.20047   2512969.63547  21775222.1194   21775225.2134
     -2758.1254      -2149.1884
  -5111537.93346  -3858022.72146  22109671.2834   22109675.4674
      -244.7974       -190.7514
   2476144.03346   1940338.01846  22265541.0184   22265545.1664
     -2570.7504      -2003.1824
 -12945793.09146  -9931888.83246  21695081.0804   21695085.1234
      1164.2504        907.2084
 -10527151.49147  -8132021.46746  20776940.0804   20776943.7254
      -419.6414       -326.9934
  -3114432.43243  -2303900.93142  24123715.2684   24123721.5254
      2370.4224       1847.0824
 98  6 17 16 36 30.0020000  0  6G 4G 8G 9G 5G24G30
   3237626.35547   2545255.21046  21783106.0964   21783109.0844
     -2766.3444      -2155.5934
  -5107783.58446  -3855097.26046  22110385.6354   22110388.6584
      -255.8284       -199.3474
   2514769.86847   1970436.05846  22272891.3464   22272894.5214
     -2579.3754      -2009.9034
 -12963212.06446  -9945462.03246  21691766.9004   21691770.8144
      1158.1884        902.4844
 -10520785.53047  -8127060.97846  20778151.3544   20778155.0454
      -429.1874       -334.4324
  -3149973.51144  -2331595.26943  24116952.3144   24116956.0764
      2368.3594       1845.4754
 98  6 17 16 36 45.0020000  0  7G10G 4G 8G 9G 5G24G30
     -2342.66451                  24938693.0494
      2344.5314
   3279179.86347   2577634.56346  21791013.5414   21791017.0924
     -2774.2034      -2161.7174
  -5103865.25446  -3852044.03446  22111131.4634   22111134.1704
      -266.6724       -207.7964
   2553521.68146   2000632.25246  22280265.4554   22280268.5374
     -2587.5784      -2016.2954
 -12980543.37446  -9958966.95846  21688468.7524   21688472.1154
      1152.5634        898.1014
 -10514278.45947  -8121990.52446  20779389.6974   20779393.4124
      -438.5004       -341.6884
  -3185486.11244  -2359267.40943  24110195.1664   24110197.7214
      2366.5784       1844.0874
 98  6 17 16 37  0.0020000  0  7G10G 4G 8G 9G 5G24G30
    -37511.15241                  24932000.6434
      2344.4694
   3320852.66147   2610106.86146  21798943.4394   21798947.0144
     -2782.2504      -2167.9874
  -5099782.75446  -3848862.87746  22111908.5024   22111912.4284
      -277.7034       -216.3924
   2592397.29646   2030924.92246  22287662.9794   22287666.6934
     -2595.8914      -2022.7724
 -12997788.29746  -9972404.55346  21685187.1194   21685190.7524
      1146.7034        893.5354
 -10507631.32547  -8116810.93446  20780654.5724   20780658.0644
      -447.8444       -348.9694
  -3220971.85244  -2386918.61743  24103442.4794   24103445.8544
      2364.8134       1842.7114
 98  6 17 16 37 15.0020000  0  7G10G 4G 8G 9G 5G24G30
    -72678.37941                  24925306.5804
      2344.4064
   3362645.84347   2642672.95546  21806896.6434   21806900.7914
     -2790.2664      -2174.2334
  -5095536.51546  -3845554.11846  22112716.5104   22112720.8814
      -288.5164       -224.8174
   2631396.51246   2061313.90846  22295084.5964   22295088.2754
     -2604.0474      -2029.1274
 -13014946.43946  -9985774.52546  21681921.8074   21681925.9554
      1140.9694        889.0674
 -10500846.05847  -8111523.70146  20781945.7604   20781949.5104
      -456.9694       -356.0804
  -3256432.84044  -2414550.50443  24096693.9474   24096697.5574
      2363.2344       1841.4814
 98  6 17 16 37 30.0020000  0  6G 4G 8G 9G 5G24G30
   3404561.07147   2675334.17346  21814872.8694   21814876.4434
     -2798.3284      -2180.5154
  -5091127.21746  -3842118.29246  22113555.4944   22113560.4394
      -299.3444       -233.2554
   2670516.94347   2091797.34746  22302529.0574   22302532.4204
     -2611.9064      -2035.2524
 -13032019.31646  -9999078.05046  21678673.0884   21678677.2364
      1135.4694        884.7814
 -10493921.36747  -8106127.83546  20783263.1584   20783266.8264
      -466.2974       -363.3484
  -3291870.11743  -2442163.92843  24089949.5724   24089955.2094
      2361.7194       1840.3004
 98  6 17 16 37 45.0020000  0  6G 4G 8G 9G 5G24G30
   3446595.25847   2708088.07446  21822871.4714   21822874.9514
     -2806.1724      -2186.6274
  -5086554.37846  -3838555.04446  22114426.0414   22114429.4754
      -310.3124       -241.8024
   2709753.33246   2122371.13246  22309995.5884   22309998.7054
     -2619.5944      -2041.2424
 -13049008.42946 -10012316.32746  21675440.1664   21675444.5144
      1129.7194        880.3004
 -10486856.10947  -8100622.43346  20784607.9634   20784611.7604
      -475.7034       -370.6784
  -3327284.10643  -2469759.20642  24083209.8074   24083212.1154
      2360.1254       1839.0584
 98  6 17 16 38  0.0020000  0  6G 4G 8G 9G 5G24G30
   3488744.58847   2740931.70146  21830892.4794   21830896.0414
     -2813.7194      -2192.5084
  -5081818.60446  -3834864.83846  22115327.1824   22115330.1004
      -321.1724       -250.2644
   2749103.90346   2153033.90546  22317483.5574   22317486.8264
     -2627.1254      -2047.1104
 -13065910.96946 -10025487.12346  21672223.6894   21672228.2714
      1123.9694        875.8204
 -10479650.42047  -8095007.60846  20785979.0644   20785982.7444
      -485.1254       -378.0194
  -3362674.84042  -2497336.38042  24076474.5884   24076480.0964
      2358.5634       1837.8414
 98  6 17 16 38 15.0020000  0  6G 4G 8G 9G 5G24G30
   3531006.25546   2773862.85346  21838934.3304   21838937.8224
     -2821.2344      -2198.3644
  -5076918.74146  -3831046.76746  22116259.2604   22116262.8344
      -332.1724       -258.8354
   2788567.43547   2183784.69346  22324993.6584   22324996.9514
     -2634.7814      -2053.0764
 -13082729.12846 -10038592.17546  21669023.1044   21669027.5454
      1118.4384        871.5104
 -10472301.91947  -8089281.49546  20787377.1504   20787380.6544
      -494.7814       -385.5444
  -3398040.69243  -2524894.18642  24069746.4864   24069753.0024
      2356.8444       1836.5024
 98  6 17 16 38 30.0020000  0  6G 4G 8G 9G 5G24G30
   3573378.89946   2806880.48346  21846997.7294   21847001.3504
     -2828.5474      -2204.0624
  -5071855.96146  -3827101.74046  22117222.4794   22117226.8384
      -342.9374       -267.2244
   2828144.94246   2214624.28446  22332524.6974   22332527.9794
     -2642.2814      -2058.9204
 -13099467.55047 -10051635.10646  21665838.3544   21665841.9984
      1113.3134        867.5164
 -10464808.04547  -8083442.11646  20788803.3774   20788807.1864
      -504.4694       -393.0934
  -3433384.25443  -2552434.61043  24063021.4714   24063028.2684
      2355.6094       1835.5404
 98  6 17 16 38 45.0020000  0  7G10G 4G 8G 9G 5G24G30
    -11715.77551                  24885169.2834
      2343.3444
   3615862.76147   2839984.79246  21855082.1194   21855085.2714
     -2835.9534      -2209.8344
  -5066630.28346  -3823029.78946  22118216.9864   22118221.4514
      -353.7814       -275.6744
   2867835.50146   2245551.97046  22340077.5494   22340080.9594
     -2649.8284      -2064.8014
 -13116127.56846 -10064616.93946  21662667.8854   21662671.6464
      1108.0164        863.3894
 -10457167.52347  -8077488.45546  20790257.2524   20790261.0024
      -514.2814       -400.7394
  -3468708.03243  -2579959.60743  24056298.0494   24056302.7604
      2354.3134       1834.5294
 98  6 17 16 39  0.0020000  0  6G 4G 8G 9G 5G24G30
   3658456.12847   2873174.41846  21863187.2444   21863190.5374
     -2843.2034      -2215.4834
  -5061243.93046  -3818832.64446  22119241.9864   22119245.5254
      -364.4224       -283.9654
   2907639.15746   2276567.78846  22347652.1584   22347655.9794
     -2657.3754      -2070.6824
 -13132709.98246 -10077538.29046  21659512.4714   21659516.0454
      1102.9064        859.4074
 -10449380.24347  -8071420.43846  20791739.1974   20791743.1354
      -524.0474       -408.3484
  -3504014.23043  -2607470.92143  24049580.6434   24049585.8224
      2353.1564       1833.6284
 98  6 17 16 39 15.0020000  0  6G 4G 8G 9G 5G24G30
   3701159.67147   2906449.89346  21871313.9864   21871317.3264
     -2850.5624      -2221.2184
  -5055697.12146  -3814510.46846  22120297.6894   22120302.2364
      -375.1564       -292.3304
   2947558.06546   2307673.38946  22355248.1274   22355252.0414
     -2665.1254      -2076.7214
 -13149213.26846 -10090397.98746  21656372.1194   21656375.3424
      1097.5784        855.2564
 -10441445.73947  -8065237.70846  20793248.9864   20793252.9364
      -533.8914       -416.0194
  -3539300.50444  -2634966.68343  24042865.6434   24042870.0964
      2351.7194       1832.5084
 98  6 17 16 39 30.0020000  0  6G 4G 8G 9G 5G24G30
   3743974.23647   2939811.88246  21879461.2524   21879464.8034
     -2857.9374      -2226.9644
  -5049988.53446  -3810062.21146  22121384.1824   22121387.9084
      -385.9224       -300.7184
   2987593.56246   2338869.86846  22362866.9164   22362871.1584
     -2672.8284      -2082.7234
 -13165636.88347 -10103195.61946  21653246.8384   21653249.4164
      1092.3134        851.1534
 -10433362.60347  -8058939.15746  20794787.4244   20794791.0574
      -543.7814       -423.7264
  -3574564.14444  -2662444.80443  24036154.9794   24036159.9594
      2350.1724       1831.3034
 98  6 17 16 39 45.0020000  0  6G 4G 8G 9G 5G24G30
   3786897.34947   2973258.45146  21887629.1044   21887632.3034
     -2865.1874      -2232.6144
  -5044118.63446  -3805488.27646  22122501.4164   22122504.2754
      -396.8124       -309.2054
   3027742.86446   2370155.01546  22370506.7994   22370511.2054
     -2680.5004      -2088.7014
 -13181982.09347 -10115932.14046  21650136.2524   21650138.8304
      1086.9384        846.9644
 -10425132.46547  -8052526.05746  20796353.5724   20796357.2644
      -553.5784       -431.3604
  -3609804.45145  -2689904.77944  24029449.5574   24029453.9634
      2348.5314       1830.0244
 98  6 17 16 40  0.0020000  0  6G 4G 8G 9G 5G24G30
   3829928.94347   3006789.55846  21895817.7294   21895821.1744
     -2872.3594      -2238.2024
  -5038084.75346  -3800786.55246  22123649.1824   22123652.3934
      -407.6564       -317.6544
   3068009.42046   2401531.52946  22378169.3464   22378173.4474
     -2688.3914      -2094.8504
 -13198245.69547 -10128605.05846  21647041.3074   21647043.6504
      1081.5784        842.7884
 -10416756.08947  -8045999.01446  20797947.3464   20797951.0024
      -563.2504       -438.8964
  -3645021.16445  -2717346.31444  24022748.0964   24022753.5804
      2347.0474       1828.8684
 98  6 17 16 40 15.0020000  0  6G 4G 8G 9G 5G24G30
   3873067.89046   3040404.30646  21904026.5024   21904029.6314
     -2879.5004      -2243.7664
  -5031889.65346  -3795959.20146  22124828.0724   22124831.3424
      -418.3594       -325.9944
   3108395.41446   2433001.10546  22385854.5184   22385858.6544
     -2696.4064      -2101.0964
 -13214430.20646 -10141216.36246  21643961.4004   21643964.0494
      1076.3914        838.7464
 -10408235.64047  -8039359.69446  20799568.8144   20799572.0964
      -572.8284       -446.3604
  -3680214.85845  -2744769.93344  24016050.5254   24016054.0534
      2345.4694       1827.6384
 98  6 17 16 40 30.0020000  0  6G 4G 8G 9G 5G24G30
   3916312.48946   3074101.38246  21912255.6974   21912258.9324
     -2886.5474      -2249.2574
  -5025535.36846  -3791007.80846  22126037.4394   22126040.1704
      -428.9694       -334.2614
   3148902.02946   2464564.68246  22393562.5184   22393566.5374
     -2704.5784      -2107.4634
 -13230538.84446 -10153768.53546  21640895.8934   21640899.5374
      1071.3284        834.8014
 -10399573.55347  -8032610.00746  20801216.9324   20801220.5764
      -582.2194       -453.6774
  -3715385.76345  -2772175.81244  24009357.5804   24009361.5294
      2343.9224       1826.4334
 98  6 17 16 40 45.0020000  0  6G 4G 8G 9G 5G24G30
   3959663.47046   3107881.35346  21920505.4714   21920508.5534
     -2893.5474      -2254.7124
  -5019020.90846  -3785931.62946  22127277.1664   22127280.8814
      -439.6094       -342.5534
   3189530.93446   2496223.53746  22401294.2684   22401298.1584
     -2712.5314      -2113.6614
 -13246569.51546 -10166259.95846  21637845.2994   21637849.4594
      1066.1094        830.7354
 -10390770.97747  -8025750.85246  20802892.0184   20802895.8264
      -591.3914       -460.8244
  -3750533.51045  -2799563.65244  24002669.1824   24002672.2404
      2342.3914       1825.2394
 98  6 17 16 41  0.0020000  0  6G 4G 8G 9G 5G24G30
   4003117.94047   3141741.96546  21928774.5334   21928777.6394
     -2900.4064      -2260.0574
  -5012346.85946  -3780731.07946  22128546.8464   22128551.6744
      -450.2814       -350.8694
   3230277.86046   2527974.36546  22409048.5024   22409051.9474
     -2720.4064      -2119.7974
 -13262522.03646 -10178690.47746  21634809.8144   21634813.6004
      1060.9064        826.6804
 -10381833.27347  -8018786.40446  20804592.8544   20804596.7564
      -600.3124       -467.7764
  -3785657.43745  -2826932.91344  23995985.4324   23995991.3854
      2340.7344       1823.9494
 98  6 17 16 41 15.0020000  0  6G 4G 8G 9G 5G24G30
   4046677.75547   3175684.67146  21937063.6044   21937066.6864
     -2907.5624      -2265.6334
  -5005511.26746  -3775404.64146  22129847.7134   22129853.0214
      -461.1724       -359.3554
   3271142.05746   2559816.56846  22416824.5254   22416828.1354
     -2728.1094      -2125.8004
 -13278395.92747 -10191059.74346  21631789.3544   21631792.6354
      1055.5944        822.5414
 -10372761.95747  -8011717.84246  20806319.3694   20806323.2834
      -609.1564       -474.6674
  -3820754.04845  -2854280.89344  23989306.6044   23989311.6894
      2338.8444       1822.4764
 98  6 17 16 41 30.0020000  0  7G 4G 8G 7G 9G 5G24G30
   4090343.88247   3209710.22146  21945373.1114   21945376.2994
     -2914.5624      -2271.0884
  -4998513.02446  -3769951.46246  22131179.4794   22131184.2254
      -471.9534       -367.7564
     44293.34841                  24834999.9474
     -3164.1724
   3312119.03846   2591746.63446  22424621.9864   22424625.6314
     -2735.4844      -2131.5464
 -13294190.57747 -10203367.25746  21628783.8224   21628786.6934
      1050.4064        818.4984
 -10363559.14447  -8004546.81046  20808070.4794   20808074.1934
      -617.9534       -481.5224
  -3855824.10845  -2881608.18844  23982632.8224   23982638.1664
      2337.1564       1821.1614
 98  6 17 16 41 45.0020000  0  7G 4G 8G 7G 9G 5G24G30
   4134114.24447   3243816.99046  21953702.0884   21953705.4044
     -2921.4694      -2276.4694
  -4991353.52846  -3764372.63946  22132541.9474   22132545.4864
      -482.6564       -376.0964
     91759.78741                  24844033.6504
     -3164.6094
   3353206.41646   2623762.75646  22432440.7444   22432444.6004
     -2742.8594      -2137.2934
 -13309908.26247 -10215614.79946  21625792.7524   21625795.3654
      1045.2814        814.5054
 -10354223.70647  -7997272.43346  20809846.7604   20809850.7094
      -626.7504       -488.3774
  -3890868.98745  -2908915.84043  23975963.9554   23975968.2444
      2335.5004       1819.8704
 98  6 17 16 42  0.0020000  0  7G 4G 8G 7G 9G 5G24G30
   4177988.38846   3278004.62546  21962051.4864   21962055.2364
     -2928.4534      -2281.9124
  -4984032.92546  -3758668.29746  22133935.2364   22133938.0614
      -493.4224       -384.4854
    139233.95841                  24853065.5644
     -3165.2194
   3394405.00146   2655865.51346  22440280.4244   22440284.0104
     -2750.3444      -2143.1254
 -13325548.94647 -10227802.34446  21622816.6584   21622819.1074
      1040.1254        810.4874
 -10344756.04547  -7989895.03046  20811648.2914   20811652.9084
      -635.6564       -495.3174
  -3925889.60245  -2936204.60944  23969300.3774   23969305.3224
      2333.8914       1818.6164
 98  6 17 16 42 15.0020000  0  8G10G 4G 8G 7G 9G 5G24G30
     -4684.63051                  24791510.0414
      2343.4064
   4221967.35347   3312273.92546  21970419.9944   21970423.7564
     -2935.4224      -2287.3424
  -4976552.07446  -3752839.06246  22135358.4864   22135361.8384
      -504.0004       -392.7274
    186716.02941                  24862102.0884
     -3165.6724
   3435715.38846   2688055.39046  22448141.8304   22448145.5454
     -2757.6414      -2148.8114
 -13341113.34147 -10239930.43946  21619854.5884   21619857.4004
      1035.1414        806.6034
 -10335153.11347  -7982412.22446  20813475.9394   20813480.2754
      -644.7194       -502.3784
  -3960885.71445  -2963474.28443  23962640.4864   23962644.7994
      2332.2344       1817.3254
 98  6 17 16 42 30.0020000  0  8G10G 4G 8G 7G 9G 5G24G30
    -39832.89741                  24784824.1194
      2343.1564
   4266053.33847   3346626.62046  21978809.6894   21978813.5804
     -2942.7194      -2293.0284
  -4968911.19546  -3746885.13846  22136812.3074   22136815.9284
      -514.8124       -401.1534
    234206.30341                  24871138.3224
     -3166.3124
   3477134.32446   2720329.83846  22456023.4794   22456027.4514
     -2764.8124      -2154.3994
 -13356601.35446 -10251999.01746  21616907.3384   21616910.3964
      1029.9224        802.5374
 -10325413.99447  -7974823.29846  20815329.1894   20815333.1504
      -653.8594       -509.5014
  -3995855.20245  -2990723.16744  23955985.9864   23955990.3344
      2330.4224       1815.9134
 98  6 17 16 42 45.0020000  0  8G10G 4G 8G 7G 9G 5G24G30
    -74980.66141                  24778135.7834
      2343.2344
   4310249.05747   3381064.81946  21987219.9004   21987223.1704
     -2950.0944      -2298.7744
  -4961107.85246  -3740804.61346  22138297.5334   22138301.1314
      -525.6414       -409.5904
    281704.49941                  24880178.1434
     -3166.7504
   3518657.49146   2752685.50946  22463925.2134   22463929.3264
     -2771.5004      -2159.6104
 -13372011.72147 -10264007.08346  21613974.8224   21613978.3964
      1024.7814        798.5314
 -10315538.02547  -7967127.73246  20817208.4944   20817212.6894
      -662.9534       -516.5874
  -4030799.10145  -3017952.14044  23949336.6274   23949340.2364
      2328.8284       1814.6714
 98  6 17 16 43  0.0020000  0  8G10G 4G 8G 7G 9G 5G24G30
   -110131.17141                  24771446.9864
      2343.4694
   4354558.55447   3415591.69346  21995651.5724   21995654.3614
     -2957.8124      -2304.7894
  -4953140.45146  -3734596.27346  22139813.7444   22139817.7524
      -536.6254       -418.1494
    329209.16441                  24889217.0104
     -3167.1414
   3560279.51946   2785118.22246  22471845.6194   22471849.5214
     -2778.0314      -2164.7004
 -13387342.94847 -10275953.48646  21611057.2134   21611060.5534
      1019.4384        794.3674
 -10305524.03447  -7959324.61946  20819114.0644   20819118.1074
      -672.2194       -523.8074
  -4065717.76545  -3045161.46844  23942691.0494   23942694.7054
      2327.0164       1813.2594
 98  6 17 16 43 15.0020000  0  8G10G 4G 8G 7G 9G 5G24G30
   -145286.16342                  24764757.1504
      2343.8134
   4398982.86847   3450208.03846  22004105.2364   22004108.1784
     -2965.5474      -2310.8164
  -4945011.19646  -3728261.79146  22141360.6824   22141365.0294
      -547.3594       -426.5144
    376718.61841                  24898258.6114
     -3167.5624
   3601997.71746   2817625.87046  22479784.5024   22479788.6974
     -2784.4224      -2169.6794
 -13402596.95146 -10287839.72746  21608154.5184   21608158.0104
      1014.3914        790.4344
 -10295371.98147  -7951413.92746  20821046.0184   20821049.6974
      -681.4694       -531.0154
  -4100611.34645  -3072351.23844  23936051.0254   23936056.7564
      2325.4224       1812.0174
 98  6 17 16 43 30.0020000  0  7G10G 4G 8G 9G 5G24G30
   -180446.13341    -23743.13451  24758065.6274   24758073.8224
      2344.0944       1826.5674
   4443525.26447   3484916.39446  22012581.1744   22012584.7364
     -2973.4534      -2316.9764
  -4936719.16746  -3721800.46946  22142938.5574   22142942.8694
      -558.3284       -435.0614
   3643813.63946   2850209.67746  22487741.8614   22487745.2954
     -2791.1724      -2174.9394
 -13417774.65746 -10299666.50246  21605266.6894   21605270.5214
      1009.2194        786.4044
 -10285078.98447  -7943393.40346  20823004.6584   20823008.1394
      -691.1094       -538.5274
  -4135479.59345  -3099521.28144  23929416.4164   23929421.7604
      2323.6254       1810.6174
 98  6 17 16 43 45.0020000  0  7G10G 4G 8G 9G 5G24G30
   -215609.80641                  24751375.0254
      2344.3594
   4488182.14047   3519713.93946  22021079.2754   22021082.7914
     -2980.8444      -2322.7354
  -4928265.01646  -3715212.82646  22144547.4944   22144550.9164
      -568.9064       -443.3044
   3685730.59046   2882872.20246  22495718.6584   22495722.4904
     -2797.8444      -2180.1384
 -13432875.63546 -10311433.49246  21602392.5184   21602396.8304
      1004.2194        782.5084
 -10274641.33947  -7935260.16546  20824990.5964   20824994.3694
      -700.5944       -545.9174
  -4170321.27045  -3126670.59044  23922785.7214   23922790.7604
      2321.9064       1809.2784
 98  6 17 16 44  0.0020000  0  7G10G 4G 8G 9G 5G24G30
   -250776.35341                  24744683.0254
      2344.5474
   4532952.49346   3554599.94146  22029598.4864   22029601.6624
     -2988.5164      -2328.7134
  -4919650.48246  -3708500.21146  22146186.3464   22146189.3574
      -579.6874       -451.7054
   3727750.59347   2915615.03546  22503714.2214   22503717.9364
     -2804.7814      -2185.5444
 -13447898.95846 -10323139.97646  21599533.8614   21599538.3734
       998.9064        778.3694
 -10264061.58847  -7927016.20146  20827003.9944   20827008.5534
      -710.0164       -553.2594
  -4205135.79345  -3153798.78344  23916161.0414   23916165.5064
      2320.1094       1807.8774
 98  6 17 16 44 15.0020000  0  7G10G 4G 8G 9G 5G24G30
   -285944.70742                  24737991.6274
      2344.4844
   4577838.02046   3589575.64946  22038139.9164   22038143.6784
     -2996.2344      -2334.7284
  -4910874.70146  -3701661.95946  22147856.4084   22147860.0064
      -590.4844       -460.1184
   3769873.76946   2948438.26546  22511730.5104   22511734.1784
     -2811.7194      -2190.9504
 -13462842.52646 -10334784.29446  21596690.1354   21596694.1894
       993.4694        774.1314
 -10253339.26447  -7918661.13846  20829044.2444   20829048.9084
      -719.6564       -560.7714
  -4239924.55245  -3180906.86744  23909540.7054   23909545.9204
      2318.3444       1806.5024
 98  6 17 16 44 30.0020000  0  7G10G 4G 8G 9G 5G24G30
   -321110.68241                  24731298.2524
      2344.2344
   4622837.98946   3624640.55346  22046703.1584   22046707.2364
     -3003.8444      -2340.6574
  -4901936.81446  -3694697.36946  22149557.2364   22149560.9044
      -601.3124       -468.5554
   3812101.06247   2981342.61046  22519765.8774   22519769.6504
     -2818.6874      -2196.3804
 -13477703.55647 -10346364.31746  21593862.1274   21593865.8774
       987.9224        769.8094
 -10242473.57147  -7910194.35546  20831112.2054   20831116.2714
      -729.1254       -568.1494
  -4274686.89945  -3207994.41344  23902925.7214   23902930.0924
      2316.5944       1805.1384
 98  6 17 16 44 45.0020000  0  7G10G 4G 8G 9G 5G24G30
   -356272.53941                  24724607.4324
      2344.0004
   4667952.30346   3659794.54646  22055288.0414   22055292.2714
     -3011.3284      -2346.4894
  -4892836.12546  -3687605.93146  22151289.3934   22151293.1434
      -612.0474       -476.9204
   3854435.10146   3014330.12546  22527821.6664   22527825.1934
     -2825.8594      -2201.9684
 -13492479.90147 -10357878.34646  21591050.3774   21591054.1974
       982.2974        765.4264
 -10231466.07747  -7901617.07146  20833206.5104   20833210.1314
      -738.5474       -575.4914
  -4309422.71545  -3235061.21044  23896315.5574   23896319.6354
      2314.9224       1803.8354
 98  6 17 16 45  0.0020000  0  7G10G 4G 8G 9G 5G24G30
   -391430.21441                  24717916.4634
      2343.7194
   4713177.41846   3695034.88246  22063894.2054   22063898.3774
     -3018.5944      -2352.1514
  -4883575.13646  -3680389.59246  22153051.4244   22153054.9634
      -622.7034       -485.2234
   3896877.36146   3047401.96246  22535898.3074   22535901.9754
     -2833.1414      -2207.6424
 -13507171.55447 -10369326.37346  21588254.6354   21588258.3264
       976.5944        760.9824
 -10220316.89747  -7892929.39446  20835328.3694   20835332.2254
      -747.9534       -582.8214
  -4344133.49045  -3262108.56144  23889710.3464   23889715.0214
      2313.2034       1802.4964
 98  6 17 16 45 15.0020000  0  6G 4G 8G 9G 5G24G30
   4758508.84546   3730358.06646  22072520.7054   22072524.7834
     -3025.5624      -2357.5814
  -4874154.61246  -3673048.93946  22154843.9794   22154847.9514
      -633.3594       -493.5274
   3939432.37246   3080561.65946  22543996.8304   22544000.8264
     -2840.8914      -2213.6814
 -13521777.33846 -10380707.50746  21585475.2364   21585478.6584
       970.8754        756.5264
 -10209026.64147  -7884131.80046  20837476.8144   20837480.8224
      -757.3914       -590.1754
  -4378816.55645  -3289134.25145  23883110.4794   23883114.8614
      2311.2504       1800.9744
 98  6 17 16 45 30.0020000  0  6G 4G 8G 9G 5G24G30
   4803942.64846   3765761.01246  22081166.4244   22081170.2794
     -3032.3124      -2362.8414
  -4864575.70446  -3665584.85246  22156667.1824   22156671.6934
      -643.9224       -501.7574
   3982104.24346   3113812.42346  22552116.6274   22552120.6114
     -2848.8124      -2219.8544
 -13536298.13446 -10392022.41446  21582712.0024   21582715.5644
       965.1414        752.0584
 -10197596.91547  -7875225.51146  20839651.6894   20839655.7094
      -766.6564       -597.3944
  -4413472.65145  -3316139.01744  23876515.9794   23876521.6504
      2309.5004       1799.6104
 98  6 17 16 45 45.0020000  0  6G 4G 8G 9G 5G24G30
   4849476.58346   3801241.99246  22089831.2994   22089835.2834
     -3038.8444      -2367.9304
  -4854837.49246  -3657996.64246  22158520.0334   22158524.1584
      -654.4534       -509.9634
   4024896.06346   3147156.67446  22560259.6504   22560263.6824
     -2856.7344      -2226.0274
 -13550731.05047 -10403268.84346  21579965.6044   21579968.6044
       959.2344        747.4554
 -10186026.85147  -7866209.87746  20841853.4714   20841857.8774
      -775.9534       -604.6394
  -4448102.38645  -3343123.19645  23869925.9004   23869930.7994
      2307.9064       1798.3694
 98  6 17 16 46  0.0020000  0  6G 4G 8G 9G 5G24G30
   4895111.12047   3836801.35546  22098515.3464   22098519.1544
     -3045.7664      -2373.3244
  -4844939.94746  -3650284.27346  22160403.5254   22160407.6154
      -665.2194       -518.3524
   4067807.56547   3180594.17646  22568425.4554   22568429.6044
     -2864.7974      -2232.3094
 -13565072.68647 -10414444.13646  21577236.4084   21577239.4554
       953.0634        742.6464
 -10174317.83447  -7857085.96446  20844081.5104   20844086.2094
      -785.1724       -611.8224
  -4482708.72745  -3370089.15644  23863340.7054   23863344.0684
      2306.3444       1797.1514
 98  6 17 16 46 15.0020000  0  6G 4G 8G 9G 5G24G30
   4940847.63746   3872440.18646  22107218.8934   22107222.6664
     -3052.4374      -2378.5234
  -4834882.07446  -3642446.98146  22162317.7364   22162322.2834
      -675.9374       -526.7054
   4110837.54447   3214123.98746  22576614.2444   22576618.5334
     -2872.5004      -2238.3124
 -13579325.83847 -10425550.48446  21574524.0574   21574527.0684
       947.2974        738.1534
 -10162472.82747  -7847856.08346  20846335.8074   20846340.5064
      -794.2344       -618.8844
  -4517294.54545  -3397039.12045  23856759.4634   23856763.5064
      2305.0164       1796.1164
 98  6 17 16 46 30.0020000  0  6G 4G 8G 9G 5G24G30
   4986684.75446   3908157.39746  22115941.2054   22115944.8614
     -3059.1724      -2383.7704
  -4824662.32246  -3634483.54546  22164262.6504   22164266.5534
      -686.6874       -535.0814
   4153983.16646   3247743.92846  22584824.1114   22584828.5294
     -2880.2344      -2244.3384
 -13593491.09747 -10436588.33746  21571828.6044   21571831.3464
       941.3284        733.5024
 -10150491.63647  -7838520.08446  20848615.5804   20848619.6704
      -803.2034       -625.8734
  -4551857.24345  -3423971.07745  23850182.2294   23850185.7324
      2303.2974       1794.7774
 98  6 17 16 46 45.0020000  0  6G 4G 8G 9G 5G24G30
   5032621.78646   3943952.48046  22124682.6664   22124685.9364
     -3065.8594      -2388.9814
  -4814283.36146  -3626396.07046  22166237.1504   22166241.4634
      -697.2194       -543.2874
   4197241.42446   3281451.63346  22593055.7054   22593060.2174
     -2887.5944      -2250.0734
 -13607569.08547 -10447558.18646  21569149.5024   21569152.4084
       935.7034        729.1194
 -10138378.58847  -7829081.33546  20850920.7294   20850924.2444
      -811.9534       -632.6914
  -4586394.00045  -3450882.83244  23843609.6974   23843614.1394
      2301.5634       1793.4254
 98  6 17 16 47  0.0020000  0  6G 4G 8G 9G 5G24G30
   5078660.51146   3979826.80346  22133443.4794   22133447.0294
     -3072.6254      -2394.2534
  -4803745.02346  -3618184.35946  22168242.5884   22168246.9364
      -707.9064       -551.6154
   4240608.83646   3315244.37646  22601308.7994   22601313.1464
     -2894.7344      -2255.6374
 -13621562.14947 -10458461.86946  21566486.4244   21566489.5884
       929.9844        724.6634
 -10126133.27147  -7819539.53046  20853250.9244   20853254.1824
      -820.7974       -639.5824
  -4620904.21645  -3477773.87544  23837042.9474   23837046.3224
      2299.7344       1792.0014
 98  6 17 16 47 15.0020000  0  6G 4G 8G 9G 5G24G30
   5124799.75646   4015779.44446  22142223.6974   22142227.0254
     -3079.2344      -2399.4034
  -4793046.33846  -3609847.73446  22170278.9324   22170283.3734
      -718.5784       -559.9314
   4284082.31146   3349119.79446  22609581.3464   22609585.8694
     -2901.7034      -2261.0674
 -13635469.30247 -10469298.60846  21563840.0884   21563842.7134
       924.3444        720.2684
 -10113755.41947  -7809894.44746  20855606.5104   20855609.7564
      -829.5624       -646.4124
  -4655385.49445  -3504642.37244  23830481.5804   23830485.3544
      2297.7664       1790.4674
 98  6 17 16 47 30.0020000  0  7G10G 4G 8G 9G 5G24G30
    -18694.40951                  24651121.3614
      2336.9694
   5171038.40246   4051809.55646  22151022.6824   22151026.0214
     -3085.9694      -2404.6514
  -4782186.43146  -3601385.47846  22172345.4794   22172349.6864
      -729.4374       -568.3934
   4327659.70846   3383076.17946  22617873.8384   22617878.0804
     -2908.5784      -2266.4254
 -13649293.23146 -10480070.50946  21561209.6894   21561212.3264
       918.7974        715.9464
 -10101246.48147  -7800147.22946  20857986.8614   20857990.3894
      -838.3284       -653.2434
  -4689838.11045  -3531488.55644  23823925.2054   23823927.4204
      2295.9224       1789.0304
 98  6 17 16 47 45.0020000  0  7G10G 4G 8G 9G 5G24G30
    -53745.65041                  24644449.9084
      2336.5314
   5217378.02946   4087918.34046  22159840.6274   22159844.2834
     -3092.6564      -2409.8624
  -4771163.91346  -3592796.50646  22174442.6274   22174446.4594
      -740.2504       -576.8184
   4371337.99646   3417111.18546  22626185.5574   22626189.8814
     -2915.1414      -2271.5384
 -13663032.93146 -10490776.77446  21558595.1194   21558598.5764
       913.1564        711.5504
 -10088606.05447  -7790297.54546  20860392.3694   20860395.6274
      -847.0784       -660.0614
  -4724263.24945  -3558313.32344  23817373.8384   23817376.7214
      2294.0164       1787.5454
 98  6 17 16 48  0.0020000  0  7G10G 4G 8G 9G 5G24G30
    -88790.65941                  24637783.4164
      2336.1414
   5263816.55746   4124104.19746  22168677.9474   22168682.0494
     -3099.2194      -2414.9764
  -4759980.18246  -3584081.92846  22176570.7914   22176574.3654
      -750.9224       -585.1344
   4415111.30146   3451220.24746  22634515.3224   22634519.6584
     -2921.2664      -2276.3114
 -13676689.65646 -10501418.36546  21555996.0884   21555999.8854
       907.6724        707.2774
 -10075835.57147  -7780346.51546  20862822.1894   20862825.6584
      -855.6874       -666.7694
  -4758660.03245  -3585115.94645  23810828.8224   23810832.3504
      2292.1254       1786.0714
 98  6 17 16 48 15.0020000  0  7G10G 4G 8G 9G 5G24G30
   -123830.62941                  24631115.7294
      2335.7664
   5310352.35046   4160365.83746  22177533.0574   22177537.0644
     -3105.6724      -2420.0044
  -4748637.65446  -3575243.60646  22178729.3304   22178733.3034
      -761.5624       -593.4254
   4458975.79746   3485400.36346  22642862.5964   22642866.9324
     -2927.4534      -2281.1324
 -13690264.24246 -10511995.96646  21553413.0574   21553417.3814
       902.1724        702.9914
 -10062936.24847  -7770295.08446  20865276.7914   20865280.7524
      -864.3754       -673.5394
  -4793025.11245  -3611893.92544  23804288.9944   23804291.5144
      2289.7504       1784.2214
 98  6 17 16 48 30.0020000  0  7G10G 4G 8G 9G 5G24G30
   -158865.01141     -7277.76351  24624448.1824   24624455.4284
      2335.3594       1819.7614
   5356984.54246   4196702.60346  22186406.8144   22186410.7754
     -3112.0004      -2424.9354
  -4737134.56346  -3566280.15646  22180918.6894   22180922.7094
      -772.2034       -601.7174
   4502933.43947   3519653.06646  22651227.5494   22651230.7604
     -2933.6254      -2285.9424
 -13703754.77946 -10522508.05846  21550845.8694   21550850.3694
       896.4844        698.5594
 -10049904.88547  -7760140.77346  20867756.6044   20867760.9864
      -873.1414       -680.3694
  -4827353.08244  -3638642.92543  23797756.2214   23797760.9084
      2287.2664       1782.2854
 98  6 17 16 48 45.0020000  0  7G10G 4G 8G 9G 5G24G30
   -193892.87542    -34572.10442  24617782.9394   24617788.5184
      2334.9224       1819.4204
   5403711.07747   4233112.88546  22195298.7754   22195302.6314
     -3118.3284      -2429.8664
  -4725473.97846  -3557194.00546  22183137.4474   22183141.3034
      -782.6564       -609.8624
   4546984.42346   3553978.48446  22659610.1584   22659613.7794
     -2939.9694      -2290.8854
 -13717159.48146 -10532953.27846  21548295.1744   21548299.2644
       890.7664        694.1034
 -10036743.30947  -7749885.00046  20870261.2914   20870266.0374
      -881.8754       -687.1754
  -4861644.85744  -3665363.72143  23791230.7994   23791236.0374
      2284.8754       1780.4224
 98  6 17 16 49  0.0020000  0  7G10G 4G 8G 9G 5G24G30
   -228911.47041    -61859.25742  24611117.1274   24611124.8184
      2334.1724       1818.8354
   5450533.14047   4269597.59646  22204208.8614   22204211.8034
     -3124.5784      -2434.7364
  -4713652.91646  -3547982.80246  22185387.0964   22185391.7254
      -793.5164       -618.3244
   4591133.72246   3588380.52646  22668011.2294   22668015.5064
     -2946.6564      -2296.0964
 -13730479.37847 -10543332.41546  21545760.4714   21545764.3614
       885.1564        689.7324
 -10023447.27247  -7739524.45446  20872791.2994   20872795.4364
      -890.9694       -694.2614
  -4895901.05244  -3692056.85443  23784711.8464   23784715.4324
      2282.5784       1778.6324
 98  6 17 16 49 15.0020000  0  7G10G 4G 8G 9G 5G24G30
   -263918.13741    -89137.12341  24604455.9794   24604463.8344
      2333.3594       1818.2024
   5497446.58347   4306153.52946  22213136.1194   22213139.2254
     -3130.5004      -2439.3514
  -4701668.17346  -3538644.03946  22187667.8074   22187672.7874
      -804.4374       -626.8344
   4635384.07846   3622861.29846  22676431.7054   22676436.5214
     -2953.4064      -2301.3564
 -13743712.06247 -10553643.60046  21543242.5334   21543246.1434
       879.2664        685.1424
 -10010014.29947  -7729057.20646  20875347.6664   20875351.4984
      -900.0944       -701.3724
  -4930121.25644  -3718721.90843  23778199.6434   23778204.2134
      2280.1724       1776.7574
 98  6 17 16 49 30.0020000  0  7G10G 4G 8G 9G 5G24G30
   -298910.02541   -116403.49141  24597797.4634   24597807.8964
      2332.2664       1817.3504
   5544450.40147   4342779.87346  22222080.5644   22222084.0334
     -3136.6724      -2444.1604
  -4689517.21746  -3529175.74646  22189979.4004   22189983.8184
      -815.6414       -635.5644
   4679738.48146   3657423.15246  22684871.7684   22684876.4554
     -2960.4694      -2306.8594
 -13756856.12846 -10563885.72946  21540740.9244   21540744.5334
       873.3134        680.5034
  -9996442.74347  -7718481.97146  20877930.2684   20877934.1004
      -909.3594       -708.5924
  -4964305.09945  -3745358.65944  23771695.4474   23771698.6354
      2277.7504       1774.8704
 98  6 17 16 49 45.0020000  0  7G10G 4G 8G 9G 5G24G30
   -333884.60341   -143656.31842  24591143.0804   24591148.5294
      2331.0004       1816.3644
   5591547.00946   4379478.52146  22231042.9084   22231046.8114
     -3142.9224      -2449.0304
  -4677201.28046  -3519578.92046  22192323.3694   22192327.1194
      -826.5164       -644.0384
   4724197.20446   3692066.27646  22693332.4084   22693337.7644
     -2967.3594      -2312.2284
 -13769910.99347 -10574058.35046  21538256.8074   21538260.2524
       867.2814        675.8044
  -9982734.05547  -7707799.88246  20880538.7214   20880542.6004
      -918.5314       -715.7394
  -4998455.89545  -3771969.64745  23765196.7524   23765200.9364
      2275.5784       1773.1784
 98  6 17 16 50  0.0020000  0  7G10G 4G 8G 9G 5G24G30
   -368840.34741   -170894.50742  24584489.7134   24584493.8034
      2329.7194       1815.3654
   5638737.64846   4416250.43746  22240022.7214   22240027.1394
     -3149.2814      -2453.9854
  -4664724.55046  -3509856.80846  22194697.8224   22194700.9754
      -837.1564       -652.3304
   4768759.96746   3726790.46546  22701812.6824   22701817.7684
     -2974.4374      -2317.7444
 -13782875.07447 -10584160.23046  21535789.9554   21535793.0494
       861.2034        671.0674
  -9968886.53647  -7697009.60046  20883174.0574   20883178.1584
      -927.8914       -723.0324
  -5032572.22945  -3798553.75345  23758704.1194   23758709.6504
      2273.1564       1771.2914
 98  6 17 16 50 15.0020000  0  7G10G 4G 8G 9G 5G24G30
   -403777.55842   -198118.22541  24577842.5964   24577847.5184
      2328.5164       1814.4284
   5686024.04046   4453096.96146  22249021.2444   22249025.5804
     -3155.6724      -2458.9654
  -4652087.65546  -3500009.88946  22197102.1974   22197106.2054
      -847.8444       -660.6574
   4813428.54146   3761597.11646  22710312.7604   22710317.5764
     -2981.4374      -2323.1984
 -13795748.70147 -10594191.62446  21533340.2754   21533343.0064
       855.2344        666.4164
  -9954899.07247  -7686110.29046  20885835.7524   20885840.0414
      -937.1414       -730.2394
  -5066653.12445  -3825110.29445  23752219.6584   23752224.0184
      2270.8754       1769.5134
 98  6 17 16 50 30.0020000  0  7G10G 4G 8G 9G 5G24G30
   -438695.55142   -225326.97041  24571198.3384   24571203.2834
      2327.2034       1813.4054
   5733408.06046   4490019.56246  22258037.8464   22258042.1004
     -3162.2344      -2464.0794
  -4639287.38946  -3490035.66346  22199537.9084   22199542.3144
      -858.9064       -669.2784
   4858205.45446   3796488.19546  22718833.3074   22718837.9244
     -2988.7974      -2328.9334
 -13808532.20347 -10604152.80346  21530907.7444   21530910.9674
       849.2344        661.7414
  -9940772.01447  -7675102.18646  20888523.9714   20888527.6974
      -946.4844       -737.5204
  -5100698.67645  -3851639.26245  23745740.5414   23745745.9674
      2268.5784       1767.7234
 98  6 17 16 50 45.0020000  0  7G10G 4G 8G 9G 5G24G30
   -473594.31742   -252520.72542  24564554.6114   24564559.7564
      2325.8594       1812.3584
   5780890.58146   4527018.92246  22267073.7834   22267077.7794
     -3168.8914      -2469.2654
  -4626320.89546  -3479931.89546  22202005.7914   22202009.7054
      -870.0314       -677.9464
   4903090.13746   3831463.25946  22727374.6894   22727379.1434
     -2995.8594      -2334.4364
 -13821227.33947 -10614045.10646  21528492.1354   21528495.3694
       843.3594        657.1634
  -9926505.72247  -7663985.58446  20891238.6194   20891242.3574
      -955.7814       -744.7654
  -5134711.41845  -3878142.66445  23739268.2364   23739272.2914
      2266.3284       1765.9704
 98  6 17 16 51  0.0020000  0  7G10G 4G 8G 9G 5G24G30
   -508474.03641   -279699.60742  24557919.6664   24557925.3854
      2324.7664       1811.5064
   5828472.68246   4564095.87346  22276128.2604   22276132.0214
     -3175.4374      -2474.3674
  -4613188.47046  -3469698.84946  22204504.9324   22204508.5294
      -881.0004       -686.4944
   4948078.48846   3866519.10046  22735935.7444   22735940.3144
     -3002.5624      -2339.6594
 -13833835.43447 -10623869.59547  21526092.7684   21526095.8614
       837.6724        652.7314
  -9912099.40847  -7652759.88446  20893979.9474   20893984.5764
      -965.1414       -752.0584
  -5168689.84745  -3904619.33445  23732801.9944   23732806.4714
      2264.0474       1764.1924
 98  6 17 16 51 15.0020000  0  7G10G 4G 8G 9G 5G24G30
   -543337.37042   -306865.83042  24551284.3224   24551291.0374
      2323.6414       1810.6294
   5876151.85246   4601248.47046  22285201.4324   22285204.7134
     -3181.8124      -2479.3344
  -4599892.32046  -3459338.21546  22207035.0414   22207039.0024
      -891.7974       -694.9074
   4993164.52446   3901651.04446  22744515.4474   22744519.8304
     -3008.8914      -2344.5904
 -13846357.73047 -10633627.23446  21523709.7214   21523712.6154
       831.8444        648.1904
  -9897553.41347  -7641425.35146  20896748.1584   20896752.9514
      -974.2974       -759.1924
  -5202634.20545  -3931069.45745  23726342.1194   23726347.0534
      2261.8914       1762.5124
 98  6 17 16 51 30.0020000  0  7G10G 4G 8G 9G 5G24G30
   -578181.65742   -334017.06842  24544654.5024   24544660.9594
      2322.3134       1809.5944
   5923929.58747   4638477.86046  22294293.2754   22294296.2054
     -3188.5474      -2484.5824
  -4586434.84646  -3448851.86946  22209595.4634   22209598.8854
      -902.4844       -703.2354
   5038344.71646   3936856.34646  22753113.0184   22753117.0144
     -3015.1094      -2349.4364
 -13858790.36847 -10643314.99546  21521344.1044   21521347.1624
       825.9064        643.5634
  -9882870.67347  -7629984.25746  20899542.4004   20899546.3854
      -983.3124       -766.2184
  -5236546.66245  -3957494.69945  23719889.6194   23719894.6354
      2259.8284       1760.9054
 98  6 17 16 51 45.0020000  0  7G10G 4G 8G 9G 5G24G30
   -613006.55642   -361153.29142  24538026.4794   24538029.7134
      2320.9384       1808.5234
   5971808.31147   4675785.95946  22303404.3464   22303407.6744
     -3195.3594      -2489.8904
  -4572818.85546  -3438242.01346  22212186.8854   22212190.2604
      -912.9694       -711.4044
   5083618.13246   3972134.32146  22761728.2134   22761732.2684
     -3021.3914      -2354.3304
 -13871134.17647 -10652933.54946  21518995.0104   21518998.0684
       819.8444        638.8394
  -9868055.21447  -7618439.73846  20902361.5254   20902365.2644
      -992.1564       -773.1094
  -5270428.76245  -3983896.32845  23713441.5184   23713445.3264
      2257.6724       1759.2254
 98  6 17 16 52  0.0020000  0  7G10G 4G 8G 9G 5G24G30
   -647814.65642   -388276.35942  24531402.7444   24531408.2644
      2320.0314       1807.8174
   6019785.77247   4713170.99946  22312534.3774   22312538.3854
     -3201.7344      -2494.8584
  -4559049.24246  -3427512.46846  22214806.9474   22214810.2294
      -923.1254       -719.3184
   5128983.45646   4007483.91946  22770360.8614   22770365.0804
     -3027.4374      -2359.0424
 -13883389.47447 -10662483.12346  21516662.7684   21516665.4394
       814.0944        634.3594
  -9853108.89547  -7606793.26046  20905205.6274   20905209.6114
     -1000.8284       -779.8664
  -5304278.96645  -4010273.07545  23707000.3304   23707004.8774
      2255.5004       1757.5324
 98  6 17 16 52 15.0020000  0  7G10G 4G 8G 9G 5G24G30
   -682607.13042   -415387.32942  24524782.6584   24524788.7294
      2319.0474       1807.0504
   6067861.33147   4750632.46846  22321682.6894   22321686.4754
     -3208.2194      -2499.9114
  -4545122.64246  -3416660.58446  22217457.3464   22217461.2714
      -933.7664       -727.6104
   5174442.26946   4042906.35546  22779011.4324   22779015.6274
     -3033.6414      -2363.8764
 -13895554.84547 -10671962.62546  21514347.6974   21514350.6274
       808.0474        629.6474
  -9838030.28747  -7595043.69746  20908074.9634   20908079.1464
     -1009.5164       -786.6364
  -5338091.94445  -4036620.82245  23700566.2754   23700569.6624
      2253.0164       1755.5974
 98  6 17 16 52 30.0020000  0  7G10G 4G 8G 9G 5G24G30
   -717385.26242   -442487.04542  24518163.0964   24518169.6114
      2318.0944       1806.3074
   6116032.59547   4788168.52246  22330849.2754   22330853.0254
     -3214.5944      -2504.8784
  -4531035.20446  -3405683.37046  22220138.1664   22220143.2174
      -944.5474       -736.0114
   5219992.72446   4078400.20646  22787679.3464   22787684.2444
     -3039.7814      -2368.6614
 -13907630.19447 -10681371.99346  21512049.6114   21512052.4714
       801.9534        624.8994
  -9822823.48447  -7583194.24746  20910968.7294   20910973.0184
     -1018.0474       -793.2834
  -5371868.41445  -4062940.14145  23694139.0574   23694142.4794
      2250.5784       1753.6974
 98  6 17 16 52 45.0020000  0  7G10G 4G 8G 9G 5G24G30
   -752150.79742   -469577.01141  24511547.2214   24511553.3854
      2317.1564       1805.5764
   6164297.62047   4825777.63446  22340033.6664   22340037.2054
     -3220.8754      -2509.7734
  -4516788.16046  -3394581.78246  22222849.3614   22222854.3304
      -955.1414       -744.2654
   5265635.02446   4113965.62246  22796364.5804   22796369.3264
     -3045.9534      -2373.4704
 -13919613.78947 -10690709.85246  21509769.4794   21509772.8184
       795.6884        620.0164
  -9807489.58447  -7571245.74246  20913886.5644   20913890.7834
     -1026.5944       -799.9434
  -5405610.15146  -4089232.39945  23687717.7364   23687720.7364
      2248.1884       1751.8344
 98  6 17 16 53  0.0020000  0  7G10G 4G 8G 9G 5G24G30
   -786901.93042   -496655.74141  24504934.8934   24504938.6784
      2316.1564       1804.7974
   6212656.47147   4863459.85046  22349236.3074   22349239.8574
     -3227.0944      -2514.6194
  -4502385.70546  -3383359.08546  22225589.7754   22225593.8304
      -965.3124       -752.1924
   5311368.92546   4149602.40846  22805067.5414   22805072.3114
     -3052.0944      -2378.2554
 -13931503.25447 -10699974.37146  21507507.1584   21507509.9594
       789.3754        615.0974
  -9792028.38747  -7559198.05146  20916829.1044   20916833.6864
     -1035.0784       -806.5544
  -5439316.14345  -4115496.77945  23681303.6824   23681307.5144
      2245.7974       1749.9724
 98  6 17 16 53 15.0020000  0  7G10G 4G 8G 9G 5G24G30
   -821637.47041   -523722.27141  24498323.8774   24498332.1664
      2315.2194       1804.0674
   6261108.90347   4901214.98846  22358456.4554   22358459.9364
     -3233.2664      -2519.4284
  -4487828.18846  -3372015.57446  22228359.7444   22228363.2134
      -975.6874       -760.2764
   5357198.62446   4185313.84646  22813788.7604   22813793.2714
     -3058.5784      -2383.3084
 -13943294.90347 -10709162.67246  21505263.0104   21505265.2834
       782.8134        609.9844
  -9776438.65447  -7547050.21046  20919795.4634   20919800.1974
     -1043.5624       -813.1664
  -5472985.90245  -4141732.94345  23674896.6894   23674900.8734
      2243.5474       1748.2184
 98  6 17 16 53 30.0020000  0  7G10G 4G 8G 9G 5G24G30
   -856358.98242   -550777.91741  24491717.4794   24491721.6504
      2314.2974       1803.3484
   6309653.58647   4939042.00446  22367694.1274   22367697.1974
     -3239.3914      -2524.2004
  -4473116.38146  -3360551.83446  22231159.3614   22231162.5724
      -985.9534       -768.2754
   5403125.68746   4221101.14046  22822528.2604   22822532.3734
     -3065.1094      -2388.3974
 -13954988.97647 -10718274.93246  21503037.9394   21503040.6354
       776.4064        604.9924
  -9760723.14847  -7534804.36546  20922786.1354   20922790.2954
     -1051.8754       -819.6434
  -5506624.15845  -4167944.56045  23668495.2684   23668499.7444
      2241.5004       1746.6234
 98  6 17 16 53 45.0020000  0  7G10G 4G 8G 9G 5G24G30
   -891066.47742   -577822.63941  24485113.6584   24485118.8504
      2313.3754       1802.6304
   6358292.23047   4976942.23746  22376949.7214   22376953.1894
     -3245.7344      -2529.1444
  -4458248.17646  -3348966.22946  22233988.6434   22233991.7364
      -996.4844       -776.4814
   5449154.63346   4256967.82146  22831287.2834   22831291.1624
     -3072.0624      -2393.8154
 -13966587.40647 -10727312.65946  21500830.6114   21500833.4474
       770.0634        600.0494
  -9744879.29047  -7522458.49546  20925801.1114   20925804.5804
     -1060.6414       -826.4734
  -5540226.66445  -4194128.30245  23662100.7294   23662105.0064
      2238.7814       1744.5054
 98  6 17 16 54  0.0020000  0  7G10G 4G 8G 9G 5G24G30
   -925761.75242   -604857.81641  24478510.3304   24478516.7524
      2312.6414       1802.0584
   6407025.35047   5014916.08346  22386223.3694   22386227.1434
     -3252.0314      -2534.0504
  -4443222.99146  -3337258.31846  22236848.1044   22236851.1864
     -1006.9224       -784.6144
   5495287.40646   4292915.41746  22840066.2914   22840070.3464
     -3078.9534      -2399.1844
 -13978091.70247 -10736277.04246  21498641.6274   21498644.1464
       763.9064        595.2524
  -9728902.70747  -7510009.21846  20928841.3614   20928844.7014
     -1069.6094       -833.4624
  -5573787.04145  -4220279.22245  23655714.5184   23655720.4124
      2235.9384       1742.2894
 98  6 17 16 54 15.0020000  0  7G10G 4G 8G 9G 5G24G30
   -960448.07042   -631886.00742  24471910.4474   24471922.7564
      2312.1254       1801.6564
   6455852.86946   5052963.49946  22395514.9944   22395518.6044
     -3258.3284      -2538.9574
  -4428039.36746  -3325426.93546  22239737.6354   22239741.6074
     -1017.6724       -792.9914
   5541522.32646   4328942.61046  22848864.9324   22848869.0454
     -3085.7344      -2404.4684
 -13989505.89847 -10745171.22546  21496469.5024   21496471.7294
       757.9224        590.5884
  -9712791.06147  -7497454.69446  20931907.3614   20931910.7954
     -1078.6564       -840.5114
  -5607305.50045  -4246397.47645  23649336.2364   23649341.6044
      2233.1724       1740.1344
 98  6 17 16 54 30.0020000  0  7G10G 4G 8G 9G 5G24G30
   -995123.77043   -658906.02942  24465311.9474   24465319.2754
      2311.4224       1801.1084
   6504775.31446   5091084.87246  22404824.4394   22404828.3424
     -3264.5784      -2543.8274
  -4412691.53046  -3313467.59546  22242658.1434   22242662.3734
     -1028.6094       -801.5144
   5587859.89346   4365049.77646  22857682.4084   22857686.7914
     -3092.5624      -2409.7894
 -14000827.92947 -10753993.57646  21494314.9004   21494317.5024
       751.8134        585.8284
  -9696542.61847  -7484793.57246  20934999.1744   20935003.3814
     -1087.7664       -847.6104
  -5640783.62745  -4272484.28945  23642965.2134   23642968.9754
      2230.6884       1738.1984
 98  6 17 16 54 45.0020000  0  7G10G 4G 8G 9G 5G24G30
  -1029789.10043   -685917.90242  24458714.7524   24458722.7714
      2310.6724       1800.5244
   6553791.35946   5129279.19046  22414151.8854   22414155.7754
     -3270.8124      -2548.6854
  -4397181.26146  -3301381.66846  22245610.0644   22245614.0494
     -1039.3284       -809.8664
   5634300.02246   4401236.87346  22866519.9164   22866524.2174
     -3099.4374      -2415.1464
 -14012059.66447 -10762745.57146  21492177.6354   21492180.3894
       745.7664        581.1164
  -9680156.11047  -7472024.87446  20938117.3144   20938122.3774
     -1097.0944       -854.8784
  -5674225.20145  -4298542.63245  23636601.6584   23636605.2684
      2228.2034       1736.2624
 98  6 17 16 55  0.0020000  0  7G10G 4G 8G 9G 5G24G30
  -1064442.47743   -712920.45742  24452119.8384   24452129.0764
      2309.7974       1799.8424
   6602899.41646   5167545.18446  22423496.7444   22423501.1154
     -3276.9064      -2553.4334
  -4381512.00846  -3289171.87646  22248591.5724   22248595.4984
     -1049.8754       -818.0844
   5680841.91946   4437503.27146  22875376.4634   22875381.0214
     -3106.0944      -2420.3334
 -14023201.00047 -10771427.12946  21490057.7914   21490060.4514
       739.7814        576.4534
  -9663628.29147  -7459146.04946  20941262.6194   20941267.5064
     -1106.5944       -862.2814
  -5707627.95045  -4324570.73945  23630245.0724   23630247.8854
      2225.5474       1734.1924
 98  6 17 16 55 15.0020000  0  7G10G 4G 8G 9G 5G24G30
  -1099081.78842   -739912.07442  24445528.0964   24445533.7564
      2308.9224       1799.1604
   6652099.63646   5205883.00546  22432859.4004   22432863.8544
     -3282.9534      -2558.1454
  -4365682.56546  -3276837.25446  22251603.4864   22251607.6004
     -1060.5944       -826.4374
   5727484.11346   4473847.82346  22884251.9634   22884256.0294
     -3112.6564      -2425.4464
 -14034251.58647 -10780037.98646  21487954.6974   21487957.5104
       733.7344        571.7414
  -9646957.22647  -7446155.60846  20944434.9794   20944439.5614
     -1116.0784       -869.6714
  -5740989.76146  -4350566.93545  23623896.6114   23623899.6704
      2222.8754       1732.1104
 98  6 17 16 55 30.0020000  0  7G10G 4G 8G 9G 5G24G30
  -1133709.55242   -766894.66341  24438939.0254   24438943.8074
      2308.2034       1798.6004
   6701388.89846   5244290.21646  22442239.1044   22442242.9004
     -3288.8124      -2562.7114
  -4349692.32046  -3264377.32746  22254646.5104   22254650.5294
     -1071.2664       -834.7524
   5774221.69246   4510266.70546  22893145.5184   22893149.6894
     -3118.8594      -2430.2804
 -14045212.55247 -10788579.00146  21485868.8224   21485871.7404
       727.9224        567.2124
  -9630145.65947  -7433055.68946  20947634.2444   20947638.4864
     -1125.3284       -876.8794
  -5774312.88245  -4376532.97945  23617555.4324   23617559.6744
      2220.3594       1730.1504
 98  6 17 16 55 45.0020000  0  7G10G 4G 8G 9G 5G24G30
  -1168323.55142   -793866.48441  24432352.7364   24432358.6544
      2307.1094       1797.7484
   6750766.52547   5282766.27446  22451635.2054   22451638.2054
     -3294.7344      -2567.3254
  -4333541.27846  -3251792.10446  22257719.6584   22257723.5964
     -1082.0784       -843.1784
   5821052.35446   4546758.11146  22902057.3144   22902061.6044
     -3125.1414      -2435.1754
 -14056086.90647 -10797052.51546  21483799.2214   21483802.5024
       722.0634        562.6464
  -9613195.02447  -7419847.39846  20950859.6974   20950863.7874
     -1134.5944       -884.0994
  -5807595.37746  -4402467.35345  23611222.3144   23611226.9794
      2217.3914       1727.8374
 98  6 17 16 56  0.0020000  0  7G10G 4G 8G 9G 5G24G30
  -1202921.57543   -820825.89941  24425768.8464   24425774.3074
      2306.0004       1796.8834
   6800231.93047   5321310.74346  22461048.2684   22461051.5844
     -3300.5474      -2571.8554
  -4317228.30346  -3239080.70146  22260824.1744   22260827.9474
     -1092.8594       -851.5794
   5867975.95246   4583321.92346  22910986.7754   22910990.9124
     -3131.2194      -2439.9114
 -14066870.77547 -10805455.52146  21481747.0574   21481750.4434
       715.8444        557.8004
  -9596107.20247  -7406532.21446  20954111.5254   20954115.3574
     -1143.6564       -891.1614
  -5840833.50446  -4428367.18145  23604896.9394   23604902.2484
      2214.5634       1725.6334
 98  6 17 16 56 15.0020000  0  7G10G 4G 8G 9G 5G24G30
  -1237503.33444   -847772.64142  24419188.1824   24419195.0024
      2304.8284       1795.9704
   6849781.82147   5359921.03946  22470477.1044   22470480.1974
     -3306.1094      -2576.1894
  -4300753.81646  -3226243.45346  22263958.9864   22263962.3504
     -1103.7664       -860.0774
   5914988.56746   4619955.10346  22919933.1274   22919937.2874
     -3137.1564      -2444.5374
 -14077561.66147 -10813786.06947  21479712.9794   21479716.6354
       709.5784        552.9184
  -9578886.56047  -7393113.52946  20957388.6664   20957392.3224
     -1152.4224       -897.9914
  -5874034.66545  -4454238.22045  23598579.3934   23598584.3034
      2212.2504       1723.8314
 98  6 17 16 56 30.0020000  0  7G10G 4G 8G 9G 5G24G30
  -1272067.03644   -874705.38042  24412610.1194   24412615.9204
      2303.5944       1795.0084
   6899412.36946   5398594.18146  22479921.3464   22479924.4284
     -3311.3124      -2580.2444
  -4284116.56746  -3213279.37346  22267124.7524   22267128.7134
     -1114.4534       -868.4054
   5962089.17346   4656656.84146  22928895.7444   22928900.1394
     -3142.9224      -2449.0304
 -14088157.02047 -10822042.18547  21477696.7364   21477700.5684
       703.1254        547.8904
  -9561535.97947  -7379593.60446  20960690.1744   20960693.7014
     -1160.9534       -904.6394
  -5907202.02946  -4480082.88845  23592268.0254   23592272.6544
      2210.0634       1722.1274
 98  6 17 16 56 45.0020000  0  7G10G 4G 8G 9G 5G24G30
  -1306608.67644   -901620.85641  24406037.8774   24406043.4794
      2301.9694       1793.7424
   6949121.43346   5437328.50746  22489380.9084   22489384.5884
     -3316.5944      -2584.3594
  -4267321.69246  -3200192.46146  22270320.7994   22270325.3934
     -1124.7664       -876.4414
   6009275.52646   4693425.38546  22937875.2914   22937879.3694
     -3148.5784      -2453.4374
 -14098655.97447 -10830223.18547  21475699.0184   21475702.8854
       696.7814        542.9464
  -9544058.52747  -7365974.80446  20964016.0724   20964019.7754
     -1169.3594       -911.1894
  -5940335.40745  -4505901.08645  23585962.9474   23585967.2254
      2207.6884       1720.2764
 98  6 17 16 57  0.0020000  0  7G10G 4G 8G 9G 5G24G30
  -1341124.74243   -928516.35342  24399469.1194   24399476.6354
      2300.1564       1792.3304
   6998912.17746   5476126.48446  22498855.6194   22498859.9324
     -3322.1414      -2588.6814
  -4250372.41346  -3186985.22346  22273546.2444   22273551.1784
     -1135.0784       -884.4764
   6056547.13246   4730260.38546  22946870.8774   22946874.8964
     -3154.2504      -2457.8574
 -14109058.63347 -10838329.15146  21473719.2214   21473723.0534
       690.2974        537.8944
  -9526454.06247  -7352257.04446  20967366.0254   20967370.3734
     -1177.8124       -917.7764
  -5973430.43245  -4531689.38145  23579664.5644   23579668.2564
      2205.0164       1718.1944
 98  6 17 16 57 15.0020000  0  7G10G 4G 8G 9G 5G24G30
  -1375613.19643   -955390.52441  24392905.7524   24392912.7524
      2298.2974       1790.8814
   7048785.81547   5514989.04546  22508346.4164   22508349.9794
     -3327.7344      -2593.0404
  -4233268.30646  -3173657.37246  22276801.3384   22276805.2754
     -1145.5314       -892.6224
   6103902.46946   4767160.63846  22955881.9164   22955886.3114
     -3159.8284      -2462.2044
 -14119365.70147 -10846360.63446  21471757.9394   21471761.4554
       684.0004        532.9874
  -9508725.98547  -7338442.96246  20970739.6824   20970744.0534
     -1185.8914       -924.0714
  -6006488.33545  -4557448.74845  23573373.6664   23573377.6624
      2202.7344       1716.4164
 98  6 17 16 57 30.0020000  0  7G10G 4G 8G 9G 5G24G30
  -1410072.92742   -982242.09741  24386347.7914   24386354.3894
      2296.2974       1789.3224
   7098743.88447   5553917.40546  22517853.0964   22517856.4474
     -3333.3444      -2597.4114
  -4216005.51746  -3160205.89146  22280086.3464   22280089.8504
     -1156.1724       -900.9134
   6151343.34846   4804127.53046  22964909.8614   22964914.1044
     -3165.6254      -2466.7214
 -14129578.32547 -10854318.51746  21469814.4164   21469817.9904
       677.7504        528.1174
  -9490877.17347  -7324534.79246  20974136.1974   20974140.3344
     -1193.9224       -930.3294
  -6039512.15545  -4583181.53845  23567089.1044   23567093.1354
      2200.4844       1714.6634
 98  6 17 16 57 45.0020000  0  8G10G 4G 8G 6G 9G 5G24G30
  -1444503.00942  -1009070.56441  24379795.3774   24379804.5684
      2294.2974       1787.7644
   7148786.00847   5592911.24946  22527375.8074   22527379.3224
     -3339.0624      -2601.8674
  -4198584.38446  -3146630.98646  22283401.2214   22283404.4204
     -1166.7034       -909.1194
    -12051.73053                  25656518.4864
      1506.3284
   6198871.56946   4841162.49246  22973954.3304   22973959.0064
     -3171.5784      -2471.3604
 -14139699.25947 -10862204.96046  21467888.5414   21467892.3854
       671.6414        523.3564
  -9472906.76747  -7310531.87646  20977555.9474   20977559.8264
     -1202.2194       -936.7944
  -6072502.35845  -4608888.16745  23560811.8464   23560815.7714
      2198.1094       1712.8134
 98  6 17 16 58  0.0020000  0  8G10G 4G 8G 6G 9G 5G24G30
  -1478902.67642  -1035875.54541  24373250.4394   24373258.3424
      2292.3134       1786.2184
   7198914.04847   5631972.04546  22536914.9794   22536918.2604
     -3344.7194      -2606.2744
  -4181006.13546  -3132933.65946  22286746.6114   22286750.0104
     -1177.0624       -917.1924
    -34640.39543                  25652221.9554
      1505.4844
   6246489.21246   4878267.13846  22983015.6974   22983020.4794
     -3177.5004      -2475.9744
 -14149727.77947 -10870019.38546  21465980.1664   21465984.1504
       665.4384        518.5234
  -9454812.51547  -7296432.45846  20980999.2214   20981003.0884
     -1210.4694       -943.2224
  -6105456.30846  -4634566.55745  23554541.0884   23554544.4394
      2195.7504       1710.9744
 98  6 17 16 58 15.0020000  0  8G10G 4G 8G 6G 9G 5G24G30
  -1513271.77544  -1062656.62541  24366710.6824   24366715.3114
      2290.1724       1784.5504
   7249128.40447   5671100.10046  22546470.5184   22546473.4364
     -3350.5624      -2610.8284
  -4163272.04346  -3119114.87846  22290121.2444   22290124.4554
     -1187.4694       -925.3004
    -57217.93843                  25647922.9474
      1504.8754
   6294195.90846   4915441.14246  22992093.6114   22992097.7014
     -3183.4064      -2480.5764
 -14159662.38847 -10877760.63546  21464089.3694   21464093.4714
       659.2194        513.6774
  -9436591.95847  -7282234.61646  20984466.4324   20984470.5804
     -1219.0004       -949.8704
  -6138375.76845  -4660218.07945  23548276.5644   23548280.3264
      2193.5004       1709.2214
 98  6 17 16 58 30.0020000  0  8G10G 4G 8G 6G 9G 5G24G30
  -1547608.74245  -1089412.60442  24360176.4714   24360183.2684
      2288.1724       1782.9914
   7299430.36247   5710296.42746  22556042.6194   22556045.5724
     -3356.3754      -2615.3574
  -4145383.17846  -3105175.51446  22293525.3614   22293528.4084
     -1197.6094       -933.2024
    -79788.83443                  25643628.8304
      1504.6094
   6341990.34046   4952683.54746  23001189.0184   23001193.3424
     -3189.1564      -2485.0574
 -14169506.38947 -10885431.27646  21462216.3384   21462220.3224
       653.3594        509.1114
  -9418242.62447  -7267936.44146  20987958.0104   20987962.5924
     -1227.5474       -956.5304
  -6171260.81145  -4685842.75545  23542018.1044   23542021.8894
      2191.1254       1707.3704
 98  6 17 16 58 45.0020000  0  8G10G 4G 8G 6G 9G 5G24G30
  -1581914.60345  -1116144.40142  24353647.4634   24353651.9284
      2285.9694       1781.2744
   7349821.82947   5749562.48946  22565631.6044   22565635.0144
     -3362.4844      -2620.1184
  -4127342.91746  -3091118.18546  22296958.2914   22296961.1864
     -1207.7344       -941.0924
   -102353.20543                  25639335.7834
      1504.0474
   6389872.02446   4989993.95246  23010300.6114   23010304.3144
     -3195.0314      -2489.6354
 -14179260.80847 -10893032.12446  21460360.2444   21460363.9244
       647.2974        504.3874
  -9399764.44647  -7253537.85746  20991474.3304   20991478.2564
     -1236.1564       -963.2394
  -6204106.88645  -4711437.08245  23535768.0334   23535771.9824
      2188.4224       1705.2644
 98  6 17 16 59  0.0020000  0  8G10G 4G 8G 6G 9G 5G24G30
  -1616187.03044  -1142850.12742  24347125.5644   24347130.9904
      2283.7814       1779.5704
   7400306.06946   5788900.84746  22575238.4714   22575241.9394
     -3368.7194      -2624.9764
  -4109149.10646  -3076941.20746  22300420.3384   22300424.2994
     -1218.1254       -949.1884
   -124909.38143     -8200.89152  25635041.9084   25635047.3224
      1503.5004       1171.5584
   6437842.49046   5027373.52546  23019429.0804   23019432.5614
     -3200.9844      -2494.2744
 -14188924.03147 -10900561.90546  21458521.4944   21458524.6464
       641.1094        499.5664
  -9381156.78647  -7239038.36746  20995015.2444   20995019.1004
     -1244.8914       -970.0454
  -6236913.48645  -4737000.64845  23529525.5334   23529529.5184
      2185.8284       1703.2434
 98  6 17 16 59 15.0020000  0  8G10G 4G 8G 6G 9G 5G24G30
  -1650426.20944  -1169529.94141  24340610.5494   24340615.1314
      2281.4694       1777.7684
   7450884.22646   5828312.38146  22584862.9794   22584866.8224
     -3374.9694      -2629.8464
  -4090796.14046  -3062640.20246  22303912.5494   22303917.1194
     -1228.8914       -957.5774
   -147458.29542    -25771.48542  25630751.9714   25630756.6704
      1503.0314       1171.1934
   6485902.56346   5064822.92046  23028574.7444   23028578.4124
     -3207.0164      -2498.9734
 -14198491.30347 -10908016.92146  21456701.0724   21456703.8504
       634.5784        494.4764
  -9362416.77247  -7224435.75546  20998581.2754   20998585.4244
     -1253.7504       -976.9484
  -6269681.14046  -4762533.85445  23523289.7994   23523294.1004
      2183.2194       1701.2094
 98  6 17 16 59 30.0020000  0  8G10G 4G 8G 6G 9G 5G24G30
  -1684632.79043  -1196184.41941  24334100.6274   24334108.8114
      2279.4534       1776.1974
   7501553.61146   5867795.00346  22594505.2914   22594509.6044
     -3380.8444      -2634.4244
  -4072282.36946  -3048213.90846  22307435.7444   22307439.9984
     -1239.5474       -965.8814
   -170000.27443    -43336.59542  25626462.6194   25626468.6664
      1502.5784       1170.8404
   6534052.50646   5102342.33746  23037737.0184   23037741.1314
     -3212.9064      -2503.5634
 -14207961.99047 -10915396.67346  21454898.4794   21454901.3034
       628.1724        489.4854
  -9343544.97347  -7209730.45746  21002172.4794   21002176.6044
     -1262.4844       -983.7544
  -6302410.19146  -4788036.98745  23517061.6584   23517065.3504
      2180.6254       1699.1884
 98  6 17 16 59 45.0020000  0  8G10G 4G 8G 6G 9G 5G24G30
  -1718810.06643  -1222815.91541  24327596.9554   24327605.4204
      2277.5634       1774.7244
   7552308.23747   5907344.03846  22604163.4714   22604166.7054
     -3386.4064      -2638.7584
  -4053611.75046  -3033665.38346  22310989.0104   22310993.4634
     -1249.7814       -973.8564
   -192536.23943    -60897.00442  25622174.5494   25622180.3144
      1502.2194       1170.5604
   6582287.57246   5139928.07346  23046915.7364   23046919.5924
     -3218.4064      -2507.8494
 -14217336.62447 -10922701.57246  21453114.4394   21453117.4514
       621.7664        484.4934
  -9324542.72547  -7194923.50446  21005788.6434   21005792.4634
     -1271.0944       -990.4634
  -6335099.03046  -4813508.79245  23510841.2604   23510844.8814
      2177.8914       1697.0584
 98  6 17 17  0  0.0020000  0  8G10G 4G 8G 6G 9G 5G24G30
  -1752958.89843  -1249425.34142  24321098.9084   24321110.0104
      2275.5474       1773.1534
   7603146.96746   5946958.61946  22613837.8384   22613841.1074
     -3392.1564      -2643.2394
  -4034789.74146  -3018998.89246  22314570.4004   22314574.6544
     -1259.9224       -981.7574
   -215065.99444    -78452.59842  25617886.7134   25617891.1544
      1501.6414       1170.1104
   6630604.00046   5177577.22446  23056110.4554   23056114.3574
     -3223.8594      -2512.0984
 -14226613.89447 -10929930.60646  21451349.0724   21451352.0374
       615.1254        479.3184
  -9305412.81747  -7180017.08246  21009429.0334   21009432.5614
     -1279.6254       -997.1104
  -6367746.17146  -4838948.09845  23504628.6974   23504632.1434
      2174.9844       1694.7934
 98  6 17 17  0 15.0020000  0  8G10G 4G 8G 6G 9G 5G24G30
  -1787076.19743  -1276010.27942  24314607.4084   24314616.7754
      2273.4224       1771.4984
   7654070.02347   5986638.90646  22623528.3544   22623531.7294
     -3397.6724      -2647.5374
  -4015814.86346  -3004213.29146  22318181.2444   22318184.7604
     -1270.1254       -989.7084
   -237586.31143    -96000.84442  25613600.1744   25613604.5214
      1500.9694       1169.5864
   6679002.35746   5215290.19146  23065320.3774   23065323.9754
     -3229.2974      -2516.3354
 -14235790.58747 -10937081.27546  21449602.6194   21449605.5494
       608.3914        474.0714
  -9286154.90047  -7165010.90446  21013093.6194   21013096.6314
     -1288.1874      -1003.7824
  -6400350.98646  -4864354.42945  23498424.2754   23498427.6504
      2172.2664       1692.6754
 98  6 17 17  0 30.0020000  0  8G10G 4G 8G 6G 9G 5G24G30
  -1821161.88145  -1302570.56241  24308121.3694   24308125.7524
      2271.2504       1769.8054
   7705076.04946   6026383.85246  22633234.6664   22633237.6784
     -3403.2034      -2651.8474
  -3996685.15346  -2989307.02646  22321821.3464   22321824.7444
     -1280.5474       -997.8294
   -260095.24342   -113540.32542  25609317.2994   25609324.4284
      1500.0784       1168.8924
   6727481.40046   5253066.03046  23074545.6274   23074550.1624
     -3234.7034      -2520.5484
 -14244865.68747 -10944152.78346  21447875.9394   21447878.7874
       601.5634        468.7504
  -9266768.94547  -7149904.95946  21016782.5574   21016785.7444
     -1296.7194      -1010.4304
  -6432914.61246  -4889728.64845  23492227.0494   23492231.0454
      2169.4384       1690.4714
 98  6 17 17  0 45.0020000  0  8G10G 4G 8G 6G 9G 5G24G30
  -1855214.92245  -1329105.29041  24301640.5414   24301646.1544
      2269.1094       1768.1374
   7756163.89146   6066192.55146  22642956.1504   22642959.5374
     -3408.5474      -2656.0114
  -3977400.27146  -2974279.86346  22325491.2444   22325494.5374
     -1290.7814      -1005.8044
   -282588.66142   -131067.65142  25605036.9004   25605045.0964
      1499.0004       1168.0524
   6776042.12146   5290905.51546  23083786.2994   23083791.2794
     -3240.1254      -2524.7734
 -14253838.73847 -10951144.77146  21446168.6354   21446170.7684
       594.7344        463.4294
  -9247255.13147  -7134699.37846  21020496.0414   21020499.4984
     -1305.1414      -1016.9934
  -6465434.83646  -4915069.06445  23486039.2604   23486042.8114
      2166.5784       1688.2434
 98  6 17 17  1  0.0020000  0  8G10G 4G 8G 6G 9G 5G24G30
  -1889234.06045  -1355613.67341  24295166.9794   24295171.3734
      2266.7814       1766.3234
   7807330.79846   6106062.85846  22652692.7604   22652696.6394
     -3413.7344      -2660.0534
  -3957960.75346  -2959132.20246  22329190.7054   22329193.8574
     -1301.1414      -1013.8764
   -305065.51943   -148581.98242  25600761.8224   25600764.1784
      1497.9384       1167.2244
   6824685.08946   5328809.08846  23093042.8614   23093047.6314
     -3245.6094      -2529.0464
 -14262707.84247 -10958055.76446  21444480.9084   21444483.0064
       587.8134        458.0364
  -9227614.55647  -7119395.03346  21024233.1354   21024237.4244
     -1313.6874      -1023.6534
  -6497913.81846  -4940377.35145  23479858.5574   23479862.3424
      2163.9694       1686.2094
 98  6 17 17  1 15.0020000  0  8G10G 4G 8G 6G 9G 5G24G30
  -1923219.37545  -1382095.70541  24288700.0644   24288701.4824
      2264.6254       1764.6434
   7858575.22746   6145993.56946  22662444.3774   22662448.5964
     -3418.8594      -2664.0464
  -3938366.92146  -2943864.31046  22332919.3774   22332922.0964
     -1311.2974      -1021.7904
   -327527.85443   -166085.09942  25596486.2294   25596490.2714
      1497.0634       1166.5424
   6873410.32846   5366776.77446  23102314.9004   23102319.0844
     -3251.0944      -2533.3204
 -14271473.76447 -10964886.33546  21442812.6824   21442815.3544
       580.9844        452.7154
  -9207843.66347  -7103989.14346  21027995.7444   21028000.1044
     -1322.3754      -1030.4224
  -6530352.66446  -4965654.36845  23473685.6354   23473689.7834
      2161.1884       1684.0424
 98  6 17 17  1 30.0020000  0  8G10G 4G 8G 6G 9G 5G24G30
  -1957173.51444  -1408553.39841  24282238.4244   24282238.8344
      2262.6414       1763.0974
   7909896.04146   6185983.80346  22672210.2294   22672214.6704
     -3423.8594      -2667.9424
  -3918623.62946  -2928479.93546  22336676.2294   22336680.4004
     -1321.0784      -1029.4124
   -349977.31543   -183578.01042  25592214.1744   25592218.9794
      1496.1564       1165.8364
   6922218.84246   5404809.33246  23111603.0104   23111607.4864
     -3256.6874      -2537.6794
 -14280139.28647 -10971638.68546  21441163.8544   21441166.4794
       574.4694        447.6384
  -9187944.30347  -7088483.14546  21031782.5334   21031786.1894
     -1330.8284      -1037.0094
  -6562749.11946  -4990898.32945  23467520.8144   23467524.4944
      2158.3754       1681.8514
 98  6 17 17  1 45.0020000  0  8G10G 4G 8G 6G 9G 5G24G30
  -1991097.13144  -1434987.30141  24275783.1274   24275790.5374
      2260.6254       1761.5264
   7961292.18546   6226032.72546  22681990.7294   22681995.3694
     -3428.8444      -2671.8264
  -3898733.33146  -2912981.00446  22340461.2754   22340465.4244
     -1330.7814      -1036.9724
   -372411.68842   -201059.35941  25587943.7444   25587951.6004
      1495.2814       1165.1544
   6971113.05746   5442908.67346  23120907.2524   23120911.9394
     -3262.4064      -2542.1354
 -14288706.69547 -10978314.59047  21439533.5184   21439536.2834
       567.9384        442.5494
  -9167917.61647  -7072877.92246  21035593.2604   21035597.2914
     -1339.2814      -1043.5964
  -6595102.67746  -5016108.88345  23461364.2604   23461367.3424
      2155.5944       1679.6834
 98  6 17 17  2  0.0020000  0  8G10G 4G 8G 6G 9G 5G24G30
  -2024990.35544  -1461397.60742  24269333.2294   24269340.1464
      2258.5164       1759.8824
   8012764.81246   6266141.25146  22691785.6824   22691790.2754
     -3434.2034      -2676.0024
  -3878699.94646  -2897370.59446  22344273.6044   22344277.4594
     -1340.3444      -1044.4244
   -394832.79441   -218530.35842  25583677.2214   25583688.9674
      1494.2814       1164.3754
   7020093.64246   5481075.32446  23130227.9714   23130232.7524
     -3268.3284      -2546.7494
 -14297175.98047 -10984914.03347  21437921.6824   21437925.0924
       561.2974        437.3744
  -9147764.10747  -7057173.89346  21039428.2054   21039432.2254
     -1347.8754      -1050.2924
  -6627415.01646  -5041287.29445  23455215.3774   23455218.3544
      2152.7814       1677.4924
 98  6 17 17  2 15.0020000  0  8G10G 4G 8G 6G 9G 5G24G30
  -2058850.92344  -1487782.44541  24262889.3224   24262890.2834
      2256.3754       1758.2144
   8064320.32346   6306314.35546  22701596.3774   22701600.7604
     -3439.6874      -2680.2764
  -3858520.09246  -2881646.04946  22348113.4244   22348117.0804
     -1350.2194      -1052.1194
   -417238.33242   -235989.19541  25579414.2294   25579418.6824
      1493.2504       1163.5714
   7069164.71746   5519312.47946  23139565.9004   23139570.3184
     -3274.3444      -2551.4374
 -14305543.86247 -10991434.44847  21436329.2054   21436333.0024
       554.5474        432.1144
  -9127478.66647  -7041367.05246  21043288.5024   21043292.6864
     -1356.7344      -1057.1964
  -6659685.10746  -5066432.80245  23449074.4084   23449077.7604
      2150.0944       1675.3984
 98  6 17 17  2 30.0020000  0  8G10G 4G 8G 6G 9G 5G24G30
  -2092679.43144  -1514142.22542  24256452.0804   24256461.3894
      2254.2664       1756.5714
   8115958.64546   6346552.00046  22711422.5884   22711426.3854
     -3445.3124      -2684.6594
  -3838189.31146  -2865803.88546  22351982.4004   22351985.8114
     -1360.4374      -1060.0814
   -439626.63342   -253434.58642  25575152.9084   25575156.3774
      1491.9844       1162.5854
   7118327.22946   5557620.90446  23148921.1044   23148925.4984
     -3280.5164      -2556.2464
 -14313809.32047 -10997875.06346  21434756.6974   21434760.0374
       547.6254        426.7214
  -9107060.65047  -7025456.90346  21047174.0254   21047177.8934
     -1365.5314      -1064.0504
  -6691913.98346  -5091546.19345  23442941.4634   23442945.1314
      2147.1724       1673.1214
 98  6 17 17  2 45.0020000  0  8G10G 4G 8G 6G 9G 5G24G30
  -2126475.88245  -1540477.06041  24250021.2914   24250027.1274
      2252.0634       1754.8544
   8167682.09146   6386855.97146  22721265.3774   22721269.1274
     -3451.0474      -2689.1274
  -3817704.85546  -2849841.97346  22355880.5414   22355883.5534
     -1370.6564      -1068.0444
   -461995.42542   -270864.73841  25570895.6274   25570900.9244
      1490.6724       1161.5634
   7167583.06046   5596002.04746  23158294.3694   23158299.4674
     -3286.8594      -2561.1894
 -14321971.56947 -11004235.26047  21433203.3934   21433206.3464
       540.7974        421.4004
  -9086512.29747  -7009445.19546  21051084.2754   21051088.4364
     -1374.1414      -1070.7594
  -6724098.22946  -5116624.78546  23436817.1974   23436821.1464
      2144.1564       1670.7714
 98  6 17 17  3  0.0020000  0  8G10G 4G 8G 6G 9G 5G24G30
  -2160241.36945  -1566787.89842  24243595.0964   24243600.7324
      2250.1254       1753.3444
   8219491.43246   6427226.86146  22731124.3934   22731128.1314
     -3456.8284      -2693.6324
  -3797068.97146  -2833762.05346  22359807.0724   22359810.5764
     -1380.8124      -1075.9584
   -484346.78942   -288281.34042  25566642.4244   25566647.1704
      1489.5634       1160.6984
   7216933.13446   5634456.61646  23167685.6824   23167690.6394
     -3293.0944      -2566.0474
 -14330032.53047 -11010516.52947  21431669.4474   21431672.3424
       534.0474        416.1404
  -9065836.28147  -6993334.02046  21055019.1974   21055023.1114
     -1382.6414      -1077.3824
  -6756237.58046  -5141668.40746  23430701.6354   23430705.5614
      2141.1094       1668.3974
 98  6 17 17  3 15.0020000  0  8G10G 4G 8G 6G 9G 5G24G30
  -2193979.11845  -1593076.95942  24237175.4864   24237182.4984
      2248.3594       1751.9684
   8271387.85446   6467665.60846  22740999.9244   22741003.8384
     -3462.6564      -2698.1744
  -3776278.93746                  22363763.2604
     -1391.1564
   -506681.61943   -305685.07742  25562393.4244   25562397.9244
      1488.4534       1159.8344
   7266376.75646   5672984.08746  23177094.3544   23177099.0064
     -3299.3124      -2570.8934
 -14337992.17847 -11016718.85246  21430154.6274   21430158.0374
       527.3284        410.9054
  -9045032.87447  -6977123.56446  21058977.4944   21058981.0104
     -1391.0784      -1083.9574
  -6788329.44346  -5166675.03046  23424594.1354   23424598.7294
      2137.8594       1665.8644
 98  6 17 17  3 30.0020000  0  8G10G 4G 8G 6G 9G 5G24G30
  -2227689.70345  -1619344.87242  24230759.8304   24230765.5844
      2246.4224       1750.4594
   8323375.03846   6508175.07946  22750892.7754   22750897.0064
     -3468.8594      -2703.0074
  -3755331.85946                  22367749.2214
     -1401.7344
   -528996.15143   -323072.95842  25558147.5884   25558154.4944
      1486.9384       1158.6534
   7315914.48746   5711584.87846  23186521.1274   23186525.2054
     -3305.6094      -2575.8004
 -14345849.79447 -11022841.65846  21428659.4474   21428662.7404
       520.4064        405.5114
  -9024102.41647  -6960814.10846  21062960.2834   21062964.1864
     -1399.5474      -1090.5564
  -6820370.60446  -5191642.14545  23418496.8144   23418501.2564
      2134.4064       1663.1744
 98  6 17 17  3 45.0020000  0  8G10G 4G 8G 6G 9G 5G24G30
  -2261370.39045  -1645589.57343  24224350.9394   24224356.9284
      2244.3594       1748.8514
   8375454.64346   6548756.56546  22760803.3144   22760807.4284
     -3475.0314      -2707.8174
  -3734223.48146                  22371766.5724
     -1412.7034
   -551286.92742   -340442.41342  25553904.9324   25553912.3544
      1485.2344       1157.3254
   7365545.55646   5750258.39946  23195965.4634   23195969.5534
     -3311.7504      -2580.5844
 -14353602.65647 -11028882.83646  21427184.2214   21427186.6934
       513.3594        400.0204
  -9003043.50547  -6944404.58146  21066967.9554   21066972.0214
     -1408.2814      -1097.3624
  -6852360.73046  -5216569.47645  23412409.2294   23412413.5294
      2131.0474       1660.5564
 98  6 17 17  4  0.0020000  0  8G10G 4G 8G 6G 9G 5G24G30
  -2295019.52945  -1671809.68342  24217948.3384   24217953.5064
      2242.1414       1747.1234
   8427626.87946   6589410.23146  22770731.4164   22770735.1544
     -3481.3284      -2712.7234
  -3712949.43646                  22375814.7684
     -1423.9064
   -573554.29042   -357793.58642  25549667.2524   25549674.3224
      1483.6724       1156.1084
   7415266.10446   5789001.63446  23205427.1894   23205431.0334
     -3317.6724      -2585.1994
 -14361249.51647 -11034841.43446  21425729.0884   21425731.3854
       506.1564        394.4074
  -8981852.59947  -6927892.18046  21071000.5104   21071004.1314
     -1417.2664      -1104.3634
  -6884301.25146  -5241458.18245  23406330.7834   23406335.1664
      2127.6094       1657.8774
 98  6 17 17  4 15.0020000  0  8G10G 4G 8G 6G 9G 5G24G30
  -2328636.29444  -1698004.48842  24211550.7834   24211556.3614
      2240.0944       1745.5284
   8479893.96446   6630137.81246  22780677.4474   22780681.4434
     -3487.5474      -2717.5694
  -3691505.36246      6698.21456  22379895.7524   22379899.2444
     -1435.4064      -1118.4984
   -595796.03142   -375124.74942  25545435.3074   25545439.7014
      1481.9534       1154.7694
   7465074.32446   5827813.19446  23214905.6194   23214909.9434
     -3323.3914      -2589.6554
 -14368788.33247 -11040715.82646  21424294.4474   21424297.1074
       499.0004        388.8314
  -8960527.44647  -6911275.17146  21075058.4794   21075061.8184
     -1426.1254      -1111.2664
  -6916189.24046  -5266305.94945  23400262.5414   23400265.9164
      2124.1254       1655.1624
 98  6 17 17  4 30.0020000  0  8G10G 4G 8G 6G 9G 5G24G30
  -2362220.00944  -1724173.52042  24205159.9084   24205167.3654
      2237.8914       1743.8114
   8532252.43146   6670936.59446  22790640.9714   22790645.0844
     -3493.4064      -2722.1354
  -3669885.71146     23544.69046  22384009.7914   22384012.5454
     -1447.0784      -1127.5934
   -618011.87642   -392435.73142  25541206.7134   25541211.7174
      1480.2194       1153.4174
   7514969.32346   5866692.38446  23224400.2444   23224403.9714
     -3329.1564      -2594.1484
 -14376219.54547 -11046506.37346  21422880.1974   21422882.8224
       492.0004        383.3774
  -8939068.65447  -6894554.02746  21079141.6584   21079145.9824
     -1434.8594      -1118.0724
  -6948023.81246  -5291112.07345  23394204.7524   23394208.5374
      2120.5944       1652.4114
 98  6 17 17  4 45.0020000  0  8G10G 4G 8G 6G 9G 5G24G30
  -2395773.00444  -1750318.76542  24198774.6354   24198780.7644
      2235.7814       1742.1674
   8584696.68946   6711802.22546  22800620.8544   22800624.8144
     -3499.2034      -2726.6524
  -3648094.38146     40524.93846  22388156.5104   22388159.8144
     -1458.3754      -1136.3964
   -640203.47142   -409727.87142  25536983.9004   25536992.0254
      1478.7194       1152.2484
   7564948.98746   5905637.53846  23233911.0884   23233915.3544
     -3334.8124      -2598.5554
 -14383548.70147 -11052217.40046  21421485.5804   21421488.6274
       485.1724        378.0564
  -8917480.98347  -6877732.48046  21083249.5574   21083254.1504
     -1443.6094      -1124.8904
  -6979805.05946  -5315876.66945  23388157.3224   23388161.2714
      2116.9064       1649.5374
 98  6 17 17  5  0.0020000  0  8G10G 4G 8G 6G 9G 5G24G30
  -2429293.44144  -1776438.47842  24192396.9244   24192403.2174
      2233.5634       1740.4384
   8637228.25446   6752735.90345  22810617.0184   22810620.4394
     -3505.0164      -2731.1814
  -3626136.54046     57634.95045  22392335.0334   22392338.5964
     -1469.3444      -1144.9434
   -662373.25842   -427003.00141  25532765.3144   25532770.1194
      1477.3134       1151.1534
   7615011.77446   5944647.45645  23243437.8074   23243442.1314
     -3340.2194      -2602.7684
 -14390774.51047 -11057847.88346  21420110.5334   21420114.0374
       478.2194        372.6384
  -8895759.55147  -6860806.68946  21087383.4084   21087387.3574
     -1452.6724      -1131.9524
  -7011531.80646  -5340598.78445  23382119.7684   23382123.7524
      2113.2974       1646.7254
 98  6 17 17  5 15.0020000  0  8G10G 4G 8G 6G 9G 5G24G30
  -2462778.96145  -1802531.09442  24186024.5644   24186030.7054
      2231.0944       1738.5154
   8689847.84246   6793738.15246  22820630.3694   22820633.7684
     -3510.8594      -2735.7354
  -3604012.63646     74874.34546  22396545.0884   22396548.2524
     -1480.5314      -1153.6614
   -684521.07942   -444261.02141  25528552.0104   25528563.0534
      1475.8594       1150.0204
   7665155.56346   5983720.49546  23252979.4394   23252984.1864
     -3345.5784      -2606.9444
 -14397893.92447 -11063395.48346  21418755.5494   21418758.5374
       471.0314        367.0374
  -8873899.45647  -6843772.84346  21091543.2364   21091546.5064
     -1462.0164      -1139.2334
  -7043203.24846  -5365277.80245  23376093.3074   23376097.2214
      2109.5944       1643.8394
 98  6 17 17  5 30.0020000  0  8G10G 4G 8G 6G 9G 5G24G30
  -2496226.47545  -1828594.10843  24179658.8224   24179664.2714
      2228.4694       1736.4694
   8742552.16746   6834806.42746  22830659.6744   22830663.1784
     -3516.4374      -2740.0814
  -3581722.72546     92243.07546  22400786.6894   22400790.3224
     -1491.4844      -1162.1964
   -706647.39541   -461502.31641  25524339.5644   25524343.3854
      1474.2814       1148.7914
   7715377.88246   6022854.73046  23262536.5724   23262541.5764
     -3350.7814      -2610.9984
 -14404905.71047 -11068859.20346  21417421.1274   21417424.0104
       463.7974        361.4004
  -8851900.29347  -6826630.63146  21095729.3384   21095733.0064
     -1471.2974      -1146.4654
  -7074821.13146  -5389915.09545  23370076.1664   23370080.0214
      2106.1094       1641.1244
 98  6 17 17  5 45.0020000  0  8G10G 4G 8G 6G 9G 5G24G30
  -2529631.07645  -1854623.61243  24173302.9794   24173309.0724
      2225.4844       1734.1444
   8795340.80546   6875940.41346  22840705.3384   22840708.7604
     -3521.9064      -2744.3434
  -3559268.51746    109739.86046  22405059.5024   22405063.1934
     -1502.3594      -1170.6704
   -728752.66943   -478727.06641  25520135.7914   25520141.0064
      1473.1884       1147.9384
   7765680.00246   6062051.13546  23272109.1114   23272113.5884
     -3356.1414      -2615.1754
 -14411806.95147 -11074236.78246  21416107.8934   21416110.9634
       456.4384        355.6664
  -8829759.75547  -6809378.26246  21099942.2834   21099946.4794
     -1480.6724      -1153.7704
  -7106385.25946  -5414510.49145  23364070.0254   23364074.1864
      2102.4694       1638.2874
 98  6 17 17  6  0.0020000  0  8G10G 4G 8G 6G 9G 5G24G30
  -2562990.12644  -1880617.66743  24166955.1974   24166961.7484
      2222.3134       1731.6724
   8848209.45246   6917136.74746  22850765.9864   22850769.4324
     -3527.2814      -2748.5314
  -3536651.35046    127363.60546  22409363.5724   22409367.1234
     -1513.2664      -1179.1684
   -750841.75243   -495939.35442  25515931.0254   25515934.9514
      1472.0004       1147.0134
   7816063.81246   6101311.21346  23281696.6194   23281700.8264
     -3361.7814      -2619.5704
 -14418598.48447 -11079528.88246  21414815.5884   21414818.5764
       449.0634        349.9194
  -8807479.61747  -6792017.12046  21104182.2054   21104186.6704
     -1490.0004      -1161.0394
  -7137893.26246  -5439062.15845  23358074.1114   23358077.8854
      2098.5004       1635.1954
 98  6 17 17  6 15.0020000  0  8G10G 4G 8G 6G 9G 5G24G30
  -2596300.87945  -1906574.02243  24160616.1354   24160621.8654
      2219.1094       1729.1764
   8901156.74846   6958394.35046  22860841.4794   22860845.1114
     -3532.3754      -2752.5004
  -3513873.72746    145112.39746  22413697.6824   22413701.3614
     -1523.7814      -1187.3624
   -772914.13143   -513138.51842  25511731.8384   25511737.8264
      1470.8754       1146.1364
   7866531.69546   6140636.81246  23291300.2914   23291304.8264
     -3367.3444      -2623.9044
 -14425279.74647 -11084735.05446  21413544.4084   21413547.6664
       441.6884        344.1724
  -8785062.97947  -6774549.61346  21108448.3614   21108452.0534
     -1498.9064      -1167.9794
  -7169340.85746  -5463566.75645  23352089.3304   23352092.8344
      2094.4224       1632.0174
 98  6 17 17  6 30.0020000  0  8G10G 4G 8G 6G 9G 5G24G30
  -2629564.48345  -1932493.70344  24154285.9164   24154291.4944
      2215.9694       1726.7294
   8954178.43546   6999709.93446  22870931.2834   22870934.9514
     -3537.1874      -2756.2504
  -3490939.96446    162982.84446  22418061.8304   22418065.5924
     -1534.0004      -1195.3254
   -794969.67042   -530324.62142  25507534.0414   25507540.6864
      1469.9064       1145.3814
   7917084.03246   6180028.22046  23300920.1504   23300924.2404
     -3372.9844      -2628.3004
 -14431849.29247 -11089854.18346  21412294.4164   21412297.3694
       434.2664        338.3894
  -8762513.45947  -6756978.55746  21112739.5254   21112742.5254
     -1507.7194      -1174.8464
  -7200725.69546  -5488022.42545  23346117.0184   23346121.1434
      2090.2344       1628.7544
 98  6 17 17  6 45.0030000  0  8G10G 4G 8G 6G 9G 5G24G30
  -2662781.13245  -1958376.74844  24147965.2414   24147971.4764
      2212.6254       1724.1234
   9007276.19546   7041084.78846  22881034.9294   22881039.0544
     -3542.0624      -2760.0494
  -3467854.04046    180971.86246  22422454.9294   22422459.1594
     -1543.8444      -1202.9954
   -817011.13042   -547499.78342  25503339.6084   25503346.7964
      1468.7814       1144.5054
   7967724.31446   6219488.15046  23310556.8904   23310560.9564
     -3378.6254      -2632.6954
 -14438308.19847 -11094887.10546  21411065.1554   21411068.2724
       426.8134        332.5814
  -8739829.84647  -6739303.00646  21117055.9134   21117058.6674
     -1516.5474      -1181.7254
  -7232049.45546  -5512430.53045  23340156.8124   23340160.1754
      2085.9694       1625.4304
 98  6 17 17  7  0.0030000  0  8G10G 4G 8G 6G 9G 5G24G30
  -2695942.54145  -1984216.77543  24141654.8974   24141660.3474
      2208.8284       1721.1654
   9060446.87846   7082516.45946  22891153.3824   22891157.9294
     -3547.3754      -2764.1884
  -3444620.19546    199076.14546  22426876.3584   22426880.7534
     -1554.0164      -1210.9214
   -839033.41341   -564659.95742  25499147.6084   25499154.2414
      1467.5474       1143.5434
   8018447.90246   6259012.98446  23320209.1714   23320213.8584
     -3384.5004      -2637.2734
 -14444651.40046 -11099829.85346  21409857.9524   21409861.8434
       418.9224        326.4334
  -8717012.61847  -6721523.34746  21121397.5464   21121400.4874
     -1525.7034      -1188.8604
  -7263304.44746  -5536785.06345  23334208.8434   23334212.3354
      2081.3914       1621.8634
 98  6 17 17  7 15.0030000  0  8G10G 4G 8G 6G 9G 5G24G30
  -2729045.93045  -2010011.59444  24135355.2884   24135360.8434
      2204.9694       1718.1574
   9113695.35346   7124008.75446  22901286.0384   22901290.4564
     -3552.4224      -2768.1214
  -3421231.66246    217300.95946  22431327.0694   22431330.4684
     -1564.5164      -1219.1034
   -861037.08542   -581805.68341  25494963.7654   25494969.9764
      1466.2664       1142.5454
   8069259.25946   6298606.22146  23329878.0074   23329882.9054
     -3390.4224      -2641.8874
 -14450877.48447 -11104681.34146  21408672.8124   21408676.6084
       411.2814        320.4794
  -8694060.13047  -6703638.29946  21125765.3744   21125768.6444
     -1534.5474      -1195.7514
  -7294491.79546  -5561086.85245  23328274.3904   23328278.0934
      2076.9064       1618.3694
 98  6 17 17  7 30.0030000  0  8G10G 4G 8G 6G 9G 5G24G30
  -2762092.48645  -2035762.13744  24129066.9054   24129073.1634
      2201.2194       1715.2354
   9167017.54346   7165558.49046  22911432.9214   22911436.7064
     -3557.2344      -2771.8714
  -3397685.52846    235648.59346  22435807.7334   22435810.8624
     -1575.0314      -1227.2974
   -883021.48143   -598936.31942  25490777.6404   25490782.2574
      1464.9384       1141.5104
   8120160.16946   6338269.24046  23339564.1874   23339568.8274
     -3396.4224      -2646.5624
 -14456991.06347 -11109445.16446  21407509.7264   21407513.5934
       403.8444        314.6834
  -8670977.60447  -6685651.92046  21130157.8194   21130161.3824
     -1543.0784      -1202.3994
  -7325612.06846  -5585336.39545  23322352.3744   23322356.2294
      2072.4064       1614.8624
 98  6 17 17  7 45.0030000  0  8G10G 4G 8G 6G 9G 5G24G30
  -2795081.87145  -2061468.13744  24122788.7494   24122793.8354
      2197.2974       1712.1794
   9220413.23946   7207165.49646  22921593.8434   22921597.8394
     -3562.2664      -2775.7914
  -3373981.12646    254119.53446  22440318.5464   22440321.7924
     -1585.6414      -1235.5644
   -904984.38143   -616050.20642  25486599.3824   25486604.0934
      1463.5004       1140.3904
   8171153.28446   6378004.11046  23349268.2724   23349273.2654
     -3402.7344      -2651.4814
 -14462991.22347 -11114120.61646  21406367.8744   21406371.4134
       396.1564        308.6934
  -8647766.69447  -6667565.49646  21134574.6874   21134578.4254
     -1551.7504      -1209.1564
  -7356662.52646  -5609531.53446  23316443.4374   23316447.1164
      2067.6414       1611.1494
 98  6 17 17  8  0.0030000  0  8G10G 4G 8G 6G 9G 5G24G30
  -2828014.90045  -2087130.20944  24116521.9054   24116527.4254
      2193.6884       1709.3674
   9273883.38446   7248830.51946  22931768.8194   22931772.6284
     -3567.1874      -2779.6274
  -3350118.89946    272713.46646  22444859.2574   22444862.8544
     -1596.1414      -1243.7464
   -926929.87842   -633150.58941  25482421.6714   25482429.3744
      1462.3444       1139.4894
   8222238.97846   6417811.10846  23358989.2334   23358995.1044
     -3408.7814      -2656.1934
 -14468878.97547 -11118708.46946  21405247.4214   21405251.3584
       388.7504        302.9224
  -8624427.63547  -6649379.21646  21139016.1014   21139019.7694
     -1560.2344      -1215.7674
  -7387643.58446  -5633672.60146  23310547.9524   23310551.5854
      2063.1094       1607.6184
 98  6 17 17  8 15.0030000  0  8G10G 4G 8G 6G 9G 5G24G30
  -2860893.46545  -2112749.82444  24110264.8434   24110271.1474
      2190.2194       1706.6644
   9327429.24246   7290554.53446  22941958.6324   22941962.4874
     -3572.2034      -2783.5354
  -3326096.39246    291432.29646  22449430.5304   22449434.0584
     -1606.7194      -1251.9894
   -948853.75643   -650234.00242  25478250.5074   25478256.9764
      1460.8914       1138.3564
   8273415.45746   6457688.84646  23368727.8274   23368732.9374
     -3414.5624      -2660.6984
 -14474653.37647 -11123208.00246  21404148.8744   21404152.4374
       381.2664        297.0904
  -8600959.73047  -6631092.53946  21143481.7964   21143485.6044
     -1568.7034      -1222.3664
  -7418556.24646  -5657760.36546  23304665.6794   23304669.1714
      2058.7344       1604.2094
 98  6 17 17  8 30.0030000  0  8G10G 4G 8G 6G 9G 5G24G30
  -2893720.67945  -2138329.45545  24104019.2654   24104024.4444
      2186.8914       1704.0714
   9381052.25446   7332338.67446  22952162.5934   22952166.6834
     -3577.4534      -2787.6264
  -3301914.91046    310274.97846  22454032.5624   22454036.0544
     -1617.4064      -1260.3174
   -970754.81443   -667299.75842  25474083.8194   25474088.9054
      1459.3754       1137.1754
   8324676.01646   6497632.08946  23378482.6164   23378487.5034
     -3420.1094      -2665.0204
 -14480315.14347 -11127619.76946  21403071.2724   21403074.6714
       373.7504        291.2344
  -8577364.05147  -6612706.30446  21147971.8584   21147975.6794
     -1577.3444      -1229.0994
  -7449405.63746  -5681798.81346  23298795.0624   23298798.2964
      2054.6254       1601.0064
 98  6 17 17  8 45.0030000  0  8G10G 4G 8G 6G 9G 5G24G30
  -2926498.11345  -2163870.29444  24097781.1164   24097787.5854
      2183.3134       1701.2824
   9434754.50646   7374184.56246  22962381.8974   22962385.5074
     -3583.0164      -2791.9604
  -3277573.47246    329242.32746  22458664.3274   22458668.7804
     -1628.2504      -1268.7664
   -992635.42843   -684349.55742  25469918.8824   25469925.7764
      1457.9534       1136.0674
   8376018.82946   6537639.44446  23388252.6634   23388257.1044
     -3425.6414      -2669.3304
 -14485867.32647 -11131946.14647  21402015.0074   21402018.1594
       366.4844        285.5724
  -8553638.95247  -6594219.21646  21152486.5774   21152490.4444
     -1586.0784      -1235.9054
  -7480196.10046  -5705791.36946  23292936.1014   23292938.2334
      2050.7344       1597.9754
 98  6 17 17  9  0.0030000  0  8G10G 4G 8G 6G 9G 5G24G30
  -2959221.01345  -2189368.61244  24091554.1714   24091559.8434
      2179.7344       1698.4944
   9488541.86446   7416096.76146  22972616.9994   22972620.8784
     -3588.7194      -2796.4044
  -3253067.45746    348337.90746  22463327.8514   22463332.7724
     -1639.3124      -1277.3864
  -1014493.82143   -701382.01943  25465759.5384   25465766.3824
      1456.4694       1134.9114
   8427444.40146   6577711.30146  23398038.5934   23398043.3744
     -3431.1564      -2673.6284
 -14491310.27947 -11136187.40847  21400979.3434   21400981.9794
       359.1724        279.8744
  -8529783.81247  -6575630.80546  21157026.1164   21157030.2064
     -1594.6724      -1242.6014
  -7510929.61546  -5729739.54146  23287087.3824   23287089.6554
      2046.9844       1595.0534
 98  6 17 17  9 15.0030000  0  8G10G 4G 8G 6G 9G 5G24G30
  -2991890.38745  -2214825.24745  24085337.3514   24085343.6204
      2176.2504       1695.7794
   9542416.73446   7458077.15746  22982869.3744   22982873.3124
     -3594.5474      -2800.9464
  -3228392.68346    367565.00346  22468023.1714   22468027.5654
     -1650.5944      -1286.1774
  -1036328.95843   -718396.39842  25461603.7024   25461609.9014
      1454.9224       1133.7054
   8478952.92946   6617847.78746  23407840.8434   23407845.5194
     -3436.6254      -2677.8904
 -14496643.12647 -11140342.87747  21399964.7724   21399967.2574
       351.8594        274.1764
  -8505797.01647  -6556939.79146  21161590.8584   21161595.2064
     -1603.5164      -1249.4934
  -7541606.51846  -5753643.60545  23281250.1244   23281252.6444
      2043.3134       1592.1924
 98  6 17 17  9 30.0030000  0  8G10G 4G 8G 6G 9G 5G24G30
  -3024508.84245  -2240242.20545  24079129.8584   24079136.0464
      2173.0164       1693.2594
   9596378.96246   7500125.63846  22993137.9834   22993141.4294
     -3600.3444      -2805.4634
  -3203548.76446    386923.89146  22472750.7184   22472754.6554
     -1661.7504      -1294.8704
  -1058139.89843   -735391.94642  25457454.3584   25457460.3234
      1453.2814       1132.4274
   8530543.51046   6658048.21346  23417658.1944   23417662.6474
     -3442.0164      -2682.0904
 -14501865.55347 -11144412.29546  21398970.8434   21398973.5734
       344.5314        268.4664
  -8481677.34747  -6538145.25146  21166180.5464   21166185.1164
     -1612.3594      -1256.3844
  -7572227.96046  -5777504.45945  23275422.8584   23275425.1324
      2039.6724       1589.3554
 98  6 17 17  9 45.0030000  0  8G10G 4G 8G 6G 9G 5G24G30
  -3057080.67145  -2265622.85445  24072932.0154   24072937.5694
      2169.9064       1690.8364
   9650426.76046   7542240.79246  23003422.8904   23003426.6754
     -3605.9844      -2809.8584
  -3178541.11446    406410.36046  22477509.5544   22477513.2924
     -1672.5944      -1303.3204
  -1079927.09942   -752368.95442  25453307.3744   25453311.2654
      1451.7664       1131.2464
   8582212.48946   6698309.71346  23427490.1794   23427494.3154
     -3447.1254      -2686.0714
 -14506977.24747 -11148395.43546  21397997.7494   21398000.2334
       337.0634        262.6464
  -8457425.84047  -6519247.97646  21170795.2724   21170799.1284
     -1621.1564      -1263.2394
  -7602795.56146  -5801323.33546  23269606.0074   23269609.0654
      2036.0634       1586.5424
 98  6 17 17 10  0.0030000  0  8G10G 4G 8G 6G 9G 5G24G30
  -3089605.72645  -2290967.01744  24066742.1794   24066748.2374
      2166.7504       1688.3774
   9704560.37446   7584422.80846  23013724.3044   23013728.0544
     -3611.8444      -2814.4244
  -3153370.12746    426024.09546  22482299.6324   22482302.8544
     -1683.5164      -1311.8304
  -1101692.99843   -769329.33542  25449165.5854   25449171.7724
      1450.3134       1130.1144
   8633957.13646   6738630.17045  23437336.9214   23437341.2804
     -3452.1724      -2690.0044
 -14511976.45647 -11152290.91646  21397046.6554   21397048.9874
       329.5634        256.8024
  -8433040.51047  -6500246.42646  21175435.9214   21175439.6944
     -1630.2034      -1270.2884
  -7633310.11146  -5825100.88746  23263799.0224   23263802.6204
      2032.5314       1583.7914
 98  6 17 17 10 15.0030000  0  8G10G 4G 8G 6G 9G 5G24G30
  -3122085.19444  -2316275.65545  24060561.1794   24060567.0854
      2163.7664       1686.0514
   9758781.01146   7626672.63646  23024042.2334   23024046.0654
     -3617.5784      -2818.8924
  -3128036.34646    445764.69046  22487120.4444   22487123.8784
     -1694.3444      -1320.2684
  -1123433.85642   -786270.17042  25445027.6404   25445034.6404
      1448.3444       1128.5804
   8685776.72746   6779009.02946  23447197.8194   23447202.1444
     -3457.1564      -2693.8884
 -14516865.64947 -11156100.67946  21396116.1634   21396117.9564
       322.2974        251.1404
  -8408522.28147  -6481141.31246  21180101.2964   21180105.0114
     -1638.9224      -1277.0824
  -7663771.40746  -5848836.93846  23258002.2724   23258005.6834
      2028.9384       1580.9904
 98  6 17 17 10 30.0030000  0  8G10G 4G 8G 6G 9G 5G24G30
  -3154519.23945  -2341548.88845  24054390.2024   24054396.6594
      2160.7504       1683.7014
   9813087.11946   7668989.06446  23034376.5544   23034380.4794
     -3623.2664      -2823.3244
  -3102540.95146    465631.22346  22491971.9134   22491975.5814
     -1704.9844      -1328.5594
  -1145144.56243   -803187.63642  25440898.5304   25440903.8154
      1446.4694       1127.1194
   8737670.93846   6819446.04846  23457072.7494   23457077.3664
     -3462.1414      -2697.7724
 -14521646.11547 -11159825.71546  21395206.1944   21395208.4094
       315.0784        245.5154
  -8383874.54147  -6461935.28646  21184791.8434   21184795.8044
     -1647.4844      -1283.7544
  -7694178.27346  -5872530.58646  23252216.4834   23252219.6944
      2025.2504       1578.1174
 98  6 17 17 10 45.0030000  0  8G10G 4G 8G 6G 9G 5G24G30
  -3186906.82445  -2366785.97245  24048226.8824   24048233.2104
      2157.5784       1681.2304
   9867478.72247   7711372.10546  23044726.6164   23044730.2494
     -3628.8914      -2827.7074
  -3076886.65246    485621.56946  22496853.8744   22496858.2104
     -1715.5944      -1336.8264
  -1166826.83443   -820082.91242  25436771.1874   25436777.4094
      1444.5314       1125.6094
   8789643.52746   6859944.16446  23466962.9604   23466967.5894
     -3467.5944      -2702.0214
 -14526317.35447 -11163465.63846  21394317.5694   21394320.0774
       307.7194        239.7814
  -8359096.03147  -6442627.35546  21189506.9914   21189510.9764
     -1656.3284      -1290.6454
  -7724528.34546  -5896179.96846  23246440.7414   23246444.2694
      2021.3914       1575.1104
 98  6 17 17 11  0.0030000  0  8G10G 4G 8G 6G 9G 5G24G30
  -3219246.05845  -2391985.30445  24042073.1244   24042079.3124
      2154.2974       1678.6734
   9921953.53946   7753820.00746  23055092.8904   23055096.2294
     -3634.4064      -2832.0054
  -3051073.04146    505736.07046  22501765.8194   22501769.8154
     -1726.2504      -1345.1304
  -1188480.39643   -836955.78143  25432651.3664   25432656.6754
      1442.5784       1124.0874
   8841699.37246   6900507.14946  23476869.1084   23476873.4794
     -3473.2664      -2706.4414
 -14530876.32147 -11167018.07347  21393450.1084   21393453.1204
       300.0474        233.8034
  -8334186.43047  -6423217.27846  21194247.0154   21194251.1044
     -1664.9374      -1297.3544
  -7754818.78246  -5919782.88546  23240676.6944   23240680.8194
      2017.2814       1571.9074
 98  6 17 17 11 15.0030000  0  8G10G 4G 8G 6G 9G 5G24G30
  -3251537.69045  -2417147.62945  24035927.9374   24035933.6084
      2151.2344       1676.2874
   9976507.93746   7796329.90446  23065474.5544   23065478.2574
     -3639.5004      -2835.9744
  -3025100.55146    525974.34846  22506708.1944   22506711.4994
     -1736.7664      -1353.3244
  -1210104.39243   -853805.58443  25428535.9134   25428542.6044
      1440.6414       1122.5774
   8893841.23146   6941137.15746  23486791.3744   23486795.8394
     -3478.9694      -2710.8854
 -14535318.35247 -11170479.40247  21392604.8434   21392607.6084
       292.2194        227.7034
  -8309148.75247  -6403707.39446  21199011.6634   21199015.3544
     -1673.4694      -1304.0024
  -7785047.33946  -5943337.57845  23234924.0934   23234928.1014
      2013.1414       1568.6814
 98  6 17 17 11 30.0030000  0  8G10G 4G 8G 6G 9G 5G24G30
  -3283783.11245  -2442273.88445  24029791.6084   24029797.8664
      2148.1564       1673.8884
  10031137.72246   7838898.55146  23075870.0544   23075873.7454
     -3644.3594      -2839.7614
  -2998971.09446    546334.95646  22511680.7334   22511685.1984
     -1747.0474      -1361.3354
  -1231698.63143   -870632.24542  25424427.5074   25424433.6124
      1438.7034       1121.0674
   8946069.08646   6981834.16946  23496730.0544   23496734.9644
     -3484.6874      -2715.3414
 -14539642.89247 -11173849.17947  21391782.0624   21391785.0034
       284.4064        221.6154
  -8283982.76147  -6384097.53346  21203800.3584   21203804.0734
     -1681.8914      -1310.5644
  -7815212.05346  -5966842.53246  23229183.5854   23229187.3474
      2008.8594       1565.3454
 98  6 17 17 11 45.0030000  0  8G10G 4G 8G 6G 9G 5G24G30
  -3315981.24145  -2467363.31045  24023664.6014   24023670.8234
      2144.9064       1671.3564
  10085838.41646   7881522.45646  23086279.3044   23086283.0194
     -3649.0474      -2843.4134
  -2972689.52646    566814.10146  22516682.0304   22516686.5424
     -1757.1414      -1369.2004
  -1253265.91743   -887437.92042  25420321.5154   25420326.2494
      1436.9384       1119.6924
   8998382.69246   7022597.98246  23506685.1084   23506690.6874
     -3490.4534      -2719.8344
 -14543849.88747 -11177127.35246  21390981.4054   21390984.5114
       276.5004        215.4554
  -8258691.88447  -6364390.35546  21208613.4914   21208617.1594
     -1690.1874      -1317.0294
  -7845311.82346  -5990296.87346  23223456.1404   23223459.8544
      2004.4694       1561.9244
 98  6 17 17 12  0.0030000  0  8G10G 4G 8G 6G 9G 5G24G30
  -3348130.62645  -2492414.74545  24017546.7334   24017553.2844
      2141.6094       1668.7874
  10140608.78246   7924200.64246  23096701.5694   23096705.4374
     -3653.7344      -2847.0664
  -2946256.67646    587411.10446  22521712.0934   22521716.3354
     -1767.2664      -1377.0904
  -1274808.52844   -904224.29642  25416223.6014   25416227.9834
      1435.3444       1118.4504
   9050781.87946   7063428.46746  23516656.2724   23516661.5694
     -3496.1724      -2724.2904
 -14547937.58947 -11180312.57246  21390203.3124   21390206.6754
       268.5004        209.2214
  -8233278.86347  -6344587.99346  21213449.3744   21213452.9604
     -1698.2664      -1323.3244
  -7875346.42346  -6013700.44846  23217741.0154   23217744.8004
      2000.1254       1558.5394
 98  6 17 17 12 15.0030000  0  8G10G 4G 8G 6G 9G 5G24G30
  -3380229.70945  -2517426.96645  24011437.9604   24011444.1714
      2138.2344       1666.1574
  10195451.53146   7966935.24046  23107138.3044   23107141.9254
     -3658.6094      -2850.8644
  -2919672.76046    608125.83346  22526770.4294   22526775.0814
     -1777.2814      -1384.8944
  -1296326.44443   -920991.49243  25412128.8044   25412134.1714
      1433.6564       1117.1354
   9103267.04146   7104325.91445  23526643.3194   23526648.5694
     -3501.8754      -2728.7344
 -14551905.26847 -11183404.26947  21389448.3904   21389451.5894
       260.4844        202.9754
  -8207744.97147  -6324691.45746  21218308.6014   21218312.2924
     -1706.2504      -1329.5454
  -7905315.96346  -6037053.31646  23212037.8584   23212041.7374
      1995.7344       1555.1184
 98  6 17 17 12 30.0030000  0  8G10G 4G 8G 6G 9G 5G24G30
  -3412277.60845  -2542399.31745  24005339.6634   24005345.9214
      2134.6884       1663.3934
  10250365.42446   8009725.27046  23117587.8044   23117591.7294
     -3663.2974      -2854.5174
  -2892938.88546    628957.43046  22531857.7414   22531862.2184
     -1787.3444      -1392.7354
  -1317820.24544   -937739.87143  25408038.5624   25408044.0814
      1432.2194       1116.0154
   9155836.91746   7145289.39545  23536647.6944   23536653.0034
     -3507.4844      -2733.1054
 -14555751.98847 -11186401.71447  21388716.4134   21388719.4724
       252.2664        196.5714
  -8182092.91147  -6304702.84046  21223189.5544   21223193.0814
     -1714.1254      -1335.6824
  -7935219.82146  -6060354.98846  23206347.0304   23206351.0974
      1991.3754       1551.7214
 98  6 17 17 12 45.0030000  0  8G10G 4G 8G 6G 9G 5G24G30
  -3444271.72345  -2567329.75545  23999251.8904   23999257.5624
      2131.1094       1660.6054
  10305349.47746   8052569.97646  23128050.7104   23128054.7064
     -3667.9534      -2858.1454
  -2866054.86246    649905.99246  22536973.8664   22536977.5464
     -1797.2664      -1400.4674
  -1339296.49643   -954474.52242  25403950.6404   25403957.0624
      1431.2974       1115.2964
   9208489.25446   7186317.16245  23546667.2494   23546672.4174
     -3512.8594      -2737.2934
 -14559473.49947 -11189301.59347  21388008.3434   21388011.6474
       243.8914        190.0454
  -8156321.70347  -6284621.38246  21228093.5224   21228097.3784
     -1722.1564      -1341.9404
  -7965058.24746  -6083605.69346  23200669.0384   23200672.8824
      1987.0164       1548.3244
 98  6 17 17 13  0.0030000  0  8G10G 4G 8G 6G 9G 5G24G30
  -3476210.73045  -2592217.25645  23993174.0774   23993180.0654
      2127.3594       1657.6834
  10360402.75646   8095468.61346  23138527.0544   23138530.7334
     -3672.5004      -2861.6884
  -2839020.63046    670971.61446  22542118.3584   22542122.0734
     -1807.4064      -1408.3694
  -1360759.76743   -971199.14942  25399867.4834   25399873.0264
      1430.4694       1114.6514
   9261220.75746   7227406.65245  23556701.4994   23556706.8544
     -3517.9844      -2741.2874
 -14563069.60847 -11192103.75247  21387323.8824   21387326.9764
       235.5474        183.5434
  -8130430.07347  -6264446.08246  21233020.3274   21233024.1944
     -1730.0474      -1348.0884
  -7994832.59846  -6106806.45446  23195003.0694   23195007.2294
      1982.8594       1545.0854
 98  6 17 17 13 15.0030000  0  8G10G 4G 8G 6G 9G 5G24G30
  -3508092.40745  -2617060.06745  23987106.8904   23987112.8434
      2123.6094       1654.7614
  10415525.19246   8138421.14046  23149016.3974   23149019.7614
     -3677.0784      -2865.2564
  -2811833.13746    692156.66346  22547291.7964   22547295.3584
     -1817.4844      -1416.2224
  -1382210.95943   -987914.28842  25395783.7414   25395790.5624
      1429.7664       1114.1034
   9314026.90246   7268554.29345  23566749.8194   23566755.2694
     -3522.7194      -2744.9764
 -14566539.46647 -11194807.53447  21386663.6944   21386666.8944
       227.2344        177.0664
  -8104420.48547  -6244178.86446  21237970.0224   21237973.5734
     -1737.9224      -1354.2254
  -8024542.64446  -6129957.11146  23189349.2964   23189353.6324
      1978.5474       1541.7254
 98  6 17 17 13 30.0030000  0  8G10G 4G 8G 6G 9G 5G24G30
  -3539916.96545  -2641858.40945  23981050.8434   23981056.9484
      2119.6564       1651.6804
  10470717.52846   8181428.14146  23159519.5464   23159522.6164
     -3681.9224      -2869.0304
  -2784494.66546    713459.34646  22552494.3514   22552498.2884
     -1827.6254      -1424.1234
  -1403651.08843  -1004620.85542  25391705.8124   25391711.9404
      1428.9694       1113.4824
   9366902.31046   7309755.85045  23576811.9374   23576816.5194
     -3527.2664      -2748.5194
 -14569885.15047 -11197414.55747  21386026.9214   21386030.0734
       218.9064        170.5764
  -8078289.06847  -6223816.72046  21242942.8904   21242946.7224
     -1746.3124      -1360.7634
  -8054186.95146  -6153056.55246  23183708.9444   23183713.0584
      1973.9844       1538.1704
 98  6 17 17 13 45.0030000  0  8G10G 4G 8G 6G 9G 5G24G30
  -3571683.97945  -2666611.88145  23975005.3354   23975011.4764
      2115.8444       1648.7094
  10525981.43846   8224490.91146  23170035.7414   23170038.9174
     -3686.6414      -2872.7074
  -2757007.82746    734877.66046  22557724.3744   22557728.5584
     -1837.3594      -1431.7094
  -1425083.98643  -1021321.77342  25387625.6404   25387631.5934
      1428.7814       1113.3364
   9419842.59346   7351007.98845  23586885.8044   23586891.0194
     -3531.4694      -2751.7944
 -14573108.55547 -11199926.29546  21385413.5074   21385416.9874
       210.8444        164.2944
  -8052033.49347  -6203357.82246  21247938.9444   21247942.9054
     -1754.4534      -1367.1064
  -8083764.78146  -6176104.20746  23178080.3124   23178083.7694
      1969.7034       1534.8344
 98  6 17 17 14  0.0030000  0  8G10G 4G 8G 6G 9G 5G24G30
  -3603391.57145  -2691319.03145  23968971.7884   23968978.3044
      2111.8444       1645.5934
  10581318.70046   8267610.83446  23180566.3354   23180569.5114
     -3691.6724      -2876.6274
  -2729370.96046    756412.86946  22562984.0464   22562988.1124
     -1847.5784      -1439.6714
  -1446512.84944  -1038019.51242  25383548.8274   25383554.1594
      1428.3444       1112.9954
   9472846.07546   7392309.34645  23596972.4914   23596977.8004
     -3535.6724      -2755.0694
 -14576209.82947 -11202342.86846  21384823.3124   21384826.7924
       202.6564        157.9144
  -8025654.56847  -6182802.81946  21252958.9054   21252962.9604
     -1762.7814      -1373.5964
  -8113277.68546  -6199101.24445  23172463.7574   23172467.2724
      1965.3754       1531.4614
 98  6 17 17 14 15.0030000  0  8G10G 4G 8G 6G 9G 5G24G30
  -3635038.25345  -2715978.73045  23962950.0464   23962955.7184
      2107.6724       1642.3424
  10636730.73546   8310789.02946  23191110.6554   23191113.9014
     -3696.6094      -2880.4754
  -2701581.47946    778066.99846  22568272.3274   22568277.2374
     -1857.7344      -1447.5854
  -1467935.02743  -1054712.09842  25379471.1944   25379479.6944
      1427.8444       1112.6064
   9525911.38846   7433658.89945  23607069.9524   23607075.0734
     -3539.7194      -2758.2224
 -14579189.76347 -11204664.89046  21384256.4834   21384259.6594
       194.6564        151.6804
  -7999150.60647  -6162150.38246  21258002.4444   21258006.1594
     -1771.1724      -1380.1344
  -8142726.08146  -6222048.02546  23166860.2184   23166862.9724
      1961.0634       1528.1014
 98  6 17 17 14 30.0030000  0  8G10G 4G 8G 6G 9G 5G24G30
  -3666621.77245  -2740589.21545  23956939.3904   23956945.0734
      2103.4694       1639.0674
  10692216.17046   8354024.41846  23201669.1014   23201672.4524
     -3701.3284      -2884.1524
  -2673638.61146    799840.65146  22573589.3514   22573594.6594
     -1867.9844      -1455.5724
  -1489348.15643  -1071397.64142  25375397.7184   25375403.8004
      1427.2664       1112.1554
   9579038.03746   7475056.25345  23617180.5154   23617185.5304
     -3543.8444      -2761.4374
 -14582049.87647 -11206893.54346  21383711.7884   21383714.8004
       186.7034        145.4834
  -7972518.65147  -6141398.19746  21263070.2104   21263073.6904
     -1779.7344      -1386.8064
  -8172109.28246  -6244944.01446  23161268.7494   23161271.1874
      1956.7344       1524.7284
 98  6 17 17 14 45.0030000  0  8G10G 4G 8G 6G 9G 5G24G30
  -3698142.33345  -2765150.65445  23950941.4134   23950947.1084
      2099.1724       1635.7184
  10747770.93646   8397313.82646  23212241.1714   23212244.7804
     -3706.0164      -2887.8044
  -2645541.88846    821734.20446  22578936.2964   22578941.0304
     -1878.3284      -1463.6324
  -1510751.45443  -1088075.54442  25371323.7574   25371328.9374
      1426.4384       1111.5104
   9632227.26846   7516502.38345  23627301.7804   23627306.7494
     -3548.1414      -2764.7854
 -14584790.36547 -11209028.98246  21383190.4524   21383193.3584
       178.6094        139.1764
  -7945757.92347  -6120545.67346  21268162.2184   21268166.3904
     -1788.4844      -1393.6244
  -8201427.98446  -6267789.73046  23155689.4994   23155692.5464
      1952.3284       1521.2954
 98  6 17 17 15  0.0030000  0  8G10G 4G 8G 6G 9G 5G24G30
  -3729598.68045  -2789662.05145  23944955.2024   23944960.6284
      2094.8284       1632.3344
  10803395.92546   8440657.94646  23222826.1164   23222829.5154
     -3710.8124      -2891.5424
  -2617289.93646    843748.68946  22584312.4214   22584315.9254
     -1888.8124      -1471.8024
  -1532141.01143  -1104742.65942  25367253.9684   25367257.7534
      1425.2504       1110.5844
   9685482.19246   7557999.70545  23637436.1874   23637440.6984
     -3552.6874      -2768.3284
 -14587410.50747 -11211070.65246  21382691.6874   21382694.4874
       170.6564        132.9794
  -7918863.68246  -6099589.12346  21273280.1244   21273285.3514
     -1797.5314      -1400.6744
  -8230680.21446  -6290583.64146  23150122.9764   23150126.7374
      1947.8284       1517.7884
 98  6 17 17 15 15.0030000  0  8G10G 4G 8G 6G 9G 5G24G30
  -3760990.71145  -2814123.33445  23938982.2184   23938987.7614
      2090.7974       1629.1924
  10859091.66246   8484057.20446  23233424.6634   23233428.0034
     -3715.3284      -2895.0614
  -2588881.25346    865885.31446  22589718.5384   22589722.0894
     -1899.0314      -1479.7654
  -1553512.34943  -1121395.64043  25363186.4834   25363192.5304
      1424.1724       1109.7444
   9738805.63246   7599550.42545  23647583.0694   23647587.6044
     -3557.1874      -2771.8344
 -14589913.25247 -11213020.83946  21382215.7024   21382218.5504
       162.9694        126.9894
  -7891835.13246  -6078527.92046  21278423.5934   21278428.7024
     -1806.3284      -1407.5284
  -8259865.46046  -6313325.37046  23144569.3194   23144572.9644
      1943.4384       1514.3674
 98  6 17 17 15 30.0030000  0  8G10G 4G 8G 6G 9G 5G24G30
  -3792321.50045  -2838536.88245  23933019.3354   23933025.0544
      2086.6564       1625.9664
  10914856.74446   8527510.50046  23244036.3514   23244039.7964
     -3719.9534      -2898.6654
  -2560319.64846    888141.09446  22595153.5384   22595157.5934
     -1909.1414      -1487.6424
  -1574864.06943  -1138033.26042  25359123.4914   25359129.1404
      1422.7814       1108.6614
   9792200.05146   7641156.44245  23657743.5854   23657747.4404
     -3562.0624      -2775.6334
 -14592299.27847 -11214880.08546  21381761.4994   21381764.2884
       155.2504        120.9744
  -7864671.92746  -6057361.78646  21283592.5154   21283596.9444
     -1815.3754      -1414.5784
  -8288981.87046  -6336013.45346  23139028.6714   23139032.4094
      1938.8754       1510.8124
 98  6 17 17 15 45.0030000  0  8G10G 4G 8G 6G 9G 5G24G30
  -3823588.55645  -2862900.75544  23927069.1554   23927075.0734
      2082.3594       1622.6184
  10970691.61046   8571018.16246  23254661.1874   23254665.1364
     -3724.6094      -2902.2934
  -2531605.10346    910516.06946  22600617.6014   22600621.6444
     -1919.3754      -1495.6174
  -1596193.27842  -1154653.41142  25355065.2964   25355071.8004
      1421.2034       1107.4314
   9845669.99146   7682821.31145  23667918.7334   23667923.1874
     -3567.2504      -2779.6754
 -14594569.83547 -11216649.35346  21381329.4604   21381332.2724
       147.6094        115.0204
  -7837374.62847  -6036091.15846  21288787.1324   21288791.3744
     -1824.1254      -1421.3964
  -8318030.99146  -6358649.12246  23133501.0154   23133504.4604
      1934.4384       1507.3544
 98  6 17 17 16  0.0030000  0  8G10G 4G 8G 6G 9G 5G24G30
  -3854790.38644  -2887213.80244  23921131.6084   23921137.6324
      2077.9064       1619.1484
  11026595.46346   8614579.58746  23265299.4914   23265303.3004
     -3729.1874      -2905.8604
  -2502736.64446    933010.96746  22606111.0074   22606115.1554
     -1929.7974      -1503.7384
  -1617497.09543  -1171253.74942  25351011.3194   25351017.9054
      1419.2664       1105.9214
   9899219.01746   7724547.78745  23678108.8274   23678113.2924
     -3572.5944      -2783.8394
 -14596726.30347 -11218329.70446  21380919.0774   21380922.2884
       139.9844        109.0794
  -7809948.09947  -6014719.83146  21294006.3974   21294010.3584
     -1832.6724      -1428.0564
  -8347015.36546  -6381234.34846  23127985.2884   23127988.3944
      1930.1564       1504.0184
 98  6 17 17 16 15.0030000  0  8G10G 4G 8G 6G 9G 5G24G30
  -3885926.59545  -2911475.73045  23915207.1634   23915213.0344
      2073.5784       1615.7754
  11082568.25546   8658194.73746  23275950.9604   23275955.0624
     -3733.8284      -2909.4764
  -2473710.59046    955628.64746  22611634.7654   22611639.0194
     -1940.2814      -1511.9074
  -1638768.90044  -1187829.14142  25346963.1474   25346969.6164
      1416.9534       1104.1194
   9952848.81746   7766337.17845  23688314.2724   23688318.4914
     -3578.0624      -2788.1014
 -14598767.84847 -11219920.50846  21380530.4374   21380533.8584
       132.2504        103.0524
  -7782392.83147  -5993248.19046  21299249.9764   21299253.9724
     -1841.3444      -1434.8134
  -8375934.39346  -6403768.65046  23122481.8744   23122484.6634
      1925.6724       1500.5244
 98  6 17 17 16 30.0030000  0  8G10G 4G 8G 6G 9G 5G24G30
  -3916999.56145  -2935688.40644  23909293.8904   23909299.4214
      2069.6724       1612.7314
  11138608.60046   8701862.52246  23286614.6794   23286618.7454
     -3738.0784      -2912.7884
  -2444529.00346    978367.53046  22617187.5304   22617192.3944
     -1950.4844      -1519.8584
  -1660007.47643  -1204378.59842  25342920.6164   25342926.2764
      1415.0314       1102.6224
  10006560.22046   7808190.17045  23698535.3194   23698539.4334
     -3583.2974      -2792.1794
 -14600695.33047 -11221422.44646  21380163.8824   21380167.1634
       124.9064         97.3304
  -7754709.60747  -5971676.84646  21304517.6164   21304521.9874
     -1849.6414      -1441.2784
  -8404786.21946  -6426250.57146  23116991.5464   23116994.8744
      1921.3754       1497.1754
 98  6 17 17 16 45.0030000  0  8G10G 4G 8G 6G 9G 5G24G30
  -3948014.47445  -2959855.79344  23903391.5384   23903396.7414
      2065.7194       1609.6514
  11194713.61846   8745580.69546  23297291.2884   23297296.0694
     -3742.5784      -2916.2954
  -2415193.85846   1001226.08046  22622769.6714   22622774.7694
     -1960.7974      -1527.8944
  -1681218.04843  -1220906.28942  25338885.0074   25338891.6634
      1413.1414       1101.1494
  10060350.53746   7850104.66245  23708771.0384   23708775.6444
     -3588.7034      -2796.3924
 -14602512.69347 -11222838.57546  21379818.3124   21379821.1474
       117.4224         91.4984
  -7726901.47047  -5950008.16146  21309809.6244   21309813.6084
     -1858.0624      -1447.8414
  -8433572.87546  -6448681.72646  23111513.6324   23111517.2294
      1916.8914       1493.6814
 98  6 17 17 17  0.0030000  0  8G10G 4G 8G 6G 9G 5G24G30
  -3978969.45945  -2983976.51644  23897501.4994   23897507.3584
      2061.5784       1606.4254
  11250887.29546   8789352.37646  23307980.6554   23307985.3904
     -3747.2664      -2919.9474
  -2385704.74546   1024204.59946  22628381.5854   22628386.2264
     -1971.0944      -1535.9174
  -1702402.88344  -1237413.96643  25334853.7334   25334859.2654
      1411.5474       1099.9074
  10114220.97446   7892081.59545  23719022.1794   23719027.2884
     -3594.0164      -2800.5324
 -14604217.22447 -11224166.77447  21379493.5854   21379496.1634
       109.8914         85.6294
  -7698967.92347  -5928241.75946  21315125.1164   21315129.0074
     -1866.4374      -1454.3674
  -8462292.17546  -6471060.37546  23106048.6244   23106052.3044
      1912.3284       1490.1264
 98  6 17 17 17 15.0030000  0  8G10G 4G 8G 6G 9G 5G24G30
  -4009862.45444  -3008048.91644  23891622.5624   23891628.1634
      2057.4694       1603.2224
  11307131.80346   8833179.24246  23318683.4914   23318687.9214
     -3751.9534      -2923.6004
  -2356062.85846   1047302.14246  22634022.3354   22634026.0504
     -1981.0784      -1543.6974
  -1723566.04144  -1253904.67343  25330826.8354   25330831.8394
      1410.2664       1098.9084
  10168169.81646   7934119.59545  23729288.8824   23729293.9334
     -3599.0474      -2804.4524
 -14605810.48347 -11225408.25846  21379190.3904   21379193.0624
       102.5784         79.9314
  -7670909.58547  -5906378.12646  21320464.7264   21320468.1244
     -1874.5784      -1460.7104
  -8490943.18246  -6493385.81946  23100596.7414   23100600.1634
      1907.8444       1486.6314
 98  6 17 17 17 30.0030000  0  8G10G 4G 8G 6G 9G 5G24G30
  -4040694.34644  -3032073.72943  23885755.5694   23885761.6984
      2053.4384       1600.0814
  11363443.81546   8877058.71246  23329399.6164   23329404.2334
     -3756.3754      -2927.0454
  -2326274.51446   1070513.83046  22639690.9054   22639695.0774
     -1990.8124      -1551.2824
  -1744712.22843  -1270382.17143  25326802.0694   25326807.4834
      1409.1724       1098.0564
  10222190.76646   7976213.79245  23739568.6164   23739573.7494
     -3603.7814      -2808.1414
 -14607294.36447 -11226564.52646  21378908.2104   21378910.7414
        95.2034         74.1844
  -7642732.55947  -5884422.00346  21325826.5624   21325830.0424
     -1882.4064      -1466.8104
  -8519528.88646  -6515660.37846  23095157.2264   23095160.9404
      1903.5474       1483.2834
 98  6 17 17 17 45.0030000  0  8G10G 4G 8G 6G 9G 5G24G30
  -4071467.66345  -3056052.87944  23879899.7184   23879905.7534
      2049.6094       1597.0984
  11419820.75846   8920988.78546  23340127.6714   23340132.3124
     -3760.6724      -2930.3944
  -2296340.89446   1093838.71846  22645386.6714   22645391.8154
     -2000.5004      -1558.8314
  -1765843.57444  -1286848.08743  25322781.6874   25322788.4014
      1408.2814       1097.3624
  10276279.52546   8018360.81545  23749860.9374   23749866.1044
     -3608.1254      -2811.5264
 -14608669.97947 -11227636.42946  21378646.3664   21378649.1084
        88.1094         68.6574
  -7614442.19247  -5862377.55946  21331209.9524   21331213.2694
     -1889.7344      -1472.5204
  -8548053.20646  -6537887.10846  23089728.9444   23089732.2144
      1899.5944       1480.2034
 98  6 17 17 18  0.0030000  0  8G10G 4G 8G 6G 9G 5G24G30
  -4102184.00545  -3079987.64844  23874054.4914   23874059.2024
      2045.9224       1594.2254
  11476264.71346   8964971.04246  23350868.3584   23350873.2334
     -3765.2194      -2933.9374
  -2266259.33446   1117278.90146  22651111.3194   22651115.7374
     -2010.3594      -1566.5144
  -1786961.29844  -1303303.45643  25318763.4914   25318767.9214
      1407.4534       1096.7174
  10330433.12646   8060558.40945  23760166.2654   23760171.5974
     -3612.3444      -2814.8134
 -14609936.74747 -11228623.52246  21378405.1714   21378407.8904
        80.7814         62.9464
  -7586041.25047  -5840246.95546  21336614.2104   21336617.7964
     -1897.1254      -1478.2794
  -8576515.67746  -6560065.62245  23084312.3664   23084315.0154
      1895.3284       1476.8794
 98  6 17 17 18 15.0030000  0  8G10G 4G 8G 6G 9G 5G24G30
  -4132844.81045  -3103879.10545  23868219.7964   23868225.4684
      2042.2504       1591.3644
  11532776.82946   9009006.44546  23361622.8584   23361627.5814
     -3769.7194      -2937.4434
  -2236028.58746   1140835.31146  22656864.3514   22656868.0894
     -2020.3754      -1574.3184
  -1808066.25244  -1319748.84342  25314745.4764   25314751.2764
      1406.6094       1096.0594
  10384648.73146   8102804.29245  23770483.5934   23770488.5264
     -3616.3284      -2817.9184
 -14611091.42447 -11229523.26146  21378185.6794   21378189.1124
        73.2034         57.0414
  -7557527.31447  -5818028.30746  21342040.2724   21342044.0224
     -1904.7504      -1484.2214
  -8604911.37146  -6582192.10945  23078908.9444   23078911.8864
      1890.7194       1473.2874
 98  6 17 17 18 30.0030000  0  8G10G 4G 8G 6G 9G 5G24G30
  -4163451.90345  -3127728.74945  23862395.2884   23862401.6514
      2038.6094       1588.5274
  11589356.34746   9053094.36846  23372389.3274   23372393.5694
     -3774.2504      -2940.9744
  -2205649.68546   1164507.16646  22662645.1874   22662649.0894
     -2030.2194      -1581.9894
  -1829160.95944  -1336186.23742  25310732.9684   25310738.3234
      1405.9384       1095.5364
  10438922.29846   8145095.33645  23780811.0544   23780815.9874
     -3620.2344      -2820.9624
 -14612132.79447 -11230334.72146  21377987.6244   21377990.3784
        65.5634         51.0884
  -7528899.02147  -5795720.54746  21347487.6874   21347491.7184
     -1912.4534      -1490.2234
  -8633237.55746  -6604264.43146  23073518.9054   23073521.5304
      1886.0164       1469.6234
 98  6 17 17 18 45.0030000  0  8G10G 4G 8G 6G 9G 5G24G30
  -4194004.66145  -3151536.03845  23856581.3664   23856586.6874
      2034.9384       1585.6664
  11646002.37346   9097234.09846  23383168.7494   23383172.8514
     -3778.6874      -2944.4324
  -2175124.56946   1188292.97046  22668453.5624   22668457.8744
     -2039.8444      -1589.4894
  -1850247.03044  -1352616.90642  25306719.7724   25306723.9334
      1405.4064       1095.1224
  10493252.87046   8187430.83245  23791150.1084   23791155.1014
     -3623.9534      -2823.8604
 -14613060.29747 -11231057.44746  21377811.1634   21377813.6364
        57.9694         45.1704
  -7500155.84747  -5773323.26846  21352958.1084   21352961.6944
     -1920.1254      -1496.2014
  -8661494.12546  -6626282.51646  23068141.7654   23068143.8154
      1881.4384       1466.0554
